<?xml version="1.0" encoding="UTF-8" standalone="no" ?>
<gpx xmlns="http://www.topografix.com/GPX/1/1" xmlns:xsi="http://www.w3.org/2001/XMLSchema-instance" xsi:schemaLocation="http://www.topografix.com/GPX/1/1 http://www.topografix.com/GPX/1/1/gpx.xsd" version="1.1" creator="VisuGPX - https://www.visugpx.com">
  <metadata>
    <name>Puech Agut 22km D 740m</name>
    <desc><![CDATA[Rando bartas]]></desc>
  </metadata>
  <trk>
    <name><![CDATA[track]]></name>
    <trkseg>
      <trkpt lat="43.84485" lon="3.51827">
        <ele>632</ele>
        <time>2014-09-28T07:59:32Z</time>
      </trkpt>
      <trkpt lat="43.84492" lon="3.51819">
        <ele>623</ele>
        <time>2014-09-28T08:00:30Z</time>
      </trkpt>
      <trkpt lat="43.8449" lon="3.51824">
        <ele>629</ele>
        <time>2014-09-28T08:01:06Z</time>
      </trkpt>
      <trkpt lat="43.84491" lon="3.51824">
        <ele>630</ele>
        <time>2014-09-28T08:01:07Z</time>
      </trkpt>
      <trkpt lat="43.84489" lon="3.51823">
        <ele>632</ele>
        <time>2014-09-28T08:01:09Z</time>
      </trkpt>
      <trkpt lat="43.84496" lon="3.51829">
        <ele>634</ele>
        <time>2014-09-28T08:01:16Z</time>
      </trkpt>
      <trkpt lat="43.84497" lon="3.51831">
        <ele>633</ele>
        <time>2014-09-28T08:01:17Z</time>
      </trkpt>
      <trkpt lat="43.84505" lon="3.51839">
        <ele>635</ele>
        <time>2014-09-28T08:01:26Z</time>
      </trkpt>
      <trkpt lat="43.84512" lon="3.51847">
        <ele>629</ele>
        <time>2014-09-28T08:01:31Z</time>
      </trkpt>
      <trkpt lat="43.84521" lon="3.51855">
        <ele>628</ele>
        <time>2014-09-28T08:01:40Z</time>
      </trkpt>
      <trkpt lat="43.84539" lon="3.51866">
        <ele>634</ele>
        <time>2014-09-28T08:01:56Z</time>
      </trkpt>
      <trkpt lat="43.8455" lon="3.51866">
        <ele>635</ele>
        <time>2014-09-28T08:02:05Z</time>
      </trkpt>
      <trkpt lat="43.84568" lon="3.51872">
        <ele>637</ele>
        <time>2014-09-28T08:02:20Z</time>
      </trkpt>
      <trkpt lat="43.84578" lon="3.51872">
        <ele>642</ele>
        <time>2014-09-28T08:02:31Z</time>
      </trkpt>
      <trkpt lat="43.84585" lon="3.51866">
        <ele>636</ele>
        <time>2014-09-28T08:02:40Z</time>
      </trkpt>
      <trkpt lat="43.84586" lon="3.51864">
        <ele>637</ele>
        <time>2014-09-28T08:02:41Z</time>
      </trkpt>
      <trkpt lat="43.84589" lon="3.51854">
        <ele>640</ele>
        <time>2014-09-28T08:02:47Z</time>
      </trkpt>
      <trkpt lat="43.84591" lon="3.5184">
        <ele>640</ele>
        <time>2014-09-28T08:02:57Z</time>
      </trkpt>
      <trkpt lat="43.84591" lon="3.51839">
        <ele>641</ele>
        <time>2014-09-28T08:02:58Z</time>
      </trkpt>
      <trkpt lat="43.84598" lon="3.51831">
        <ele>643</ele>
        <time>2014-09-28T08:03:07Z</time>
      </trkpt>
      <trkpt lat="43.84599" lon="3.5183">
        <ele>644</ele>
        <time>2014-09-28T08:03:08Z</time>
      </trkpt>
      <trkpt lat="43.84606" lon="3.5183">
        <ele>648</ele>
        <time>2014-09-28T08:03:12Z</time>
      </trkpt>
      <trkpt lat="43.84608" lon="3.5183">
        <ele>648</ele>
        <time>2014-09-28T08:03:13Z</time>
      </trkpt>
      <trkpt lat="43.84616" lon="3.51833">
        <ele>648</ele>
        <time>2014-09-28T08:03:19Z</time>
      </trkpt>
      <trkpt lat="43.84626" lon="3.51834">
        <ele>642</ele>
        <time>2014-09-28T08:03:26Z</time>
      </trkpt>
      <trkpt lat="43.84637" lon="3.51835">
        <ele>645</ele>
        <time>2014-09-28T08:03:35Z</time>
      </trkpt>
      <trkpt lat="43.84647" lon="3.51834">
        <ele>647</ele>
        <time>2014-09-28T08:03:43Z</time>
      </trkpt>
      <trkpt lat="43.84654" lon="3.51832">
        <ele>643</ele>
        <time>2014-09-28T08:03:49Z</time>
      </trkpt>
      <trkpt lat="43.84665" lon="3.51825">
        <ele>632</ele>
        <time>2014-09-28T08:03:56Z</time>
      </trkpt>
      <trkpt lat="43.84678" lon="3.51808">
        <ele>632</ele>
        <time>2014-09-28T08:04:11Z</time>
      </trkpt>
      <trkpt lat="43.84679" lon="3.51806">
        <ele>632</ele>
        <time>2014-09-28T08:04:12Z</time>
      </trkpt>
      <trkpt lat="43.84679" lon="3.51794">
        <ele>633</ele>
        <time>2014-09-28T08:04:20Z</time>
      </trkpt>
      <trkpt lat="43.84679" lon="3.51785">
        <ele>629</ele>
        <time>2014-09-28T08:04:28Z</time>
      </trkpt>
      <trkpt lat="43.84675" lon="3.51782">
        <ele>627</ele>
        <time>2014-09-28T08:04:30Z</time>
      </trkpt>
      <trkpt lat="43.84671" lon="3.5177">
        <ele>625</ele>
        <time>2014-09-28T08:04:36Z</time>
      </trkpt>
      <trkpt lat="43.84671" lon="3.51769">
        <ele>625</ele>
        <time>2014-09-28T08:04:37Z</time>
      </trkpt>
      <trkpt lat="43.84664" lon="3.51763">
        <ele>628</ele>
        <time>2014-09-28T08:04:48Z</time>
      </trkpt>
      <trkpt lat="43.84655" lon="3.51766">
        <ele>625</ele>
        <time>2014-09-28T08:04:55Z</time>
      </trkpt>
      <trkpt lat="43.84646" lon="3.51769">
        <ele>623</ele>
        <time>2014-09-28T08:05:03Z</time>
      </trkpt>
      <trkpt lat="43.84644" lon="3.51769">
        <ele>623</ele>
        <time>2014-09-28T08:05:04Z</time>
      </trkpt>
      <trkpt lat="43.84641" lon="3.51768">
        <ele>621</ele>
        <time>2014-09-28T08:05:10Z</time>
      </trkpt>
      <trkpt lat="43.84628" lon="3.51765">
        <ele>614</ele>
        <time>2014-09-28T08:05:18Z</time>
      </trkpt>
      <trkpt lat="43.84626" lon="3.51764">
        <ele>620</ele>
        <time>2014-09-28T08:05:19Z</time>
      </trkpt>
      <trkpt lat="43.8462" lon="3.51758">
        <ele>625</ele>
        <time>2014-09-28T08:05:23Z</time>
      </trkpt>
      <trkpt lat="43.84609" lon="3.51749">
        <ele>622</ele>
        <time>2014-09-28T08:05:31Z</time>
      </trkpt>
      <trkpt lat="43.84602" lon="3.5174">
        <ele>623</ele>
        <time>2014-09-28T08:05:40Z</time>
      </trkpt>
      <trkpt lat="43.84597" lon="3.51731">
        <ele>628</ele>
        <time>2014-09-28T08:05:47Z</time>
      </trkpt>
      <trkpt lat="43.8459" lon="3.51719">
        <ele>627</ele>
        <time>2014-09-28T08:05:55Z</time>
      </trkpt>
      <trkpt lat="43.84585" lon="3.51709">
        <ele>622</ele>
        <time>2014-09-28T08:06:02Z</time>
      </trkpt>
      <trkpt lat="43.84584" lon="3.51708">
        <ele>622</ele>
        <time>2014-09-28T08:06:03Z</time>
      </trkpt>
      <trkpt lat="43.84577" lon="3.51698">
        <ele>620</ele>
        <time>2014-09-28T08:06:11Z</time>
      </trkpt>
      <trkpt lat="43.84574" lon="3.51687">
        <ele>627</ele>
        <time>2014-09-28T08:06:20Z</time>
      </trkpt>
      <trkpt lat="43.84572" lon="3.51675">
        <ele>624</ele>
        <time>2014-09-28T08:06:26Z</time>
      </trkpt>
      <trkpt lat="43.84566" lon="3.51662">
        <ele>614</ele>
        <time>2014-09-28T08:06:33Z</time>
      </trkpt>
      <trkpt lat="43.84563" lon="3.51651">
        <ele>611</ele>
        <time>2014-09-28T08:06:40Z</time>
      </trkpt>
      <trkpt lat="43.8456" lon="3.51638">
        <ele>615</ele>
        <time>2014-09-28T08:06:50Z</time>
      </trkpt>
      <trkpt lat="43.84554" lon="3.51629">
        <ele>610</ele>
        <time>2014-09-28T08:06:55Z</time>
      </trkpt>
      <trkpt lat="43.84554" lon="3.51626">
        <ele>612</ele>
        <time>2014-09-28T08:06:56Z</time>
      </trkpt>
      <trkpt lat="43.84543" lon="3.516">
        <ele>618</ele>
        <time>2014-09-28T08:07:11Z</time>
      </trkpt>
      <trkpt lat="43.84538" lon="3.5159">
        <ele>614</ele>
        <time>2014-09-28T08:07:18Z</time>
      </trkpt>
      <trkpt lat="43.84533" lon="3.51579">
        <ele>617</ele>
        <time>2014-09-28T08:07:24Z</time>
      </trkpt>
      <trkpt lat="43.8453" lon="3.51565">
        <ele>619</ele>
        <time>2014-09-28T08:07:33Z</time>
      </trkpt>
      <trkpt lat="43.84526" lon="3.51554">
        <ele>619</ele>
        <time>2014-09-28T08:07:39Z</time>
      </trkpt>
      <trkpt lat="43.84524" lon="3.51541">
        <ele>619</ele>
        <time>2014-09-28T08:07:46Z</time>
      </trkpt>
      <trkpt lat="43.84515" lon="3.51518">
        <ele>622</ele>
        <time>2014-09-28T08:08:01Z</time>
      </trkpt>
      <trkpt lat="43.84511" lon="3.51506">
        <ele>623</ele>
        <time>2014-09-28T08:08:09Z</time>
      </trkpt>
      <trkpt lat="43.84505" lon="3.51478">
        <ele>629</ele>
        <time>2014-09-28T08:08:27Z</time>
      </trkpt>
      <trkpt lat="43.84501" lon="3.51465">
        <ele>632</ele>
        <time>2014-09-28T08:08:34Z</time>
      </trkpt>
      <trkpt lat="43.84501" lon="3.5146">
        <ele>628</ele>
        <time>2014-09-28T08:08:38Z</time>
      </trkpt>
      <trkpt lat="43.84499" lon="3.51458">
        <ele>627</ele>
        <time>2014-09-28T08:08:40Z</time>
      </trkpt>
      <trkpt lat="43.84491" lon="3.51449">
        <ele>629</ele>
        <time>2014-09-28T08:08:57Z</time>
      </trkpt>
      <trkpt lat="43.84486" lon="3.51439">
        <ele>630</ele>
        <time>2014-09-28T08:09:04Z</time>
      </trkpt>
      <trkpt lat="43.84485" lon="3.51438">
        <ele>627</ele>
        <time>2014-09-28T08:09:05Z</time>
      </trkpt>
      <trkpt lat="43.8448" lon="3.51428">
        <ele>624</ele>
        <time>2014-09-28T08:09:14Z</time>
      </trkpt>
      <trkpt lat="43.84478" lon="3.51415">
        <ele>626</ele>
        <time>2014-09-28T08:09:21Z</time>
      </trkpt>
      <trkpt lat="43.84478" lon="3.51413">
        <ele>628</ele>
        <time>2014-09-28T08:09:22Z</time>
      </trkpt>
      <trkpt lat="43.84476" lon="3.51402">
        <ele>624</ele>
        <time>2014-09-28T08:09:29Z</time>
      </trkpt>
      <trkpt lat="43.84472" lon="3.51391">
        <ele>628</ele>
        <time>2014-09-28T08:09:35Z</time>
      </trkpt>
      <trkpt lat="43.84467" lon="3.51377">
        <ele>627</ele>
        <time>2014-09-28T08:09:45Z</time>
      </trkpt>
      <trkpt lat="43.84465" lon="3.51364">
        <ele>631</ele>
        <time>2014-09-28T08:09:53Z</time>
      </trkpt>
      <trkpt lat="43.84463" lon="3.51337">
        <ele>631</ele>
        <time>2014-09-28T08:10:08Z</time>
      </trkpt>
      <trkpt lat="43.84459" lon="3.51327">
        <ele>632</ele>
        <time>2014-09-28T08:10:13Z</time>
      </trkpt>
      <trkpt lat="43.84451" lon="3.51316">
        <ele>630</ele>
        <time>2014-09-28T08:10:20Z</time>
      </trkpt>
      <trkpt lat="43.84443" lon="3.51307">
        <ele>630</ele>
        <time>2014-09-28T08:10:27Z</time>
      </trkpt>
      <trkpt lat="43.84435" lon="3.51299">
        <ele>628</ele>
        <time>2014-09-28T08:10:34Z</time>
      </trkpt>
      <trkpt lat="43.84427" lon="3.51294">
        <ele>628</ele>
        <time>2014-09-28T08:10:40Z</time>
      </trkpt>
      <trkpt lat="43.8442" lon="3.51287">
        <ele>628</ele>
        <time>2014-09-28T08:10:46Z</time>
      </trkpt>
      <trkpt lat="43.84418" lon="3.51287">
        <ele>628</ele>
        <time>2014-09-28T08:10:47Z</time>
      </trkpt>
      <trkpt lat="43.8441" lon="3.5128">
        <ele>628</ele>
        <time>2014-09-28T08:10:54Z</time>
      </trkpt>
      <trkpt lat="43.84389" lon="3.51253">
        <ele>627</ele>
        <time>2014-09-28T08:11:17Z</time>
      </trkpt>
      <trkpt lat="43.84387" lon="3.51241">
        <ele>626</ele>
        <time>2014-09-28T08:11:23Z</time>
      </trkpt>
      <trkpt lat="43.84386" lon="3.51227">
        <ele>627</ele>
        <time>2014-09-28T08:11:31Z</time>
      </trkpt>
      <trkpt lat="43.84384" lon="3.51198">
        <ele>626</ele>
        <time>2014-09-28T08:11:47Z</time>
      </trkpt>
      <trkpt lat="43.84382" lon="3.51187">
        <ele>624</ele>
        <time>2014-09-28T08:11:53Z</time>
      </trkpt>
      <trkpt lat="43.84381" lon="3.51185">
        <ele>622</ele>
        <time>2014-09-28T08:11:55Z</time>
      </trkpt>
      <trkpt lat="43.84377" lon="3.51162">
        <ele>625</ele>
        <time>2014-09-28T08:12:08Z</time>
      </trkpt>
      <trkpt lat="43.84376" lon="3.51148">
        <ele>622</ele>
        <time>2014-09-28T08:12:17Z</time>
      </trkpt>
      <trkpt lat="43.84375" lon="3.51135">
        <ele>627</ele>
        <time>2014-09-28T08:12:24Z</time>
      </trkpt>
      <trkpt lat="43.84372" lon="3.51122">
        <ele>619</ele>
        <time>2014-09-28T08:12:31Z</time>
      </trkpt>
      <trkpt lat="43.84367" lon="3.51098">
        <ele>622</ele>
        <time>2014-09-28T08:12:46Z</time>
      </trkpt>
      <trkpt lat="43.84366" lon="3.51096">
        <ele>623</ele>
        <time>2014-09-28T08:12:47Z</time>
      </trkpt>
      <trkpt lat="43.84365" lon="3.51084">
        <ele>630</ele>
        <time>2014-09-28T08:12:55Z</time>
      </trkpt>
      <trkpt lat="43.84359" lon="3.51044">
        <ele>630</ele>
        <time>2014-09-28T08:13:17Z</time>
      </trkpt>
      <trkpt lat="43.84355" lon="3.51032">
        <ele>628</ele>
        <time>2014-09-28T08:13:24Z</time>
      </trkpt>
      <trkpt lat="43.84353" lon="3.51018">
        <ele>628</ele>
        <time>2014-09-28T08:13:31Z</time>
      </trkpt>
      <trkpt lat="43.84352" lon="3.51006">
        <ele>626</ele>
        <time>2014-09-28T08:13:39Z</time>
      </trkpt>
      <trkpt lat="43.84351" lon="3.50992">
        <ele>627</ele>
        <time>2014-09-28T08:13:47Z</time>
      </trkpt>
      <trkpt lat="43.84349" lon="3.50979">
        <ele>628</ele>
        <time>2014-09-28T08:13:54Z</time>
      </trkpt>
      <trkpt lat="43.84347" lon="3.50966">
        <ele>623</ele>
        <time>2014-09-28T08:13:59Z</time>
      </trkpt>
      <trkpt lat="43.84346" lon="3.50952">
        <ele>622</ele>
        <time>2014-09-28T08:14:07Z</time>
      </trkpt>
      <trkpt lat="43.84338" lon="3.50911">
        <ele>618</ele>
        <time>2014-09-28T08:14:30Z</time>
      </trkpt>
      <trkpt lat="43.84337" lon="3.509">
        <ele>625</ele>
        <time>2014-09-28T08:14:37Z</time>
      </trkpt>
      <trkpt lat="43.84338" lon="3.50871">
        <ele>621</ele>
        <time>2014-09-28T08:14:53Z</time>
      </trkpt>
      <trkpt lat="43.84337" lon="3.50858">
        <ele>622</ele>
        <time>2014-09-28T08:15:00Z</time>
      </trkpt>
      <trkpt lat="43.84336" lon="3.50843">
        <ele>620</ele>
        <time>2014-09-28T08:15:08Z</time>
      </trkpt>
      <trkpt lat="43.84336" lon="3.50829">
        <ele>617</ele>
        <time>2014-09-28T08:15:15Z</time>
      </trkpt>
      <trkpt lat="43.84334" lon="3.50817">
        <ele>618</ele>
        <time>2014-09-28T08:15:22Z</time>
      </trkpt>
      <trkpt lat="43.84333" lon="3.5079">
        <ele>618</ele>
        <time>2014-09-28T08:15:36Z</time>
      </trkpt>
      <trkpt lat="43.84333" lon="3.50775">
        <ele>618</ele>
        <time>2014-09-28T08:15:45Z</time>
      </trkpt>
      <trkpt lat="43.84333" lon="3.50748">
        <ele>617</ele>
        <time>2014-09-28T08:15:59Z</time>
      </trkpt>
      <trkpt lat="43.84333" lon="3.50735">
        <ele>616</ele>
        <time>2014-09-28T08:16:05Z</time>
      </trkpt>
      <trkpt lat="43.84336" lon="3.5071">
        <ele>616</ele>
        <time>2014-09-28T08:16:19Z</time>
      </trkpt>
      <trkpt lat="43.84336" lon="3.50682">
        <ele>613</ele>
        <time>2014-09-28T08:16:34Z</time>
      </trkpt>
      <trkpt lat="43.84337" lon="3.5067">
        <ele>615</ele>
        <time>2014-09-28T08:16:41Z</time>
      </trkpt>
      <trkpt lat="43.84337" lon="3.50643">
        <ele>614</ele>
        <time>2014-09-28T08:16:55Z</time>
      </trkpt>
      <trkpt lat="43.84338" lon="3.50628">
        <ele>612</ele>
        <time>2014-09-28T08:17:03Z</time>
      </trkpt>
      <trkpt lat="43.84342" lon="3.50587">
        <ele>609</ele>
        <time>2014-09-28T08:17:25Z</time>
      </trkpt>
      <trkpt lat="43.84343" lon="3.50573">
        <ele>611</ele>
        <time>2014-09-28T08:17:32Z</time>
      </trkpt>
      <trkpt lat="43.84346" lon="3.5056">
        <ele>614</ele>
        <time>2014-09-28T08:17:40Z</time>
      </trkpt>
      <trkpt lat="43.84352" lon="3.50538">
        <ele>615</ele>
        <time>2014-09-28T08:17:53Z</time>
      </trkpt>
      <trkpt lat="43.84353" lon="3.50523">
        <ele>615</ele>
        <time>2014-09-28T08:18:02Z</time>
      </trkpt>
      <trkpt lat="43.84354" lon="3.50511">
        <ele>616</ele>
        <time>2014-09-28T08:18:08Z</time>
      </trkpt>
      <trkpt lat="43.84358" lon="3.50498">
        <ele>616</ele>
        <time>2014-09-28T08:18:17Z</time>
      </trkpt>
      <trkpt lat="43.8436" lon="3.50488">
        <ele>616</ele>
        <time>2014-09-28T08:18:22Z</time>
      </trkpt>
      <trkpt lat="43.8436" lon="3.50474">
        <ele>615</ele>
        <time>2014-09-28T08:18:29Z</time>
      </trkpt>
      <trkpt lat="43.84363" lon="3.50446">
        <ele>614</ele>
        <time>2014-09-28T08:18:45Z</time>
      </trkpt>
      <trkpt lat="43.84364" lon="3.50432">
        <ele>613</ele>
        <time>2014-09-28T08:18:52Z</time>
      </trkpt>
      <trkpt lat="43.84365" lon="3.50421">
        <ele>615</ele>
        <time>2014-09-28T08:18:58Z</time>
      </trkpt>
      <trkpt lat="43.84367" lon="3.50406">
        <ele>614</ele>
        <time>2014-09-28T08:19:06Z</time>
      </trkpt>
      <trkpt lat="43.84368" lon="3.50393">
        <ele>613</ele>
        <time>2014-09-28T08:19:13Z</time>
      </trkpt>
      <trkpt lat="43.84371" lon="3.50355">
        <ele>608</ele>
        <time>2014-09-28T08:19:33Z</time>
      </trkpt>
      <trkpt lat="43.8437" lon="3.50329">
        <ele>607</ele>
        <time>2014-09-28T08:19:48Z</time>
      </trkpt>
      <trkpt lat="43.84369" lon="3.50314">
        <ele>606</ele>
        <time>2014-09-28T08:19:55Z</time>
      </trkpt>
      <trkpt lat="43.84368" lon="3.50301">
        <ele>605</ele>
        <time>2014-09-28T08:20:02Z</time>
      </trkpt>
      <trkpt lat="43.84368" lon="3.50289">
        <ele>608</ele>
        <time>2014-09-28T08:20:09Z</time>
      </trkpt>
      <trkpt lat="43.84363" lon="3.5026">
        <ele>607</ele>
        <time>2014-09-28T08:20:23Z</time>
      </trkpt>
      <trkpt lat="43.84356" lon="3.50236">
        <ele>601</ele>
        <time>2014-09-28T08:20:36Z</time>
      </trkpt>
      <trkpt lat="43.8435" lon="3.50212">
        <ele>600</ele>
        <time>2014-09-28T08:20:50Z</time>
      </trkpt>
      <trkpt lat="43.84346" lon="3.50199">
        <ele>600</ele>
        <time>2014-09-28T08:20:58Z</time>
      </trkpt>
      <trkpt lat="43.84337" lon="3.5016">
        <ele>603</ele>
        <time>2014-09-28T08:21:21Z</time>
      </trkpt>
      <trkpt lat="43.84336" lon="3.50147">
        <ele>604</ele>
        <time>2014-09-28T08:21:29Z</time>
      </trkpt>
      <trkpt lat="43.84335" lon="3.50134">
        <ele>611</ele>
        <time>2014-09-28T08:21:37Z</time>
      </trkpt>
      <trkpt lat="43.84338" lon="3.50121">
        <ele>617</ele>
        <time>2014-09-28T08:21:47Z</time>
      </trkpt>
      <trkpt lat="43.84339" lon="3.5011">
        <ele>616</ele>
        <time>2014-09-28T08:21:54Z</time>
      </trkpt>
      <trkpt lat="43.8434" lon="3.50096">
        <ele>614</ele>
        <time>2014-09-28T08:22:02Z</time>
      </trkpt>
      <trkpt lat="43.84338" lon="3.50069">
        <ele>614</ele>
        <time>2014-09-28T08:22:16Z</time>
      </trkpt>
      <trkpt lat="43.84337" lon="3.50053">
        <ele>613</ele>
        <time>2014-09-28T08:22:24Z</time>
      </trkpt>
      <trkpt lat="43.84333" lon="3.50013">
        <ele>612</ele>
        <time>2014-09-28T08:22:48Z</time>
      </trkpt>
      <trkpt lat="43.84328" lon="3.49962">
        <ele>611</ele>
        <time>2014-09-28T08:23:17Z</time>
      </trkpt>
      <trkpt lat="43.84325" lon="3.4991">
        <ele>612</ele>
        <time>2014-09-28T08:23:47Z</time>
      </trkpt>
      <trkpt lat="43.84325" lon="3.49895">
        <ele>614</ele>
        <time>2014-09-28T08:23:55Z</time>
      </trkpt>
      <trkpt lat="43.84324" lon="3.49884">
        <ele>611</ele>
        <time>2014-09-28T08:24:01Z</time>
      </trkpt>
      <trkpt lat="43.84319" lon="3.4986">
        <ele>611</ele>
        <time>2014-09-28T08:24:14Z</time>
      </trkpt>
      <trkpt lat="43.84318" lon="3.49846">
        <ele>613</ele>
        <time>2014-09-28T08:24:22Z</time>
      </trkpt>
      <trkpt lat="43.84314" lon="3.4982">
        <ele>613</ele>
        <time>2014-09-28T08:24:37Z</time>
      </trkpt>
      <trkpt lat="43.84308" lon="3.49765">
        <ele>618</ele>
        <time>2014-09-28T08:25:09Z</time>
      </trkpt>
      <trkpt lat="43.84306" lon="3.49737">
        <ele>616</ele>
        <time>2014-09-28T08:25:25Z</time>
      </trkpt>
      <trkpt lat="43.84307" lon="3.49698">
        <ele>615</ele>
        <time>2014-09-28T08:25:47Z</time>
      </trkpt>
      <trkpt lat="43.84308" lon="3.49686">
        <ele>614</ele>
        <time>2014-09-28T08:25:53Z</time>
      </trkpt>
      <trkpt lat="43.84309" lon="3.49672">
        <ele>614</ele>
        <time>2014-09-28T08:26:01Z</time>
      </trkpt>
      <trkpt lat="43.84311" lon="3.49658">
        <ele>613</ele>
        <time>2014-09-28T08:26:08Z</time>
      </trkpt>
      <trkpt lat="43.84314" lon="3.49644">
        <ele>612</ele>
        <time>2014-09-28T08:26:16Z</time>
      </trkpt>
      <trkpt lat="43.84315" lon="3.49633">
        <ele>612</ele>
        <time>2014-09-28T08:26:22Z</time>
      </trkpt>
      <trkpt lat="43.84316" lon="3.4962">
        <ele>611</ele>
        <time>2014-09-28T08:26:30Z</time>
      </trkpt>
      <trkpt lat="43.84322" lon="3.49563">
        <ele>609</ele>
        <time>2014-09-28T08:27:00Z</time>
      </trkpt>
      <trkpt lat="43.84324" lon="3.49537">
        <ele>609</ele>
        <time>2014-09-28T08:27:14Z</time>
      </trkpt>
      <trkpt lat="43.84324" lon="3.49525">
        <ele>610</ele>
        <time>2014-09-28T08:27:21Z</time>
      </trkpt>
      <trkpt lat="43.84321" lon="3.49498">
        <ele>611</ele>
        <time>2014-09-28T08:27:37Z</time>
      </trkpt>
      <trkpt lat="43.84318" lon="3.49486">
        <ele>612</ele>
        <time>2014-09-28T08:27:45Z</time>
      </trkpt>
      <trkpt lat="43.84317" lon="3.49472">
        <ele>612</ele>
        <time>2014-09-28T08:27:51Z</time>
      </trkpt>
      <trkpt lat="43.84309" lon="3.49432">
        <ele>612</ele>
        <time>2014-09-28T08:28:15Z</time>
      </trkpt>
      <trkpt lat="43.84305" lon="3.49407">
        <ele>612</ele>
        <time>2014-09-28T08:28:30Z</time>
      </trkpt>
      <trkpt lat="43.843" lon="3.49381">
        <ele>611</ele>
        <time>2014-09-28T08:28:43Z</time>
      </trkpt>
      <trkpt lat="43.84297" lon="3.49369">
        <ele>613</ele>
        <time>2014-09-28T08:28:51Z</time>
      </trkpt>
      <trkpt lat="43.84292" lon="3.49343">
        <ele>614</ele>
        <time>2014-09-28T08:29:05Z</time>
      </trkpt>
      <trkpt lat="43.84289" lon="3.4933">
        <ele>616</ele>
        <time>2014-09-28T08:29:12Z</time>
      </trkpt>
      <trkpt lat="43.84286" lon="3.49315">
        <ele>613</ele>
        <time>2014-09-28T08:29:22Z</time>
      </trkpt>
      <trkpt lat="43.84281" lon="3.49292">
        <ele>613</ele>
        <time>2014-09-28T08:29:35Z</time>
      </trkpt>
      <trkpt lat="43.84267" lon="3.49225">
        <ele>618</ele>
        <time>2014-09-28T08:30:15Z</time>
      </trkpt>
      <trkpt lat="43.84261" lon="3.49187">
        <ele>612</ele>
        <time>2014-09-28T08:30:35Z</time>
      </trkpt>
      <trkpt lat="43.84261" lon="3.49158">
        <ele>613</ele>
        <time>2014-09-28T08:30:51Z</time>
      </trkpt>
      <trkpt lat="43.84267" lon="3.49079">
        <ele>617</ele>
        <time>2014-09-28T08:31:34Z</time>
      </trkpt>
      <trkpt lat="43.84267" lon="3.49067">
        <ele>618</ele>
        <time>2014-09-28T08:31:42Z</time>
      </trkpt>
      <trkpt lat="43.84269" lon="3.49053">
        <ele>618</ele>
        <time>2014-09-28T08:31:50Z</time>
      </trkpt>
      <trkpt lat="43.84269" lon="3.49041">
        <ele>618</ele>
        <time>2014-09-28T08:31:57Z</time>
      </trkpt>
      <trkpt lat="43.84269" lon="3.49024">
        <ele>619</ele>
        <time>2014-09-28T08:32:06Z</time>
      </trkpt>
      <trkpt lat="43.84271" lon="3.49011">
        <ele>617</ele>
        <time>2014-09-28T08:32:13Z</time>
      </trkpt>
      <trkpt lat="43.84272" lon="3.48997">
        <ele>617</ele>
        <time>2014-09-28T08:32:20Z</time>
      </trkpt>
      <trkpt lat="43.84272" lon="3.48984">
        <ele>620</ele>
        <time>2014-09-28T08:32:28Z</time>
      </trkpt>
      <trkpt lat="43.84271" lon="3.48973">
        <ele>619</ele>
        <time>2014-09-28T08:32:34Z</time>
      </trkpt>
      <trkpt lat="43.84272" lon="3.48946">
        <ele>619</ele>
        <time>2014-09-28T08:32:48Z</time>
      </trkpt>
      <trkpt lat="43.84274" lon="3.48932">
        <ele>618</ele>
        <time>2014-09-28T08:32:56Z</time>
      </trkpt>
      <trkpt lat="43.84274" lon="3.48919">
        <ele>618</ele>
        <time>2014-09-28T08:33:03Z</time>
      </trkpt>
      <trkpt lat="43.84274" lon="3.48918">
        <ele>618</ele>
        <time>2014-09-28T08:33:04Z</time>
      </trkpt>
      <trkpt lat="43.84274" lon="3.48904">
        <ele>618</ele>
        <time>2014-09-28T08:33:11Z</time>
      </trkpt>
      <trkpt lat="43.84276" lon="3.4888">
        <ele>618</ele>
        <time>2014-09-28T08:33:24Z</time>
      </trkpt>
      <trkpt lat="43.84274" lon="3.48865">
        <ele>620</ele>
        <time>2014-09-28T08:33:33Z</time>
      </trkpt>
      <trkpt lat="43.84267" lon="3.48854">
        <ele>620</ele>
        <time>2014-09-28T08:33:41Z</time>
      </trkpt>
      <trkpt lat="43.84261" lon="3.48848">
        <ele>623</ele>
        <time>2014-09-28T08:33:47Z</time>
      </trkpt>
      <trkpt lat="43.84251" lon="3.48846">
        <ele>626</ele>
        <time>2014-09-28T08:33:54Z</time>
      </trkpt>
      <trkpt lat="43.84241" lon="3.48845">
        <ele>623</ele>
        <time>2014-09-28T08:34:01Z</time>
      </trkpt>
      <trkpt lat="43.84231" lon="3.48848">
        <ele>622</ele>
        <time>2014-09-28T08:34:08Z</time>
      </trkpt>
      <trkpt lat="43.84222" lon="3.48846">
        <ele>622</ele>
        <time>2014-09-28T08:34:16Z</time>
      </trkpt>
      <trkpt lat="43.84212" lon="3.48844">
        <ele>622</ele>
        <time>2014-09-28T08:34:25Z</time>
      </trkpt>
      <trkpt lat="43.84202" lon="3.4884">
        <ele>624</ele>
        <time>2014-09-28T08:34:34Z</time>
      </trkpt>
      <trkpt lat="43.84193" lon="3.48837">
        <ele>624</ele>
        <time>2014-09-28T08:34:42Z</time>
      </trkpt>
      <trkpt lat="43.84167" lon="3.48826">
        <ele>618</ele>
        <time>2014-09-28T08:35:01Z</time>
      </trkpt>
      <trkpt lat="43.84147" lon="3.48815">
        <ele>621</ele>
        <time>2014-09-28T08:35:16Z</time>
      </trkpt>
      <trkpt lat="43.8414" lon="3.48807">
        <ele>619</ele>
        <time>2014-09-28T08:35:28Z</time>
      </trkpt>
      <trkpt lat="43.8414" lon="3.48806">
        <ele>618</ele>
        <time>2014-09-28T08:35:29Z</time>
      </trkpt>
      <trkpt lat="43.84138" lon="3.48795">
        <ele>613</ele>
        <time>2014-09-28T08:35:34Z</time>
      </trkpt>
      <trkpt lat="43.84137" lon="3.48781">
        <ele>613</ele>
        <time>2014-09-28T08:35:43Z</time>
      </trkpt>
      <trkpt lat="43.84136" lon="3.4878">
        <ele>615</ele>
        <time>2014-09-28T08:35:44Z</time>
      </trkpt>
      <trkpt lat="43.84135" lon="3.48768">
        <ele>614</ele>
        <time>2014-09-28T08:35:56Z</time>
      </trkpt>
      <trkpt lat="43.84135" lon="3.48767">
        <ele>614</ele>
        <time>2014-09-28T08:35:57Z</time>
      </trkpt>
      <trkpt lat="43.84133" lon="3.48753">
        <ele>615</ele>
        <time>2014-09-28T08:36:43Z</time>
      </trkpt>
      <trkpt lat="43.84133" lon="3.48753">
        <ele>615</ele>
        <time>2014-09-28T08:36:44Z</time>
      </trkpt>
      <trkpt lat="43.84133" lon="3.48739">
        <ele>613</ele>
        <time>2014-09-28T08:36:54Z</time>
      </trkpt>
      <trkpt lat="43.84127" lon="3.487">
        <ele>612</ele>
        <time>2014-09-28T08:37:18Z</time>
      </trkpt>
      <trkpt lat="43.84127" lon="3.48698">
        <ele>612</ele>
        <time>2014-09-28T08:37:19Z</time>
      </trkpt>
      <trkpt lat="43.84126" lon="3.48686">
        <ele>617</ele>
        <time>2014-09-28T08:37:28Z</time>
      </trkpt>
      <trkpt lat="43.84125" lon="3.48685">
        <ele>617</ele>
        <time>2014-09-28T08:37:29Z</time>
      </trkpt>
      <trkpt lat="43.84124" lon="3.48674">
        <ele>616</ele>
        <time>2014-09-28T08:37:36Z</time>
      </trkpt>
      <trkpt lat="43.84124" lon="3.48661">
        <ele>615</ele>
        <time>2014-09-28T08:37:45Z</time>
      </trkpt>
      <trkpt lat="43.84122" lon="3.48648">
        <ele>616</ele>
        <time>2014-09-28T08:37:54Z</time>
      </trkpt>
      <trkpt lat="43.84122" lon="3.48646">
        <ele>616</ele>
        <time>2014-09-28T08:37:55Z</time>
      </trkpt>
      <trkpt lat="43.84117" lon="3.4862">
        <ele>620</ele>
        <time>2014-09-28T08:38:15Z</time>
      </trkpt>
      <trkpt lat="43.84117" lon="3.48595">
        <ele>616</ele>
        <time>2014-09-28T08:38:32Z</time>
      </trkpt>
      <trkpt lat="43.84116" lon="3.4858">
        <ele>618</ele>
        <time>2014-09-28T08:38:42Z</time>
      </trkpt>
      <trkpt lat="43.84115" lon="3.48569">
        <ele>618</ele>
        <time>2014-09-28T08:38:49Z</time>
      </trkpt>
      <trkpt lat="43.84111" lon="3.48557">
        <ele>622</ele>
        <time>2014-09-28T08:38:58Z</time>
      </trkpt>
      <trkpt lat="43.84106" lon="3.48547">
        <ele>620</ele>
        <time>2014-09-28T08:39:08Z</time>
      </trkpt>
      <trkpt lat="43.84098" lon="3.48537">
        <ele>623</ele>
        <time>2014-09-28T08:39:18Z</time>
      </trkpt>
      <trkpt lat="43.84091" lon="3.4853">
        <ele>625</ele>
        <time>2014-09-28T08:39:28Z</time>
      </trkpt>
      <trkpt lat="43.8409" lon="3.48517">
        <ele>624</ele>
        <time>2014-09-28T08:39:40Z</time>
      </trkpt>
      <trkpt lat="43.84105" lon="3.48499">
        <ele>634</ele>
        <time>2014-09-28T08:40:03Z</time>
      </trkpt>
      <trkpt lat="43.84105" lon="3.48498">
        <ele>634</ele>
        <time>2014-09-28T08:40:04Z</time>
      </trkpt>
      <trkpt lat="43.84111" lon="3.4849">
        <ele>633</ele>
        <time>2014-09-28T08:40:14Z</time>
      </trkpt>
      <trkpt lat="43.84116" lon="3.48479">
        <ele>633</ele>
        <time>2014-09-28T08:40:27Z</time>
      </trkpt>
      <trkpt lat="43.84115" lon="3.48466">
        <ele>632</ele>
        <time>2014-09-28T08:40:35Z</time>
      </trkpt>
      <trkpt lat="43.84115" lon="3.48465">
        <ele>632</ele>
        <time>2014-09-28T08:40:36Z</time>
      </trkpt>
      <trkpt lat="43.84115" lon="3.48451">
        <ele>638</ele>
        <time>2014-09-28T08:40:48Z</time>
      </trkpt>
      <trkpt lat="43.84117" lon="3.4844">
        <ele>635</ele>
        <time>2014-09-28T08:40:56Z</time>
      </trkpt>
      <trkpt lat="43.84116" lon="3.48426">
        <ele>636</ele>
        <time>2014-09-28T08:41:07Z</time>
      </trkpt>
      <trkpt lat="43.84115" lon="3.48413">
        <ele>645</ele>
        <time>2014-09-28T08:41:43Z</time>
      </trkpt>
      <trkpt lat="43.84113" lon="3.484">
        <ele>645</ele>
        <time>2014-09-28T08:41:54Z</time>
      </trkpt>
      <trkpt lat="43.84112" lon="3.48388">
        <ele>645</ele>
        <time>2014-09-28T08:42:04Z</time>
      </trkpt>
      <trkpt lat="43.84111" lon="3.48375">
        <ele>643</ele>
        <time>2014-09-28T08:42:13Z</time>
      </trkpt>
      <trkpt lat="43.84111" lon="3.48362">
        <ele>646</ele>
        <time>2014-09-28T08:42:22Z</time>
      </trkpt>
      <trkpt lat="43.84113" lon="3.48349">
        <ele>646</ele>
        <time>2014-09-28T08:42:30Z</time>
      </trkpt>
      <trkpt lat="43.84105" lon="3.48354">
        <ele>647</ele>
        <time>2014-09-28T08:42:46Z</time>
      </trkpt>
      <trkpt lat="43.84099" lon="3.48365">
        <ele>653</ele>
        <time>2014-09-28T08:42:53Z</time>
      </trkpt>
      <trkpt lat="43.84096" lon="3.48377">
        <ele>655</ele>
        <time>2014-09-28T08:43:01Z</time>
      </trkpt>
      <trkpt lat="43.84089" lon="3.48389">
        <ele>655</ele>
        <time>2014-09-28T08:43:10Z</time>
      </trkpt>
      <trkpt lat="43.84081" lon="3.48395">
        <ele>659</ele>
        <time>2014-09-28T08:43:20Z</time>
      </trkpt>
      <trkpt lat="43.84074" lon="3.48386">
        <ele>655</ele>
        <time>2014-09-28T08:43:32Z</time>
      </trkpt>
      <trkpt lat="43.84071" lon="3.48383">
        <ele>657</ele>
        <time>2014-09-28T08:43:44Z</time>
      </trkpt>
      <trkpt lat="43.84069" lon="3.4838">
        <ele>656</ele>
        <time>2014-09-28T08:43:46Z</time>
      </trkpt>
      <trkpt lat="43.84065" lon="3.48368">
        <ele>656</ele>
        <time>2014-09-28T08:43:56Z</time>
      </trkpt>
      <trkpt lat="43.84065" lon="3.48366">
        <ele>655</ele>
        <time>2014-09-28T08:43:57Z</time>
      </trkpt>
      <trkpt lat="43.84062" lon="3.48355">
        <ele>657</ele>
        <time>2014-09-28T08:44:07Z</time>
      </trkpt>
      <trkpt lat="43.84057" lon="3.48344">
        <ele>658</ele>
        <time>2014-09-28T08:44:18Z</time>
      </trkpt>
      <trkpt lat="43.84052" lon="3.48331">
        <ele>660</ele>
        <time>2014-09-28T08:44:33Z</time>
      </trkpt>
      <trkpt lat="43.8405" lon="3.48319">
        <ele>666</ele>
        <time>2014-09-28T08:44:51Z</time>
      </trkpt>
      <trkpt lat="43.84048" lon="3.48318">
        <ele>666</ele>
        <time>2014-09-28T08:44:52Z</time>
      </trkpt>
      <trkpt lat="43.84042" lon="3.48308">
        <ele>666</ele>
        <time>2014-09-28T08:45:01Z</time>
      </trkpt>
      <trkpt lat="43.8404" lon="3.48296">
        <ele>666</ele>
        <time>2014-09-28T08:45:09Z</time>
      </trkpt>
      <trkpt lat="43.84035" lon="3.48282">
        <ele>667</ele>
        <time>2014-09-28T08:45:19Z</time>
      </trkpt>
      <trkpt lat="43.84033" lon="3.48271">
        <ele>667</ele>
        <time>2014-09-28T08:45:26Z</time>
      </trkpt>
      <trkpt lat="43.84033" lon="3.48269">
        <ele>667</ele>
        <time>2014-09-28T08:45:27Z</time>
      </trkpt>
      <trkpt lat="43.84031" lon="3.48258">
        <ele>667</ele>
        <time>2014-09-28T08:45:34Z</time>
      </trkpt>
      <trkpt lat="43.84025" lon="3.48247">
        <ele>666</ele>
        <time>2014-09-28T08:45:44Z</time>
      </trkpt>
      <trkpt lat="43.84021" lon="3.48234">
        <ele>669</ele>
        <time>2014-09-28T08:45:53Z</time>
      </trkpt>
      <trkpt lat="43.84019" lon="3.48222">
        <ele>669</ele>
        <time>2014-09-28T08:46:01Z</time>
      </trkpt>
      <trkpt lat="43.84014" lon="3.48172">
        <ele>675</ele>
        <time>2014-09-28T08:46:34Z</time>
      </trkpt>
      <trkpt lat="43.84015" lon="3.48157">
        <ele>672</ele>
        <time>2014-09-28T08:46:42Z</time>
      </trkpt>
      <trkpt lat="43.84012" lon="3.48146">
        <ele>674</ele>
        <time>2014-09-28T08:46:51Z</time>
      </trkpt>
      <trkpt lat="43.84013" lon="3.48143">
        <ele>674</ele>
        <time>2014-09-28T08:46:52Z</time>
      </trkpt>
      <trkpt lat="43.84011" lon="3.4813">
        <ele>675</ele>
        <time>2014-09-28T08:47:00Z</time>
      </trkpt>
      <trkpt lat="43.84009" lon="3.48104">
        <ele>673</ele>
        <time>2014-09-28T08:47:14Z</time>
      </trkpt>
      <trkpt lat="43.84007" lon="3.48091">
        <ele>674</ele>
        <time>2014-09-28T08:47:22Z</time>
      </trkpt>
      <trkpt lat="43.84005" lon="3.48079">
        <ele>675</ele>
        <time>2014-09-28T08:47:30Z</time>
      </trkpt>
      <trkpt lat="43.84008" lon="3.48062">
        <ele>689</ele>
        <time>2014-09-28T08:48:56Z</time>
      </trkpt>
      <trkpt lat="43.84009" lon="3.48062">
        <ele>684</ele>
        <time>2014-09-28T08:49:01Z</time>
      </trkpt>
      <trkpt lat="43.83999" lon="3.48059">
        <ele>683</ele>
        <time>2014-09-28T08:49:21Z</time>
      </trkpt>
      <trkpt lat="43.8399" lon="3.48057">
        <ele>688</ele>
        <time>2014-09-28T08:49:35Z</time>
      </trkpt>
      <trkpt lat="43.83989" lon="3.48058">
        <ele>687</ele>
        <time>2014-09-28T08:49:36Z</time>
      </trkpt>
      <trkpt lat="43.8398" lon="3.48059">
        <ele>689</ele>
        <time>2014-09-28T08:49:43Z</time>
      </trkpt>
      <trkpt lat="43.83978" lon="3.4806">
        <ele>687</ele>
        <time>2014-09-28T08:49:44Z</time>
      </trkpt>
      <trkpt lat="43.83971" lon="3.48065">
        <ele>681</ele>
        <time>2014-09-28T08:49:51Z</time>
      </trkpt>
      <trkpt lat="43.83961" lon="3.48069">
        <ele>676</ele>
        <time>2014-09-28T08:50:02Z</time>
      </trkpt>
      <trkpt lat="43.83942" lon="3.48079">
        <ele>680</ele>
        <time>2014-09-28T08:50:19Z</time>
      </trkpt>
      <trkpt lat="43.83933" lon="3.48081">
        <ele>680</ele>
        <time>2014-09-28T08:50:27Z</time>
      </trkpt>
      <trkpt lat="43.83923" lon="3.48082">
        <ele>682</ele>
        <time>2014-09-28T08:50:35Z</time>
      </trkpt>
      <trkpt lat="43.83915" lon="3.4808">
        <ele>678</ele>
        <time>2014-09-28T08:50:44Z</time>
      </trkpt>
      <trkpt lat="43.83913" lon="3.48081">
        <ele>680</ele>
        <time>2014-09-28T08:50:45Z</time>
      </trkpt>
      <trkpt lat="43.83904" lon="3.48084">
        <ele>683</ele>
        <time>2014-09-28T08:50:51Z</time>
      </trkpt>
      <trkpt lat="43.83895" lon="3.48086">
        <ele>680</ele>
        <time>2014-09-28T08:51:00Z</time>
      </trkpt>
      <trkpt lat="43.83876" lon="3.48081">
        <ele>684</ele>
        <time>2014-09-28T08:51:19Z</time>
      </trkpt>
      <trkpt lat="43.83875" lon="3.48081">
        <ele>685</ele>
        <time>2014-09-28T08:51:20Z</time>
      </trkpt>
      <trkpt lat="43.83866" lon="3.48078">
        <ele>687</ele>
        <time>2014-09-28T08:51:31Z</time>
      </trkpt>
      <trkpt lat="43.83857" lon="3.48075">
        <ele>686</ele>
        <time>2014-09-28T08:51:40Z</time>
      </trkpt>
      <trkpt lat="43.83847" lon="3.48071">
        <ele>685</ele>
        <time>2014-09-28T08:51:50Z</time>
      </trkpt>
      <trkpt lat="43.83838" lon="3.48067">
        <ele>689</ele>
        <time>2014-09-28T08:51:59Z</time>
      </trkpt>
      <trkpt lat="43.83831" lon="3.48061">
        <ele>690</ele>
        <time>2014-09-28T08:52:07Z</time>
      </trkpt>
      <trkpt lat="43.83825" lon="3.48049">
        <ele>686</ele>
        <time>2014-09-28T08:52:17Z</time>
      </trkpt>
      <trkpt lat="43.83819" lon="3.4804">
        <ele>688</ele>
        <time>2014-09-28T08:52:24Z</time>
      </trkpt>
      <trkpt lat="43.8381" lon="3.48032">
        <ele>690</ele>
        <time>2014-09-28T08:52:32Z</time>
      </trkpt>
      <trkpt lat="43.838" lon="3.48025">
        <ele>687</ele>
        <time>2014-09-28T08:52:42Z</time>
      </trkpt>
      <trkpt lat="43.83793" lon="3.48016">
        <ele>687</ele>
        <time>2014-09-28T08:52:51Z</time>
      </trkpt>
      <trkpt lat="43.83785" lon="3.48008">
        <ele>691</ele>
        <time>2014-09-28T08:52:59Z</time>
      </trkpt>
      <trkpt lat="43.83777" lon="3.48002">
        <ele>686</ele>
        <time>2014-09-28T08:53:08Z</time>
      </trkpt>
      <trkpt lat="43.83767" lon="3.47997">
        <ele>686</ele>
        <time>2014-09-28T08:53:17Z</time>
      </trkpt>
      <trkpt lat="43.8376" lon="3.47988">
        <ele>685</ele>
        <time>2014-09-28T08:53:26Z</time>
      </trkpt>
      <trkpt lat="43.83752" lon="3.47981">
        <ele>684</ele>
        <time>2014-09-28T08:53:36Z</time>
      </trkpt>
      <trkpt lat="43.83746" lon="3.47973">
        <ele>688</ele>
        <time>2014-09-28T08:53:43Z</time>
      </trkpt>
      <trkpt lat="43.83737" lon="3.47964">
        <ele>684</ele>
        <time>2014-09-28T08:53:55Z</time>
      </trkpt>
      <trkpt lat="43.83721" lon="3.47952">
        <ele>678</ele>
        <time>2014-09-28T08:54:14Z</time>
      </trkpt>
      <trkpt lat="43.83713" lon="3.47945">
        <ele>678</ele>
        <time>2014-09-28T08:54:24Z</time>
      </trkpt>
      <trkpt lat="43.83706" lon="3.47936">
        <ele>677</ele>
        <time>2014-09-28T08:54:33Z</time>
      </trkpt>
      <trkpt lat="43.83699" lon="3.4793">
        <ele>675</ele>
        <time>2014-09-28T08:54:40Z</time>
      </trkpt>
      <trkpt lat="43.83698" lon="3.47928">
        <ele>675</ele>
        <time>2014-09-28T08:54:41Z</time>
      </trkpt>
      <trkpt lat="43.8369" lon="3.47923">
        <ele>675</ele>
        <time>2014-09-28T08:54:50Z</time>
      </trkpt>
      <trkpt lat="43.83682" lon="3.47915">
        <ele>676</ele>
        <time>2014-09-28T08:55:00Z</time>
      </trkpt>
      <trkpt lat="43.83673" lon="3.47908">
        <ele>672</ele>
        <time>2014-09-28T08:55:11Z</time>
      </trkpt>
      <trkpt lat="43.83665" lon="3.47902">
        <ele>672</ele>
        <time>2014-09-28T08:55:19Z</time>
      </trkpt>
      <trkpt lat="43.83656" lon="3.47896">
        <ele>675</ele>
        <time>2014-09-28T08:55:28Z</time>
      </trkpt>
      <trkpt lat="43.83648" lon="3.47893">
        <ele>673</ele>
        <time>2014-09-28T08:55:37Z</time>
      </trkpt>
      <trkpt lat="43.83639" lon="3.47887">
        <ele>675</ele>
        <time>2014-09-28T08:55:45Z</time>
      </trkpt>
      <trkpt lat="43.83633" lon="3.47876">
        <ele>668</ele>
        <time>2014-09-28T08:55:55Z</time>
      </trkpt>
      <trkpt lat="43.83629" lon="3.47865">
        <ele>669</ele>
        <time>2014-09-28T08:56:02Z</time>
      </trkpt>
      <trkpt lat="43.83622" lon="3.47854">
        <ele>668</ele>
        <time>2014-09-28T08:56:11Z</time>
      </trkpt>
      <trkpt lat="43.83617" lon="3.47843">
        <ele>666</ele>
        <time>2014-09-28T08:56:19Z</time>
      </trkpt>
      <trkpt lat="43.83608" lon="3.47838">
        <ele>671</ele>
        <time>2014-09-28T08:56:29Z</time>
      </trkpt>
      <trkpt lat="43.83607" lon="3.47839">
        <ele>672</ele>
        <time>2014-09-28T08:56:30Z</time>
      </trkpt>
      <trkpt lat="43.83602" lon="3.47849">
        <ele>672</ele>
        <time>2014-09-28T08:56:38Z</time>
      </trkpt>
      <trkpt lat="43.83599" lon="3.4786">
        <ele>672</ele>
        <time>2014-09-28T08:56:45Z</time>
      </trkpt>
      <trkpt lat="43.83594" lon="3.47886">
        <ele>665</ele>
        <time>2014-09-28T08:57:01Z</time>
      </trkpt>
      <trkpt lat="43.83589" lon="3.479">
        <ele>672</ele>
        <time>2014-09-28T08:57:11Z</time>
      </trkpt>
      <trkpt lat="43.83585" lon="3.47911">
        <ele>671</ele>
        <time>2014-09-28T08:57:20Z</time>
      </trkpt>
      <trkpt lat="43.83581" lon="3.47922">
        <ele>672</ele>
        <time>2014-09-28T08:57:26Z</time>
      </trkpt>
      <trkpt lat="43.83571" lon="3.47945">
        <ele>669</ele>
        <time>2014-09-28T08:57:43Z</time>
      </trkpt>
      <trkpt lat="43.83567" lon="3.47958">
        <ele>673</ele>
        <time>2014-09-28T08:57:52Z</time>
      </trkpt>
      <trkpt lat="43.83562" lon="3.47969">
        <ele>670</ele>
        <time>2014-09-28T08:58:00Z</time>
      </trkpt>
      <trkpt lat="43.83555" lon="3.47978">
        <ele>666</ele>
        <time>2014-09-28T08:58:07Z</time>
      </trkpt>
      <trkpt lat="43.83549" lon="3.47989">
        <ele>667</ele>
        <time>2014-09-28T08:58:15Z</time>
      </trkpt>
      <trkpt lat="43.83542" lon="3.47999">
        <ele>664</ele>
        <time>2014-09-28T08:58:24Z</time>
      </trkpt>
      <trkpt lat="43.83535" lon="3.48008">
        <ele>663</ele>
        <time>2014-09-28T08:58:31Z</time>
      </trkpt>
      <trkpt lat="43.83526" lon="3.48014">
        <ele>666</ele>
        <time>2014-09-28T08:58:40Z</time>
      </trkpt>
      <trkpt lat="43.83511" lon="3.4803">
        <ele>666</ele>
        <time>2014-09-28T08:58:56Z</time>
      </trkpt>
      <trkpt lat="43.83501" lon="3.48036">
        <ele>665</ele>
        <time>2014-09-28T08:59:05Z</time>
      </trkpt>
      <trkpt lat="43.83496" lon="3.48046">
        <ele>666</ele>
        <time>2014-09-28T08:59:14Z</time>
      </trkpt>
      <trkpt lat="43.83496" lon="3.48047">
        <ele>667</ele>
        <time>2014-09-28T08:59:15Z</time>
      </trkpt>
      <trkpt lat="43.83492" lon="3.48058">
        <ele>667</ele>
        <time>2014-09-28T08:59:23Z</time>
      </trkpt>
      <trkpt lat="43.83485" lon="3.48066">
        <ele>668</ele>
        <time>2014-09-28T08:59:32Z</time>
      </trkpt>
      <trkpt lat="43.83479" lon="3.48077">
        <ele>664</ele>
        <time>2014-09-28T08:59:41Z</time>
      </trkpt>
      <trkpt lat="43.83472" lon="3.48086">
        <ele>662</ele>
        <time>2014-09-28T08:59:48Z</time>
      </trkpt>
      <trkpt lat="43.83465" lon="3.48091">
        <ele>662</ele>
        <time>2014-09-28T08:59:55Z</time>
      </trkpt>
      <trkpt lat="43.83455" lon="3.48095">
        <ele>660</ele>
        <time>2014-09-28T09:00:03Z</time>
      </trkpt>
      <trkpt lat="43.83446" lon="3.48098">
        <ele>662</ele>
        <time>2014-09-28T09:00:12Z</time>
      </trkpt>
      <trkpt lat="43.83436" lon="3.48099">
        <ele>660</ele>
        <time>2014-09-28T09:00:20Z</time>
      </trkpt>
      <trkpt lat="43.83427" lon="3.481">
        <ele>663</ele>
        <time>2014-09-28T09:00:28Z</time>
      </trkpt>
      <trkpt lat="43.83418" lon="3.48101">
        <ele>666</ele>
        <time>2014-09-28T09:00:38Z</time>
      </trkpt>
      <trkpt lat="43.83408" lon="3.48105">
        <ele>663</ele>
        <time>2014-09-28T09:00:47Z</time>
      </trkpt>
      <trkpt lat="43.83407" lon="3.48105">
        <ele>664</ele>
        <time>2014-09-28T09:00:48Z</time>
      </trkpt>
      <trkpt lat="43.83399" lon="3.4811">
        <ele>667</ele>
        <time>2014-09-28T09:00:58Z</time>
      </trkpt>
      <trkpt lat="43.83391" lon="3.48109">
        <ele>662</ele>
        <time>2014-09-28T09:01:05Z</time>
      </trkpt>
      <trkpt lat="43.83381" lon="3.48111">
        <ele>666</ele>
        <time>2014-09-28T09:01:12Z</time>
      </trkpt>
      <trkpt lat="43.83371" lon="3.48114">
        <ele>662</ele>
        <time>2014-09-28T09:01:21Z</time>
      </trkpt>
      <trkpt lat="43.83362" lon="3.48113">
        <ele>665</ele>
        <time>2014-09-28T09:01:28Z</time>
      </trkpt>
      <trkpt lat="43.83342" lon="3.48115">
        <ele>660</ele>
        <time>2014-09-28T09:01:48Z</time>
      </trkpt>
      <trkpt lat="43.83334" lon="3.48114">
        <ele>658</ele>
        <time>2014-09-28T09:01:58Z</time>
      </trkpt>
      <trkpt lat="43.83324" lon="3.48118">
        <ele>662</ele>
        <time>2014-09-28T09:02:05Z</time>
      </trkpt>
      <trkpt lat="43.83313" lon="3.48121">
        <ele>663</ele>
        <time>2014-09-28T09:02:14Z</time>
      </trkpt>
      <trkpt lat="43.83306" lon="3.48123">
        <ele>664</ele>
        <time>2014-09-28T09:02:21Z</time>
      </trkpt>
      <trkpt lat="43.83297" lon="3.48128">
        <ele>660</ele>
        <time>2014-09-28T09:02:28Z</time>
      </trkpt>
      <trkpt lat="43.83288" lon="3.48128">
        <ele>652</ele>
        <time>2014-09-28T09:02:36Z</time>
      </trkpt>
      <trkpt lat="43.83278" lon="3.48125">
        <ele>657</ele>
        <time>2014-09-28T09:02:46Z</time>
      </trkpt>
      <trkpt lat="43.83269" lon="3.48122">
        <ele>655</ele>
        <time>2014-09-28T09:02:55Z</time>
      </trkpt>
      <trkpt lat="43.83268" lon="3.48122">
        <ele>654</ele>
        <time>2014-09-28T09:02:56Z</time>
      </trkpt>
      <trkpt lat="43.83259" lon="3.4812">
        <ele>658</ele>
        <time>2014-09-28T09:03:05Z</time>
      </trkpt>
      <trkpt lat="43.83258" lon="3.4812">
        <ele>656</ele>
        <time>2014-09-28T09:03:06Z</time>
      </trkpt>
      <trkpt lat="43.83248" lon="3.4812">
        <ele>667</ele>
        <time>2014-09-28T09:03:15Z</time>
      </trkpt>
      <trkpt lat="43.8324" lon="3.48127">
        <ele>664</ele>
        <time>2014-09-28T09:03:24Z</time>
      </trkpt>
      <trkpt lat="43.83232" lon="3.48131">
        <ele>661</ele>
        <time>2014-09-28T09:03:32Z</time>
      </trkpt>
      <trkpt lat="43.8323" lon="3.48131">
        <ele>659</ele>
        <time>2014-09-28T09:03:33Z</time>
      </trkpt>
      <trkpt lat="43.83221" lon="3.48128">
        <ele>658</ele>
        <time>2014-09-28T09:03:40Z</time>
      </trkpt>
      <trkpt lat="43.83213" lon="3.48126">
        <ele>666</ele>
        <time>2014-09-28T09:03:47Z</time>
      </trkpt>
      <trkpt lat="43.83204" lon="3.48121">
        <ele>661</ele>
        <time>2014-09-28T09:03:56Z</time>
      </trkpt>
      <trkpt lat="43.83195" lon="3.48118">
        <ele>664</ele>
        <time>2014-09-28T09:04:04Z</time>
      </trkpt>
      <trkpt lat="43.83185" lon="3.48114">
        <ele>659</ele>
        <time>2014-09-28T09:04:13Z</time>
      </trkpt>
      <trkpt lat="43.83178" lon="3.48103">
        <ele>657</ele>
        <time>2014-09-28T09:04:22Z</time>
      </trkpt>
      <trkpt lat="43.83173" lon="3.48093">
        <ele>658</ele>
        <time>2014-09-28T09:04:30Z</time>
      </trkpt>
      <trkpt lat="43.83167" lon="3.48084">
        <ele>656</ele>
        <time>2014-09-28T09:04:38Z</time>
      </trkpt>
      <trkpt lat="43.8316" lon="3.48076">
        <ele>661</ele>
        <time>2014-09-28T09:04:47Z</time>
      </trkpt>
      <trkpt lat="43.83159" lon="3.48075">
        <ele>660</ele>
        <time>2014-09-28T09:04:48Z</time>
      </trkpt>
      <trkpt lat="43.83154" lon="3.48063">
        <ele>661</ele>
        <time>2014-09-28T09:04:55Z</time>
      </trkpt>
      <trkpt lat="43.83154" lon="3.48051">
        <ele>656</ele>
        <time>2014-09-28T09:05:01Z</time>
      </trkpt>
      <trkpt lat="43.83154" lon="3.4805">
        <ele>654</ele>
        <time>2014-09-28T09:05:02Z</time>
      </trkpt>
      <trkpt lat="43.8315" lon="3.48038">
        <ele>659</ele>
        <time>2014-09-28T09:05:12Z</time>
      </trkpt>
      <trkpt lat="43.83151" lon="3.48025">
        <ele>662</ele>
        <time>2014-09-28T09:05:20Z</time>
      </trkpt>
      <trkpt lat="43.83153" lon="3.48012">
        <ele>665</ele>
        <time>2014-09-28T09:05:27Z</time>
      </trkpt>
      <trkpt lat="43.83152" lon="3.47997">
        <ele>657</ele>
        <time>2014-09-28T09:05:37Z</time>
      </trkpt>
      <trkpt lat="43.83152" lon="3.47985">
        <ele>658</ele>
        <time>2014-09-28T09:05:45Z</time>
      </trkpt>
      <trkpt lat="43.83152" lon="3.47984">
        <ele>660</ele>
        <time>2014-09-28T09:05:46Z</time>
      </trkpt>
      <trkpt lat="43.83153" lon="3.47972">
        <ele>662</ele>
        <time>2014-09-28T09:05:55Z</time>
      </trkpt>
      <trkpt lat="43.8315" lon="3.4796">
        <ele>662</ele>
        <time>2014-09-28T09:06:05Z</time>
      </trkpt>
      <trkpt lat="43.83149" lon="3.47959">
        <ele>659</ele>
        <time>2014-09-28T09:06:06Z</time>
      </trkpt>
      <trkpt lat="43.83135" lon="3.47946">
        <ele>658</ele>
        <time>2014-09-28T09:06:22Z</time>
      </trkpt>
      <trkpt lat="43.83134" lon="3.47945">
        <ele>658</ele>
        <time>2014-09-28T09:06:23Z</time>
      </trkpt>
      <trkpt lat="43.83129" lon="3.47936">
        <ele>656</ele>
        <time>2014-09-28T09:06:31Z</time>
      </trkpt>
      <trkpt lat="43.83129" lon="3.47935">
        <ele>657</ele>
        <time>2014-09-28T09:06:32Z</time>
      </trkpt>
      <trkpt lat="43.83123" lon="3.47928">
        <ele>657</ele>
        <time>2014-09-28T09:06:42Z</time>
      </trkpt>
      <trkpt lat="43.83113" lon="3.47925">
        <ele>657</ele>
        <time>2014-09-28T09:06:54Z</time>
      </trkpt>
      <trkpt lat="43.83105" lon="3.4792">
        <ele>655</ele>
        <time>2014-09-28T09:07:05Z</time>
      </trkpt>
      <trkpt lat="43.83097" lon="3.47915">
        <ele>656</ele>
        <time>2014-09-28T09:07:14Z</time>
      </trkpt>
      <trkpt lat="43.83086" lon="3.47914">
        <ele>654</ele>
        <time>2014-09-28T09:07:26Z</time>
      </trkpt>
      <trkpt lat="43.83078" lon="3.47912">
        <ele>652</ele>
        <time>2014-09-28T09:07:36Z</time>
      </trkpt>
      <trkpt lat="43.83068" lon="3.47906">
        <ele>655</ele>
        <time>2014-09-28T09:07:46Z</time>
      </trkpt>
      <trkpt lat="43.8306" lon="3.47903">
        <ele>653</ele>
        <time>2014-09-28T09:07:56Z</time>
      </trkpt>
      <trkpt lat="43.83058" lon="3.47904">
        <ele>653</ele>
        <time>2014-09-28T09:07:57Z</time>
      </trkpt>
      <trkpt lat="43.8305" lon="3.47902">
        <ele>651</ele>
        <time>2014-09-28T09:08:04Z</time>
      </trkpt>
      <trkpt lat="43.83041" lon="3.47897">
        <ele>645</ele>
        <time>2014-09-28T09:08:13Z</time>
      </trkpt>
      <trkpt lat="43.83021" lon="3.47891">
        <ele>635</ele>
        <time>2014-09-28T09:08:31Z</time>
      </trkpt>
      <trkpt lat="43.83003" lon="3.47886">
        <ele>639</ele>
        <time>2014-09-28T09:08:46Z</time>
      </trkpt>
      <trkpt lat="43.82992" lon="3.47881">
        <ele>635</ele>
        <time>2014-09-28T09:08:58Z</time>
      </trkpt>
      <trkpt lat="43.82983" lon="3.4788">
        <ele>641</ele>
        <time>2014-09-28T09:09:05Z</time>
      </trkpt>
      <trkpt lat="43.82975" lon="3.47878">
        <ele>638</ele>
        <time>2014-09-28T09:09:13Z</time>
      </trkpt>
      <trkpt lat="43.82965" lon="3.47879">
        <ele>638</ele>
        <time>2014-09-28T09:09:21Z</time>
      </trkpt>
      <trkpt lat="43.82957" lon="3.47883">
        <ele>635</ele>
        <time>2014-09-28T09:09:30Z</time>
      </trkpt>
      <trkpt lat="43.82955" lon="3.47885">
        <ele>633</ele>
        <time>2014-09-28T09:09:31Z</time>
      </trkpt>
      <trkpt lat="43.82946" lon="3.47889">
        <ele>634</ele>
        <time>2014-09-28T09:09:39Z</time>
      </trkpt>
      <trkpt lat="43.82937" lon="3.47892">
        <ele>630</ele>
        <time>2014-09-28T09:09:47Z</time>
      </trkpt>
      <trkpt lat="43.82929" lon="3.4789">
        <ele>626</ele>
        <time>2014-09-28T09:09:54Z</time>
      </trkpt>
      <trkpt lat="43.82921" lon="3.47882">
        <ele>629</ele>
        <time>2014-09-28T09:10:05Z</time>
      </trkpt>
      <trkpt lat="43.82912" lon="3.47881">
        <ele>624</ele>
        <time>2014-09-28T09:10:15Z</time>
      </trkpt>
      <trkpt lat="43.82911" lon="3.47882">
        <ele>623</ele>
        <time>2014-09-28T09:10:16Z</time>
      </trkpt>
      <trkpt lat="43.82902" lon="3.47881">
        <ele>624</ele>
        <time>2014-09-28T09:10:24Z</time>
      </trkpt>
      <trkpt lat="43.82892" lon="3.47876">
        <ele>632</ele>
        <time>2014-09-28T09:10:34Z</time>
      </trkpt>
      <trkpt lat="43.82874" lon="3.47867">
        <ele>625</ele>
        <time>2014-09-28T09:10:49Z</time>
      </trkpt>
      <trkpt lat="43.82864" lon="3.47861">
        <ele>627</ele>
        <time>2014-09-28T09:10:57Z</time>
      </trkpt>
      <trkpt lat="43.82857" lon="3.47857">
        <ele>628</ele>
        <time>2014-09-28T09:11:03Z</time>
      </trkpt>
      <trkpt lat="43.82847" lon="3.47856">
        <ele>623</ele>
        <time>2014-09-28T09:11:10Z</time>
      </trkpt>
      <trkpt lat="43.82838" lon="3.47856">
        <ele>628</ele>
        <time>2014-09-28T09:11:17Z</time>
      </trkpt>
      <trkpt lat="43.82811" lon="3.47851">
        <ele>626</ele>
        <time>2014-09-28T09:11:44Z</time>
      </trkpt>
      <trkpt lat="43.82801" lon="3.47852">
        <ele>625</ele>
        <time>2014-09-28T09:11:56Z</time>
      </trkpt>
      <trkpt lat="43.82792" lon="3.47851">
        <ele>621</ele>
        <time>2014-09-28T09:12:12Z</time>
      </trkpt>
      <trkpt lat="43.8279" lon="3.47851">
        <ele>623</ele>
        <time>2014-09-28T09:12:15Z</time>
      </trkpt>
      <trkpt lat="43.82783" lon="3.47845">
        <ele>623</ele>
        <time>2014-09-28T09:12:29Z</time>
      </trkpt>
      <trkpt lat="43.82773" lon="3.47841">
        <ele>624</ele>
        <time>2014-09-28T09:12:41Z</time>
      </trkpt>
      <trkpt lat="43.82764" lon="3.47838">
        <ele>624</ele>
        <time>2014-09-28T09:12:53Z</time>
      </trkpt>
      <trkpt lat="43.82754" lon="3.47839">
        <ele>626</ele>
        <time>2014-09-28T09:13:02Z</time>
      </trkpt>
      <trkpt lat="43.82745" lon="3.47837">
        <ele>626</ele>
        <time>2014-09-28T09:13:11Z</time>
      </trkpt>
      <trkpt lat="43.82737" lon="3.47834">
        <ele>629</ele>
        <time>2014-09-28T09:13:18Z</time>
      </trkpt>
      <trkpt lat="43.82736" lon="3.47833">
        <ele>628</ele>
        <time>2014-09-28T09:13:19Z</time>
      </trkpt>
      <trkpt lat="43.82727" lon="3.47831">
        <ele>628</ele>
        <time>2014-09-28T09:13:27Z</time>
      </trkpt>
      <trkpt lat="43.82717" lon="3.47829">
        <ele>626</ele>
        <time>2014-09-28T09:13:36Z</time>
      </trkpt>
      <trkpt lat="43.82708" lon="3.47825">
        <ele>629</ele>
        <time>2014-09-28T09:13:44Z</time>
      </trkpt>
      <trkpt lat="43.827" lon="3.47822">
        <ele>626</ele>
        <time>2014-09-28T09:13:52Z</time>
      </trkpt>
      <trkpt lat="43.8269" lon="3.4782">
        <ele>631</ele>
        <time>2014-09-28T09:14:02Z</time>
      </trkpt>
      <trkpt lat="43.82681" lon="3.47818">
        <ele>628</ele>
        <time>2014-09-28T09:14:10Z</time>
      </trkpt>
      <trkpt lat="43.82671" lon="3.47813">
        <ele>627</ele>
        <time>2014-09-28T09:14:20Z</time>
      </trkpt>
      <trkpt lat="43.82651" lon="3.4781">
        <ele>632</ele>
        <time>2014-09-28T09:14:37Z</time>
      </trkpt>
      <trkpt lat="43.82634" lon="3.47801">
        <ele>632</ele>
        <time>2014-09-28T09:14:52Z</time>
      </trkpt>
      <trkpt lat="43.82634" lon="3.47801">
        <ele>631</ele>
        <time>2014-09-28T09:14:53Z</time>
      </trkpt>
      <trkpt lat="43.82625" lon="3.47798">
        <ele>624</ele>
        <time>2014-09-28T09:15:02Z</time>
      </trkpt>
      <trkpt lat="43.82617" lon="3.47799">
        <ele>628</ele>
        <time>2014-09-28T09:15:10Z</time>
      </trkpt>
      <trkpt lat="43.82607" lon="3.47798">
        <ele>630</ele>
        <time>2014-09-28T09:15:19Z</time>
      </trkpt>
      <trkpt lat="43.82605" lon="3.47796">
        <ele>632</ele>
        <time>2014-09-28T09:15:22Z</time>
      </trkpt>
      <trkpt lat="43.8259" lon="3.47794">
        <ele>640</ele>
        <time>2014-09-28T09:15:34Z</time>
      </trkpt>
      <trkpt lat="43.8258" lon="3.47796">
        <ele>644</ele>
        <time>2014-09-28T09:15:43Z</time>
      </trkpt>
      <trkpt lat="43.82571" lon="3.47795">
        <ele>642</ele>
        <time>2014-09-28T09:15:50Z</time>
      </trkpt>
      <trkpt lat="43.82561" lon="3.47797">
        <ele>642</ele>
        <time>2014-09-28T09:15:59Z</time>
      </trkpt>
      <trkpt lat="43.8255" lon="3.47799">
        <ele>636</ele>
        <time>2014-09-28T09:16:08Z</time>
      </trkpt>
      <trkpt lat="43.82542" lon="3.47802">
        <ele>639</ele>
        <time>2014-09-28T09:16:14Z</time>
      </trkpt>
      <trkpt lat="43.82532" lon="3.47804">
        <ele>642</ele>
        <time>2014-09-28T09:16:23Z</time>
      </trkpt>
      <trkpt lat="43.82523" lon="3.47804">
        <ele>644</ele>
        <time>2014-09-28T09:16:31Z</time>
      </trkpt>
      <trkpt lat="43.82512" lon="3.47802">
        <ele>633</ele>
        <time>2014-09-28T09:16:40Z</time>
      </trkpt>
      <trkpt lat="43.82503" lon="3.47802">
        <ele>632</ele>
        <time>2014-09-28T09:16:47Z</time>
      </trkpt>
      <trkpt lat="43.82484" lon="3.47806">
        <ele>630</ele>
        <time>2014-09-28T09:17:05Z</time>
      </trkpt>
      <trkpt lat="43.82474" lon="3.47807">
        <ele>625</ele>
        <time>2014-09-28T09:17:13Z</time>
      </trkpt>
      <trkpt lat="43.82455" lon="3.47806">
        <ele>628</ele>
        <time>2014-09-28T09:17:28Z</time>
      </trkpt>
      <trkpt lat="43.82446" lon="3.47808">
        <ele>625</ele>
        <time>2014-09-28T09:17:39Z</time>
      </trkpt>
      <trkpt lat="43.82437" lon="3.47805">
        <ele>623</ele>
        <time>2014-09-28T09:17:46Z</time>
      </trkpt>
      <trkpt lat="43.82426" lon="3.47803">
        <ele>621</ele>
        <time>2014-09-28T09:17:55Z</time>
      </trkpt>
      <trkpt lat="43.82418" lon="3.47798">
        <ele>620</ele>
        <time>2014-09-28T09:18:03Z</time>
      </trkpt>
      <trkpt lat="43.82408" lon="3.4779">
        <ele>627</ele>
        <time>2014-09-28T09:18:15Z</time>
      </trkpt>
      <trkpt lat="43.82401" lon="3.47786">
        <ele>625</ele>
        <time>2014-09-28T09:18:23Z</time>
      </trkpt>
      <trkpt lat="43.82384" lon="3.47772">
        <ele>625</ele>
        <time>2014-09-28T09:18:41Z</time>
      </trkpt>
      <trkpt lat="43.82366" lon="3.4776">
        <ele>628</ele>
        <time>2014-09-28T09:18:57Z</time>
      </trkpt>
      <trkpt lat="43.82347" lon="3.47753">
        <ele>625</ele>
        <time>2014-09-28T09:19:16Z</time>
      </trkpt>
      <trkpt lat="43.82337" lon="3.47752">
        <ele>628</ele>
        <time>2014-09-28T09:19:24Z</time>
      </trkpt>
      <trkpt lat="43.82328" lon="3.47751">
        <ele>626</ele>
        <time>2014-09-28T09:19:34Z</time>
      </trkpt>
      <trkpt lat="43.82309" lon="3.47749">
        <ele>636</ele>
        <time>2014-09-28T09:19:51Z</time>
      </trkpt>
      <trkpt lat="43.82307" lon="3.47748">
        <ele>637</ele>
        <time>2014-09-28T09:19:52Z</time>
      </trkpt>
      <trkpt lat="43.82298" lon="3.47746">
        <ele>621</ele>
        <time>2014-09-28T09:19:59Z</time>
      </trkpt>
      <trkpt lat="43.8229" lon="3.47742">
        <ele>623</ele>
        <time>2014-09-28T09:20:06Z</time>
      </trkpt>
      <trkpt lat="43.82281" lon="3.47736">
        <ele>630</ele>
        <time>2014-09-28T09:20:15Z</time>
      </trkpt>
      <trkpt lat="43.82271" lon="3.47732">
        <ele>627</ele>
        <time>2014-09-28T09:20:25Z</time>
      </trkpt>
      <trkpt lat="43.82253" lon="3.47722">
        <ele>624</ele>
        <time>2014-09-28T09:20:41Z</time>
      </trkpt>
      <trkpt lat="43.82244" lon="3.47715">
        <ele>623</ele>
        <time>2014-09-28T09:20:49Z</time>
      </trkpt>
      <trkpt lat="43.82237" lon="3.47706">
        <ele>627</ele>
        <time>2014-09-28T09:20:57Z</time>
      </trkpt>
      <trkpt lat="43.82229" lon="3.47702">
        <ele>626</ele>
        <time>2014-09-28T09:21:04Z</time>
      </trkpt>
      <trkpt lat="43.8222" lon="3.47695">
        <ele>631</ele>
        <time>2014-09-28T09:21:13Z</time>
      </trkpt>
      <trkpt lat="43.82202" lon="3.47686">
        <ele>629</ele>
        <time>2014-09-28T09:21:29Z</time>
      </trkpt>
      <trkpt lat="43.82193" lon="3.47679">
        <ele>630</ele>
        <time>2014-09-28T09:21:37Z</time>
      </trkpt>
      <trkpt lat="43.82175" lon="3.47666">
        <ele>632</ele>
        <time>2014-09-28T09:21:56Z</time>
      </trkpt>
      <trkpt lat="43.82173" lon="3.47666">
        <ele>633</ele>
        <time>2014-09-28T09:21:57Z</time>
      </trkpt>
      <trkpt lat="43.82166" lon="3.4766">
        <ele>632</ele>
        <time>2014-09-28T09:22:03Z</time>
      </trkpt>
      <trkpt lat="43.82153" lon="3.4764">
        <ele>623</ele>
        <time>2014-09-28T09:22:20Z</time>
      </trkpt>
      <trkpt lat="43.82146" lon="3.47634">
        <ele>626</ele>
        <time>2014-09-28T09:23:17Z</time>
      </trkpt>
      <trkpt lat="43.82144" lon="3.47621">
        <ele>630</ele>
        <time>2014-09-28T09:23:29Z</time>
      </trkpt>
      <trkpt lat="43.82139" lon="3.4761">
        <ele>624</ele>
        <time>2014-09-28T09:23:36Z</time>
      </trkpt>
      <trkpt lat="43.82133" lon="3.47601">
        <ele>621</ele>
        <time>2014-09-28T09:23:43Z</time>
      </trkpt>
      <trkpt lat="43.82124" lon="3.47598">
        <ele>625</ele>
        <time>2014-09-28T09:23:51Z</time>
      </trkpt>
      <trkpt lat="43.82114" lon="3.47597">
        <ele>627</ele>
        <time>2014-09-28T09:23:59Z</time>
      </trkpt>
      <trkpt lat="43.82104" lon="3.47595">
        <ele>625</ele>
        <time>2014-09-28T09:24:07Z</time>
      </trkpt>
      <trkpt lat="43.82096" lon="3.47589">
        <ele>628</ele>
        <time>2014-09-28T09:24:15Z</time>
      </trkpt>
      <trkpt lat="43.82095" lon="3.47587">
        <ele>630</ele>
        <time>2014-09-28T09:24:16Z</time>
      </trkpt>
      <trkpt lat="43.82087" lon="3.47584">
        <ele>630</ele>
        <time>2014-09-28T09:24:24Z</time>
      </trkpt>
      <trkpt lat="43.82077" lon="3.47584">
        <ele>626</ele>
        <time>2014-09-28T09:24:31Z</time>
      </trkpt>
      <trkpt lat="43.82076" lon="3.47585">
        <ele>628</ele>
        <time>2014-09-28T09:24:32Z</time>
      </trkpt>
      <trkpt lat="43.82067" lon="3.47586">
        <ele>627</ele>
        <time>2014-09-28T09:24:40Z</time>
      </trkpt>
      <trkpt lat="43.82066" lon="3.47585">
        <ele>628</ele>
        <time>2014-09-28T09:24:41Z</time>
      </trkpt>
      <trkpt lat="43.82056" lon="3.47583">
        <ele>629</ele>
        <time>2014-09-28T09:24:49Z</time>
      </trkpt>
      <trkpt lat="43.82048" lon="3.47584">
        <ele>627</ele>
        <time>2014-09-28T09:24:54Z</time>
      </trkpt>
      <trkpt lat="43.82038" lon="3.47583">
        <ele>631</ele>
        <time>2014-09-28T09:25:01Z</time>
      </trkpt>
      <trkpt lat="43.82019" lon="3.47585">
        <ele>621</ele>
        <time>2014-09-28T09:25:14Z</time>
      </trkpt>
      <trkpt lat="43.82" lon="3.47586">
        <ele>621</ele>
        <time>2014-09-28T09:25:29Z</time>
      </trkpt>
      <trkpt lat="43.81988" lon="3.47586">
        <ele>619</ele>
        <time>2014-09-28T09:25:38Z</time>
      </trkpt>
      <trkpt lat="43.8198" lon="3.47584">
        <ele>618</ele>
        <time>2014-09-28T09:25:45Z</time>
      </trkpt>
      <trkpt lat="43.81971" lon="3.47584">
        <ele>621</ele>
        <time>2014-09-28T09:25:53Z</time>
      </trkpt>
      <trkpt lat="43.81959" lon="3.47584">
        <ele>614</ele>
        <time>2014-09-28T09:26:03Z</time>
      </trkpt>
      <trkpt lat="43.81951" lon="3.47583">
        <ele>615</ele>
        <time>2014-09-28T09:26:09Z</time>
      </trkpt>
      <trkpt lat="43.8194" lon="3.47578">
        <ele>621</ele>
        <time>2014-09-28T09:26:17Z</time>
      </trkpt>
      <trkpt lat="43.81932" lon="3.4757">
        <ele>625</ele>
        <time>2014-09-28T09:26:26Z</time>
      </trkpt>
      <trkpt lat="43.81924" lon="3.47563">
        <ele>625</ele>
        <time>2014-09-28T09:26:34Z</time>
      </trkpt>
      <trkpt lat="43.81917" lon="3.47558">
        <ele>623</ele>
        <time>2014-09-28T09:26:40Z</time>
      </trkpt>
      <trkpt lat="43.81908" lon="3.47553">
        <ele>624</ele>
        <time>2014-09-28T09:26:47Z</time>
      </trkpt>
      <trkpt lat="43.81897" lon="3.47547">
        <ele>621</ele>
        <time>2014-09-28T09:26:56Z</time>
      </trkpt>
      <trkpt lat="43.81889" lon="3.47544">
        <ele>623</ele>
        <time>2014-09-28T09:27:03Z</time>
      </trkpt>
      <trkpt lat="43.81879" lon="3.47539">
        <ele>622</ele>
        <time>2014-09-28T09:27:11Z</time>
      </trkpt>
      <trkpt lat="43.81862" lon="3.47529">
        <ele>625</ele>
        <time>2014-09-28T09:27:25Z</time>
      </trkpt>
      <trkpt lat="43.81852" lon="3.47525">
        <ele>623</ele>
        <time>2014-09-28T09:27:34Z</time>
      </trkpt>
      <trkpt lat="43.81844" lon="3.47521">
        <ele>622</ele>
        <time>2014-09-28T09:27:40Z</time>
      </trkpt>
      <trkpt lat="43.81833" lon="3.47517">
        <ele>622</ele>
        <time>2014-09-28T09:27:50Z</time>
      </trkpt>
      <trkpt lat="43.81824" lon="3.47511">
        <ele>619</ele>
        <time>2014-09-28T09:27:56Z</time>
      </trkpt>
      <trkpt lat="43.81791" lon="3.47487">
        <ele>624</ele>
        <time>2014-09-28T09:28:25Z</time>
      </trkpt>
      <trkpt lat="43.81783" lon="3.47482">
        <ele>626</ele>
        <time>2014-09-28T09:28:32Z</time>
      </trkpt>
      <trkpt lat="43.81759" lon="3.47461">
        <ele>622</ele>
        <time>2014-09-28T09:28:54Z</time>
      </trkpt>
      <trkpt lat="43.81742" lon="3.4745">
        <ele>624</ele>
        <time>2014-09-28T09:29:10Z</time>
      </trkpt>
      <trkpt lat="43.81725" lon="3.47436">
        <ele>625</ele>
        <time>2014-09-28T09:29:25Z</time>
      </trkpt>
      <trkpt lat="43.81701" lon="3.47414">
        <ele>618</ele>
        <time>2014-09-28T09:29:47Z</time>
      </trkpt>
      <trkpt lat="43.81691" lon="3.47407">
        <ele>621</ele>
        <time>2014-09-28T09:29:55Z</time>
      </trkpt>
      <trkpt lat="43.81682" lon="3.47402">
        <ele>622</ele>
        <time>2014-09-28T09:30:02Z</time>
      </trkpt>
      <trkpt lat="43.81664" lon="3.47398">
        <ele>624</ele>
        <time>2014-09-28T09:30:17Z</time>
      </trkpt>
      <trkpt lat="43.81656" lon="3.47398">
        <ele>625</ele>
        <time>2014-09-28T09:30:23Z</time>
      </trkpt>
      <trkpt lat="43.81645" lon="3.47398">
        <ele>622</ele>
        <time>2014-09-28T09:30:32Z</time>
      </trkpt>
      <trkpt lat="43.81635" lon="3.47399">
        <ele>623</ele>
        <time>2014-09-28T09:30:40Z</time>
      </trkpt>
      <trkpt lat="43.81626" lon="3.47399">
        <ele>623</ele>
        <time>2014-09-28T09:30:47Z</time>
      </trkpt>
      <trkpt lat="43.81618" lon="3.47399">
        <ele>622</ele>
        <time>2014-09-28T09:30:53Z</time>
      </trkpt>
      <trkpt lat="43.81617" lon="3.47399">
        <ele>624</ele>
        <time>2014-09-28T09:30:54Z</time>
      </trkpt>
      <trkpt lat="43.81598" lon="3.47396">
        <ele>628</ele>
        <time>2014-09-28T09:31:08Z</time>
      </trkpt>
      <trkpt lat="43.81587" lon="3.47397">
        <ele>626</ele>
        <time>2014-09-28T09:31:15Z</time>
      </trkpt>
      <trkpt lat="43.81578" lon="3.47397">
        <ele>626</ele>
        <time>2014-09-28T09:31:22Z</time>
      </trkpt>
      <trkpt lat="43.81568" lon="3.47392">
        <ele>619</ele>
        <time>2014-09-28T09:31:30Z</time>
      </trkpt>
      <trkpt lat="43.81561" lon="3.47386">
        <ele>620</ele>
        <time>2014-09-28T09:31:36Z</time>
      </trkpt>
      <trkpt lat="43.81553" lon="3.47377">
        <ele>626</ele>
        <time>2014-09-28T09:31:44Z</time>
      </trkpt>
      <trkpt lat="43.81544" lon="3.47371">
        <ele>624</ele>
        <time>2014-09-28T09:31:53Z</time>
      </trkpt>
      <trkpt lat="43.81535" lon="3.47364">
        <ele>627</ele>
        <time>2014-09-28T09:32:02Z</time>
      </trkpt>
      <trkpt lat="43.81526" lon="3.47364">
        <ele>626</ele>
        <time>2014-09-28T09:32:08Z</time>
      </trkpt>
      <trkpt lat="43.81516" lon="3.47369">
        <ele>628</ele>
        <time>2014-09-28T09:32:17Z</time>
      </trkpt>
      <trkpt lat="43.81507" lon="3.47375">
        <ele>625</ele>
        <time>2014-09-28T09:32:25Z</time>
      </trkpt>
      <trkpt lat="43.81491" lon="3.47388">
        <ele>627</ele>
        <time>2014-09-28T09:32:39Z</time>
      </trkpt>
      <trkpt lat="43.81482" lon="3.47392">
        <ele>622</ele>
        <time>2014-09-28T09:32:47Z</time>
      </trkpt>
      <trkpt lat="43.81474" lon="3.47396">
        <ele>622</ele>
        <time>2014-09-28T09:32:56Z</time>
      </trkpt>
      <trkpt lat="43.81467" lon="3.47402">
        <ele>624</ele>
        <time>2014-09-28T09:33:03Z</time>
      </trkpt>
      <trkpt lat="43.81446" lon="3.47412">
        <ele>618</ele>
        <time>2014-09-28T09:33:19Z</time>
      </trkpt>
      <trkpt lat="43.81436" lon="3.47415">
        <ele>616</ele>
        <time>2014-09-28T09:33:26Z</time>
      </trkpt>
      <trkpt lat="43.81427" lon="3.47414">
        <ele>615</ele>
        <time>2014-09-28T09:33:34Z</time>
      </trkpt>
      <trkpt lat="43.81409" lon="3.47407">
        <ele>627</ele>
        <time>2014-09-28T09:33:52Z</time>
      </trkpt>
      <trkpt lat="43.81408" lon="3.47406">
        <ele>627</ele>
        <time>2014-09-28T09:33:53Z</time>
      </trkpt>
      <trkpt lat="43.814" lon="3.47402">
        <ele>627</ele>
        <time>2014-09-28T09:34:01Z</time>
      </trkpt>
      <trkpt lat="43.8139" lon="3.47399">
        <ele>622</ele>
        <time>2014-09-28T09:34:07Z</time>
      </trkpt>
      <trkpt lat="43.8138" lon="3.47395">
        <ele>622</ele>
        <time>2014-09-28T09:34:15Z</time>
      </trkpt>
      <trkpt lat="43.81371" lon="3.47392">
        <ele>625</ele>
        <time>2014-09-28T09:34:23Z</time>
      </trkpt>
      <trkpt lat="43.81354" lon="3.47384">
        <ele>629</ele>
        <time>2014-09-28T09:34:46Z</time>
      </trkpt>
      <trkpt lat="43.81345" lon="3.47379">
        <ele>629</ele>
        <time>2014-09-28T09:34:58Z</time>
      </trkpt>
      <trkpt lat="43.81325" lon="3.47371">
        <ele>631</ele>
        <time>2014-09-28T09:35:15Z</time>
      </trkpt>
      <trkpt lat="43.81307" lon="3.47365">
        <ele>636</ele>
        <time>2014-09-28T09:35:29Z</time>
      </trkpt>
      <trkpt lat="43.81297" lon="3.47361">
        <ele>634</ele>
        <time>2014-09-28T09:35:36Z</time>
      </trkpt>
      <trkpt lat="43.81287" lon="3.47359">
        <ele>627</ele>
        <time>2014-09-28T09:35:43Z</time>
      </trkpt>
      <trkpt lat="43.81277" lon="3.47357">
        <ele>626</ele>
        <time>2014-09-28T09:35:51Z</time>
      </trkpt>
      <trkpt lat="43.81268" lon="3.47353">
        <ele>630</ele>
        <time>2014-09-28T09:35:59Z</time>
      </trkpt>
      <trkpt lat="43.81259" lon="3.47349">
        <ele>627</ele>
        <time>2014-09-28T09:36:08Z</time>
      </trkpt>
      <trkpt lat="43.81251" lon="3.47344">
        <ele>627</ele>
        <time>2014-09-28T09:36:14Z</time>
      </trkpt>
      <trkpt lat="43.81232" lon="3.47335">
        <ele>625</ele>
        <time>2014-09-28T09:36:29Z</time>
      </trkpt>
      <trkpt lat="43.81222" lon="3.47331">
        <ele>625</ele>
        <time>2014-09-28T09:36:38Z</time>
      </trkpt>
      <trkpt lat="43.81214" lon="3.47326">
        <ele>627</ele>
        <time>2014-09-28T09:36:46Z</time>
      </trkpt>
      <trkpt lat="43.81198" lon="3.47315">
        <ele>624</ele>
        <time>2014-09-28T09:37:00Z</time>
      </trkpt>
      <trkpt lat="43.81188" lon="3.4731">
        <ele>628</ele>
        <time>2014-09-28T09:37:08Z</time>
      </trkpt>
      <trkpt lat="43.81179" lon="3.47305">
        <ele>627</ele>
        <time>2014-09-28T09:37:15Z</time>
      </trkpt>
      <trkpt lat="43.81172" lon="3.47299">
        <ele>628</ele>
        <time>2014-09-28T09:37:22Z</time>
      </trkpt>
      <trkpt lat="43.81162" lon="3.47295">
        <ele>629</ele>
        <time>2014-09-28T09:37:31Z</time>
      </trkpt>
      <trkpt lat="43.81144" lon="3.47284">
        <ele>629</ele>
        <time>2014-09-28T09:37:47Z</time>
      </trkpt>
      <trkpt lat="43.81134" lon="3.47279">
        <ele>629</ele>
        <time>2014-09-28T09:37:56Z</time>
      </trkpt>
      <trkpt lat="43.81126" lon="3.47276">
        <ele>629</ele>
        <time>2014-09-28T09:38:03Z</time>
      </trkpt>
      <trkpt lat="43.81099" lon="3.4726">
        <ele>630</ele>
        <time>2014-09-28T09:38:25Z</time>
      </trkpt>
      <trkpt lat="43.81089" lon="3.47255">
        <ele>624</ele>
        <time>2014-09-28T09:38:33Z</time>
      </trkpt>
      <trkpt lat="43.81082" lon="3.4725">
        <ele>627</ele>
        <time>2014-09-28T09:38:41Z</time>
      </trkpt>
      <trkpt lat="43.81072" lon="3.47242">
        <ele>626</ele>
        <time>2014-09-28T09:38:49Z</time>
      </trkpt>
      <trkpt lat="43.81064" lon="3.47237">
        <ele>628</ele>
        <time>2014-09-28T09:38:56Z</time>
      </trkpt>
      <trkpt lat="43.81045" lon="3.47229">
        <ele>628</ele>
        <time>2014-09-28T09:39:12Z</time>
      </trkpt>
      <trkpt lat="43.81027" lon="3.4722">
        <ele>629</ele>
        <time>2014-09-28T09:39:28Z</time>
      </trkpt>
      <trkpt lat="43.81001" lon="3.47209">
        <ele>631</ele>
        <time>2014-09-28T09:39:49Z</time>
      </trkpt>
      <trkpt lat="43.80984" lon="3.472">
        <ele>632</ele>
        <time>2014-09-28T09:40:04Z</time>
      </trkpt>
      <trkpt lat="43.80974" lon="3.47196">
        <ele>631</ele>
        <time>2014-09-28T09:40:12Z</time>
      </trkpt>
      <trkpt lat="43.80956" lon="3.47186">
        <ele>628</ele>
        <time>2014-09-28T09:40:28Z</time>
      </trkpt>
      <trkpt lat="43.80946" lon="3.47182">
        <ele>629</ele>
        <time>2014-09-28T09:40:36Z</time>
      </trkpt>
      <trkpt lat="43.80936" lon="3.4718">
        <ele>628</ele>
        <time>2014-09-28T09:40:44Z</time>
      </trkpt>
      <trkpt lat="43.8091" lon="3.47169">
        <ele>630</ele>
        <time>2014-09-28T09:41:08Z</time>
      </trkpt>
      <trkpt lat="43.80881" lon="3.4716">
        <ele>624</ele>
        <time>2014-09-28T09:41:31Z</time>
      </trkpt>
      <trkpt lat="43.80872" lon="3.47156">
        <ele>625</ele>
        <time>2014-09-28T09:41:39Z</time>
      </trkpt>
      <trkpt lat="43.80864" lon="3.47154">
        <ele>627</ele>
        <time>2014-09-28T09:41:48Z</time>
      </trkpt>
      <trkpt lat="43.80855" lon="3.47152">
        <ele>631</ele>
        <time>2014-09-28T09:41:55Z</time>
      </trkpt>
      <trkpt lat="43.80845" lon="3.47151">
        <ele>633</ele>
        <time>2014-09-28T09:42:04Z</time>
      </trkpt>
      <trkpt lat="43.80816" lon="3.47146">
        <ele>632</ele>
        <time>2014-09-28T09:42:27Z</time>
      </trkpt>
      <trkpt lat="43.80798" lon="3.47141">
        <ele>630</ele>
        <time>2014-09-28T09:42:42Z</time>
      </trkpt>
      <trkpt lat="43.80777" lon="3.47142">
        <ele>631</ele>
        <time>2014-09-28T09:42:59Z</time>
      </trkpt>
      <trkpt lat="43.80768" lon="3.4714">
        <ele>631</ele>
        <time>2014-09-28T09:43:06Z</time>
      </trkpt>
      <trkpt lat="43.80761" lon="3.47132">
        <ele>631</ele>
        <time>2014-09-28T09:43:15Z</time>
      </trkpt>
      <trkpt lat="43.80754" lon="3.47122">
        <ele>629</ele>
        <time>2014-09-28T09:43:23Z</time>
      </trkpt>
      <trkpt lat="43.80747" lon="3.4711">
        <ele>630</ele>
        <time>2014-09-28T09:43:31Z</time>
      </trkpt>
      <trkpt lat="43.8074" lon="3.47102">
        <ele>625</ele>
        <time>2014-09-28T09:43:38Z</time>
      </trkpt>
      <trkpt lat="43.80733" lon="3.47091">
        <ele>627</ele>
        <time>2014-09-28T09:43:46Z</time>
      </trkpt>
      <trkpt lat="43.80722" lon="3.47071">
        <ele>628</ele>
        <time>2014-09-28T09:44:02Z</time>
      </trkpt>
      <trkpt lat="43.80716" lon="3.47059">
        <ele>628</ele>
        <time>2014-09-28T09:44:10Z</time>
      </trkpt>
      <trkpt lat="43.80709" lon="3.47049">
        <ele>630</ele>
        <time>2014-09-28T09:44:19Z</time>
      </trkpt>
      <trkpt lat="43.80695" lon="3.47032">
        <ele>629</ele>
        <time>2014-09-28T09:44:34Z</time>
      </trkpt>
      <trkpt lat="43.80681" lon="3.47014">
        <ele>632</ele>
        <time>2014-09-28T09:44:51Z</time>
      </trkpt>
      <trkpt lat="43.80664" lon="3.46998">
        <ele>635</ele>
        <time>2014-09-28T09:45:08Z</time>
      </trkpt>
      <trkpt lat="43.80657" lon="3.46992">
        <ele>636</ele>
        <time>2014-09-28T09:45:15Z</time>
      </trkpt>
      <trkpt lat="43.8065" lon="3.46986">
        <ele>635</ele>
        <time>2014-09-28T09:45:22Z</time>
      </trkpt>
      <trkpt lat="43.8064" lon="3.46978">
        <ele>636</ele>
        <time>2014-09-28T09:45:31Z</time>
      </trkpt>
      <trkpt lat="43.80631" lon="3.46973">
        <ele>636</ele>
        <time>2014-09-28T09:45:39Z</time>
      </trkpt>
      <trkpt lat="43.80623" lon="3.46967">
        <ele>637</ele>
        <time>2014-09-28T09:45:46Z</time>
      </trkpt>
      <trkpt lat="43.80614" lon="3.46962">
        <ele>634</ele>
        <time>2014-09-28T09:45:54Z</time>
      </trkpt>
      <trkpt lat="43.80596" lon="3.46951">
        <ele>637</ele>
        <time>2014-09-28T09:46:11Z</time>
      </trkpt>
      <trkpt lat="43.80586" lon="3.46943">
        <ele>637</ele>
        <time>2014-09-28T09:46:21Z</time>
      </trkpt>
      <trkpt lat="43.80578" lon="3.46939">
        <ele>634</ele>
        <time>2014-09-28T09:46:28Z</time>
      </trkpt>
      <trkpt lat="43.80569" lon="3.46933">
        <ele>638</ele>
        <time>2014-09-28T09:46:36Z</time>
      </trkpt>
      <trkpt lat="43.80559" lon="3.46932">
        <ele>639</ele>
        <time>2014-09-28T09:46:44Z</time>
      </trkpt>
      <trkpt lat="43.80549" lon="3.46933">
        <ele>639</ele>
        <time>2014-09-28T09:46:51Z</time>
      </trkpt>
      <trkpt lat="43.80521" lon="3.46922">
        <ele>639</ele>
        <time>2014-09-28T09:47:15Z</time>
      </trkpt>
      <trkpt lat="43.80513" lon="3.46917">
        <ele>640</ele>
        <time>2014-09-28T09:47:23Z</time>
      </trkpt>
      <trkpt lat="43.80505" lon="3.46908">
        <ele>642</ele>
        <time>2014-09-28T09:47:32Z</time>
      </trkpt>
      <trkpt lat="43.80497" lon="3.46899">
        <ele>643</ele>
        <time>2014-09-28T09:47:42Z</time>
      </trkpt>
      <trkpt lat="43.8048" lon="3.46885">
        <ele>645</ele>
        <time>2014-09-28T09:47:57Z</time>
      </trkpt>
      <trkpt lat="43.80472" lon="3.46876">
        <ele>646</ele>
        <time>2014-09-28T09:48:05Z</time>
      </trkpt>
      <trkpt lat="43.80455" lon="3.46862">
        <ele>646</ele>
        <time>2014-09-28T09:48:20Z</time>
      </trkpt>
      <trkpt lat="43.80447" lon="3.46857">
        <ele>644</ele>
        <time>2014-09-28T09:48:27Z</time>
      </trkpt>
      <trkpt lat="43.80439" lon="3.46848">
        <ele>647</ele>
        <time>2014-09-28T09:48:35Z</time>
      </trkpt>
      <trkpt lat="43.80429" lon="3.46841">
        <ele>645</ele>
        <time>2014-09-28T09:48:44Z</time>
      </trkpt>
      <trkpt lat="43.80421" lon="3.46835">
        <ele>646</ele>
        <time>2014-09-28T09:48:51Z</time>
      </trkpt>
      <trkpt lat="43.80412" lon="3.46828">
        <ele>646</ele>
        <time>2014-09-28T09:48:59Z</time>
      </trkpt>
      <trkpt lat="43.80378" lon="3.46799">
        <ele>649</ele>
        <time>2014-09-28T09:49:31Z</time>
      </trkpt>
      <trkpt lat="43.80371" lon="3.46794">
        <ele>646</ele>
        <time>2014-09-28T09:49:38Z</time>
      </trkpt>
      <trkpt lat="43.8037" lon="3.46794">
        <ele>645</ele>
        <time>2014-09-28T09:49:39Z</time>
      </trkpt>
      <trkpt lat="43.80347" lon="3.46773">
        <ele>647</ele>
        <time>2014-09-28T09:50:02Z</time>
      </trkpt>
      <trkpt lat="43.80339" lon="3.46768">
        <ele>645</ele>
        <time>2014-09-28T09:50:09Z</time>
      </trkpt>
      <trkpt lat="43.8033" lon="3.46759">
        <ele>646</ele>
        <time>2014-09-28T09:50:16Z</time>
      </trkpt>
      <trkpt lat="43.80305" lon="3.46741">
        <ele>650</ele>
        <time>2014-09-28T09:50:41Z</time>
      </trkpt>
      <trkpt lat="43.80289" lon="3.46731">
        <ele>651</ele>
        <time>2014-09-28T09:50:55Z</time>
      </trkpt>
      <trkpt lat="43.80271" lon="3.46722">
        <ele>648</ele>
        <time>2014-09-28T09:51:09Z</time>
      </trkpt>
      <trkpt lat="43.80262" lon="3.46718">
        <ele>647</ele>
        <time>2014-09-28T09:51:17Z</time>
      </trkpt>
      <trkpt lat="43.80244" lon="3.46707">
        <ele>646</ele>
        <time>2014-09-28T09:51:33Z</time>
      </trkpt>
      <trkpt lat="43.80227" lon="3.46695">
        <ele>645</ele>
        <time>2014-09-28T09:51:47Z</time>
      </trkpt>
      <trkpt lat="43.80202" lon="3.46672">
        <ele>653</ele>
        <time>2014-09-28T09:52:14Z</time>
      </trkpt>
      <trkpt lat="43.80195" lon="3.46663">
        <ele>656</ele>
        <time>2014-09-28T09:52:22Z</time>
      </trkpt>
      <trkpt lat="43.80188" lon="3.46657">
        <ele>655</ele>
        <time>2014-09-28T09:52:29Z</time>
      </trkpt>
      <trkpt lat="43.80171" lon="3.46641">
        <ele>649</ele>
        <time>2014-09-28T09:52:44Z</time>
      </trkpt>
      <trkpt lat="43.80164" lon="3.46634">
        <ele>654</ele>
        <time>2014-09-28T09:52:51Z</time>
      </trkpt>
      <trkpt lat="43.80164" lon="3.46633">
        <ele>655</ele>
        <time>2014-09-28T09:52:52Z</time>
      </trkpt>
      <trkpt lat="43.80133" lon="3.46603">
        <ele>648</ele>
        <time>2014-09-28T09:53:23Z</time>
      </trkpt>
      <trkpt lat="43.80125" lon="3.46593">
        <ele>652</ele>
        <time>2014-09-28T09:53:31Z</time>
      </trkpt>
      <trkpt lat="43.80118" lon="3.46587">
        <ele>650</ele>
        <time>2014-09-28T09:53:38Z</time>
      </trkpt>
      <trkpt lat="43.80111" lon="3.46578">
        <ele>652</ele>
        <time>2014-09-28T09:53:46Z</time>
      </trkpt>
      <trkpt lat="43.80104" lon="3.4657">
        <ele>655</ele>
        <time>2014-09-28T09:53:54Z</time>
      </trkpt>
      <trkpt lat="43.80088" lon="3.46551">
        <ele>653</ele>
        <time>2014-09-28T09:54:12Z</time>
      </trkpt>
      <trkpt lat="43.80066" lon="3.46526">
        <ele>651</ele>
        <time>2014-09-28T09:54:35Z</time>
      </trkpt>
      <trkpt lat="43.80044" lon="3.46499">
        <ele>653</ele>
        <time>2014-09-28T09:55:01Z</time>
      </trkpt>
      <trkpt lat="43.80029" lon="3.46484">
        <ele>654</ele>
        <time>2014-09-28T09:55:17Z</time>
      </trkpt>
      <trkpt lat="43.80021" lon="3.46476">
        <ele>656</ele>
        <time>2014-09-28T09:55:27Z</time>
      </trkpt>
      <trkpt lat="43.80014" lon="3.46469">
        <ele>657</ele>
        <time>2014-09-28T09:55:34Z</time>
      </trkpt>
      <trkpt lat="43.79997" lon="3.4645">
        <ele>660</ele>
        <time>2014-09-28T09:55:49Z</time>
      </trkpt>
      <trkpt lat="43.79989" lon="3.46443">
        <ele>657</ele>
        <time>2014-09-28T09:55:58Z</time>
      </trkpt>
      <trkpt lat="43.79981" lon="3.46435">
        <ele>656</ele>
        <time>2014-09-28T09:56:04Z</time>
      </trkpt>
      <trkpt lat="43.79965" lon="3.4642">
        <ele>655</ele>
        <time>2014-09-28T09:56:19Z</time>
      </trkpt>
      <trkpt lat="43.79958" lon="3.46412">
        <ele>656</ele>
        <time>2014-09-28T09:56:26Z</time>
      </trkpt>
      <trkpt lat="43.79951" lon="3.46404">
        <ele>652</ele>
        <time>2014-09-28T09:56:34Z</time>
      </trkpt>
      <trkpt lat="43.79944" lon="3.46395">
        <ele>653</ele>
        <time>2014-09-28T09:56:42Z</time>
      </trkpt>
      <trkpt lat="43.79931" lon="3.46376">
        <ele>655</ele>
        <time>2014-09-28T09:56:58Z</time>
      </trkpt>
      <trkpt lat="43.79896" lon="3.46327">
        <ele>658</ele>
        <time>2014-09-28T09:57:41Z</time>
      </trkpt>
      <trkpt lat="43.7989" lon="3.46318">
        <ele>660</ele>
        <time>2014-09-28T09:57:51Z</time>
      </trkpt>
      <trkpt lat="43.79884" lon="3.4631">
        <ele>658</ele>
        <time>2014-09-28T09:57:58Z</time>
      </trkpt>
      <trkpt lat="43.7987" lon="3.4629">
        <ele>663</ele>
        <time>2014-09-28T09:58:15Z</time>
      </trkpt>
      <trkpt lat="43.79854" lon="3.4627">
        <ele>664</ele>
        <time>2014-09-28T09:58:30Z</time>
      </trkpt>
      <trkpt lat="43.79846" lon="3.46262">
        <ele>659</ele>
        <time>2014-09-28T09:58:37Z</time>
      </trkpt>
      <trkpt lat="43.7984" lon="3.46253">
        <ele>662</ele>
        <time>2014-09-28T09:58:44Z</time>
      </trkpt>
      <trkpt lat="43.79825" lon="3.46236">
        <ele>658</ele>
        <time>2014-09-28T09:58:59Z</time>
      </trkpt>
      <trkpt lat="43.79817" lon="3.46227">
        <ele>660</ele>
        <time>2014-09-28T09:59:07Z</time>
      </trkpt>
      <trkpt lat="43.79794" lon="3.46204">
        <ele>662</ele>
        <time>2014-09-28T09:59:31Z</time>
      </trkpt>
      <trkpt lat="43.79776" lon="3.46189">
        <ele>662</ele>
        <time>2014-09-28T09:59:49Z</time>
      </trkpt>
      <trkpt lat="43.79769" lon="3.46184">
        <ele>662</ele>
        <time>2014-09-28T09:59:56Z</time>
      </trkpt>
      <trkpt lat="43.79752" lon="3.46173">
        <ele>659</ele>
        <time>2014-09-28T10:00:10Z</time>
      </trkpt>
      <trkpt lat="43.79734" lon="3.46163">
        <ele>659</ele>
        <time>2014-09-28T10:00:26Z</time>
      </trkpt>
      <trkpt lat="43.79723" lon="3.46158">
        <ele>658</ele>
        <time>2014-09-28T10:00:35Z</time>
      </trkpt>
      <trkpt lat="43.79714" lon="3.46153">
        <ele>659</ele>
        <time>2014-09-28T10:00:43Z</time>
      </trkpt>
      <trkpt lat="43.79706" lon="3.4615">
        <ele>658</ele>
        <time>2014-09-28T10:00:50Z</time>
      </trkpt>
      <trkpt lat="43.79696" lon="3.46144">
        <ele>662</ele>
        <time>2014-09-28T10:01:00Z</time>
      </trkpt>
      <trkpt lat="43.79686" lon="3.4614">
        <ele>658</ele>
        <time>2014-09-28T10:01:09Z</time>
      </trkpt>
      <trkpt lat="43.79678" lon="3.46133">
        <ele>660</ele>
        <time>2014-09-28T10:01:17Z</time>
      </trkpt>
      <trkpt lat="43.79669" lon="3.46129">
        <ele>663</ele>
        <time>2014-09-28T10:01:26Z</time>
      </trkpt>
      <trkpt lat="43.79661" lon="3.46123">
        <ele>663</ele>
        <time>2014-09-28T10:01:35Z</time>
      </trkpt>
      <trkpt lat="43.79653" lon="3.46114">
        <ele>664</ele>
        <time>2014-09-28T10:01:41Z</time>
      </trkpt>
      <trkpt lat="43.79645" lon="3.46107">
        <ele>663</ele>
        <time>2014-09-28T10:01:49Z</time>
      </trkpt>
      <trkpt lat="43.79628" lon="3.46093">
        <ele>665</ele>
        <time>2014-09-28T10:02:06Z</time>
      </trkpt>
      <trkpt lat="43.79621" lon="3.46086">
        <ele>664</ele>
        <time>2014-09-28T10:02:14Z</time>
      </trkpt>
      <trkpt lat="43.79605" lon="3.46072">
        <ele>662</ele>
        <time>2014-09-28T10:02:30Z</time>
      </trkpt>
      <trkpt lat="43.79596" lon="3.46062">
        <ele>662</ele>
        <time>2014-09-28T10:02:40Z</time>
      </trkpt>
      <trkpt lat="43.79589" lon="3.46055">
        <ele>664</ele>
        <time>2014-09-28T10:02:48Z</time>
      </trkpt>
      <trkpt lat="43.79588" lon="3.46054">
        <ele>665</ele>
        <time>2014-09-28T10:02:49Z</time>
      </trkpt>
      <trkpt lat="43.79572" lon="3.46037">
        <ele>663</ele>
        <time>2014-09-28T10:03:02Z</time>
      </trkpt>
      <trkpt lat="43.79564" lon="3.46032">
        <ele>660</ele>
        <time>2014-09-28T10:03:10Z</time>
      </trkpt>
      <trkpt lat="43.79556" lon="3.46023">
        <ele>664</ele>
        <time>2014-09-28T10:03:19Z</time>
      </trkpt>
      <trkpt lat="43.79548" lon="3.46017">
        <ele>663</ele>
        <time>2014-09-28T10:03:27Z</time>
      </trkpt>
      <trkpt lat="43.7954" lon="3.4601">
        <ele>663</ele>
        <time>2014-09-28T10:03:36Z</time>
      </trkpt>
      <trkpt lat="43.79532" lon="3.46003">
        <ele>666</ele>
        <time>2014-09-28T10:03:46Z</time>
      </trkpt>
      <trkpt lat="43.79515" lon="3.45987">
        <ele>667</ele>
        <time>2014-09-28T10:04:05Z</time>
      </trkpt>
      <trkpt lat="43.79501" lon="3.45972">
        <ele>669</ele>
        <time>2014-09-28T10:04:20Z</time>
      </trkpt>
      <trkpt lat="43.79494" lon="3.45963">
        <ele>668</ele>
        <time>2014-09-28T10:04:29Z</time>
      </trkpt>
      <trkpt lat="43.79487" lon="3.45955">
        <ele>671</ele>
        <time>2014-09-28T10:04:36Z</time>
      </trkpt>
      <trkpt lat="43.79463" lon="3.45936">
        <ele>668</ele>
        <time>2014-09-28T10:04:56Z</time>
      </trkpt>
      <trkpt lat="43.79452" lon="3.45931">
        <ele>666</ele>
        <time>2014-09-28T10:05:04Z</time>
      </trkpt>
      <trkpt lat="43.79444" lon="3.45929">
        <ele>666</ele>
        <time>2014-09-28T10:05:10Z</time>
      </trkpt>
      <trkpt lat="43.79434" lon="3.45927">
        <ele>666</ele>
        <time>2014-09-28T10:05:18Z</time>
      </trkpt>
      <trkpt lat="43.79424" lon="3.45924">
        <ele>669</ele>
        <time>2014-09-28T10:05:29Z</time>
      </trkpt>
      <trkpt lat="43.79415" lon="3.45923">
        <ele>670</ele>
        <time>2014-09-28T10:05:38Z</time>
      </trkpt>
      <trkpt lat="43.79405" lon="3.4592">
        <ele>669</ele>
        <time>2014-09-28T10:05:46Z</time>
      </trkpt>
      <trkpt lat="43.79394" lon="3.45916">
        <ele>670</ele>
        <time>2014-09-28T10:05:54Z</time>
      </trkpt>
      <trkpt lat="43.79386" lon="3.45912">
        <ele>667</ele>
        <time>2014-09-28T10:06:02Z</time>
      </trkpt>
      <trkpt lat="43.79368" lon="3.45906">
        <ele>669</ele>
        <time>2014-09-28T10:06:18Z</time>
      </trkpt>
      <trkpt lat="43.79367" lon="3.45906">
        <ele>670</ele>
        <time>2014-09-28T10:06:19Z</time>
      </trkpt>
      <trkpt lat="43.79359" lon="3.45903">
        <ele>667</ele>
        <time>2014-09-28T10:06:26Z</time>
      </trkpt>
      <trkpt lat="43.79347" lon="3.45897">
        <ele>666</ele>
        <time>2014-09-28T10:06:33Z</time>
      </trkpt>
      <trkpt lat="43.79329" lon="3.4589">
        <ele>667</ele>
        <time>2014-09-28T10:06:50Z</time>
      </trkpt>
      <trkpt lat="43.79321" lon="3.45888">
        <ele>668</ele>
        <time>2014-09-28T10:06:57Z</time>
      </trkpt>
      <trkpt lat="43.7931" lon="3.45882">
        <ele>669</ele>
        <time>2014-09-28T10:07:06Z</time>
      </trkpt>
      <trkpt lat="43.79302" lon="3.45878">
        <ele>668</ele>
        <time>2014-09-28T10:07:13Z</time>
      </trkpt>
      <trkpt lat="43.79292" lon="3.45875">
        <ele>670</ele>
        <time>2014-09-28T10:07:22Z</time>
      </trkpt>
      <trkpt lat="43.79282" lon="3.45871">
        <ele>672</ele>
        <time>2014-09-28T10:07:34Z</time>
      </trkpt>
      <trkpt lat="43.79277" lon="3.45871">
        <ele>674</ele>
        <time>2014-09-28T10:07:40Z</time>
      </trkpt>
      <trkpt lat="43.79267" lon="3.45866">
        <ele>666</ele>
        <time>2014-09-28T10:07:49Z</time>
      </trkpt>
      <trkpt lat="43.79258" lon="3.45863">
        <ele>668</ele>
        <time>2014-09-28T10:07:57Z</time>
      </trkpt>
      <trkpt lat="43.79248" lon="3.45862">
        <ele>667</ele>
        <time>2014-09-28T10:08:05Z</time>
      </trkpt>
      <trkpt lat="43.79247" lon="3.45861">
        <ele>666</ele>
        <time>2014-09-28T10:08:06Z</time>
      </trkpt>
      <trkpt lat="43.79227" lon="3.45859">
        <ele>671</ele>
        <time>2014-09-28T10:08:24Z</time>
      </trkpt>
      <trkpt lat="43.7921" lon="3.45862">
        <ele>672</ele>
        <time>2014-09-28T10:08:38Z</time>
      </trkpt>
      <trkpt lat="43.79198" lon="3.45865">
        <ele>671</ele>
        <time>2014-09-28T10:08:47Z</time>
      </trkpt>
      <trkpt lat="43.7919" lon="3.45868">
        <ele>673</ele>
        <time>2014-09-28T10:08:54Z</time>
      </trkpt>
      <trkpt lat="43.79181" lon="3.45872">
        <ele>680</ele>
        <time>2014-09-28T10:09:03Z</time>
      </trkpt>
      <trkpt lat="43.7918" lon="3.45873">
        <ele>678</ele>
        <time>2014-09-28T10:09:04Z</time>
      </trkpt>
      <trkpt lat="43.79172" lon="3.45877">
        <ele>680</ele>
        <time>2014-09-28T10:09:12Z</time>
      </trkpt>
      <trkpt lat="43.79163" lon="3.45883">
        <ele>682</ele>
        <time>2014-09-28T10:09:20Z</time>
      </trkpt>
      <trkpt lat="43.79155" lon="3.45892">
        <ele>677</ele>
        <time>2014-09-28T10:09:28Z</time>
      </trkpt>
      <trkpt lat="43.79147" lon="3.459">
        <ele>678</ele>
        <time>2014-09-28T10:09:35Z</time>
      </trkpt>
      <trkpt lat="43.79139" lon="3.45905">
        <ele>674</ele>
        <time>2014-09-28T10:09:42Z</time>
      </trkpt>
      <trkpt lat="43.79137" lon="3.45905">
        <ele>675</ele>
        <time>2014-09-28T10:09:43Z</time>
      </trkpt>
      <trkpt lat="43.7913" lon="3.45912">
        <ele>680</ele>
        <time>2014-09-28T10:09:52Z</time>
      </trkpt>
      <trkpt lat="43.79129" lon="3.45912">
        <ele>687</ele>
        <time>2014-09-28T10:09:56Z</time>
      </trkpt>
      <trkpt lat="43.7913" lon="3.45911">
        <ele>687</ele>
        <time>2014-09-28T10:09:57Z</time>
      </trkpt>
      <trkpt lat="43.7913" lon="3.45912">
        <ele>691</ele>
        <time>2014-09-28T10:09:59Z</time>
      </trkpt>
      <trkpt lat="43.7913" lon="3.45912">
        <ele>688</ele>
        <time>2014-09-28T10:10:02Z</time>
      </trkpt>
      <trkpt lat="43.79129" lon="3.45911">
        <ele>686</ele>
        <time>2014-09-28T10:10:03Z</time>
      </trkpt>
      <trkpt lat="43.79129" lon="3.45907">
        <ele>678</ele>
        <time>2014-09-28T10:10:10Z</time>
      </trkpt>
      <trkpt lat="43.79129" lon="3.45895">
        <ele>671</ele>
        <time>2014-09-28T10:10:22Z</time>
      </trkpt>
      <trkpt lat="43.79123" lon="3.45883">
        <ele>667</ele>
        <time>2014-09-28T10:10:29Z</time>
      </trkpt>
      <trkpt lat="43.79116" lon="3.45874">
        <ele>657</ele>
        <time>2014-09-28T10:10:37Z</time>
      </trkpt>
      <trkpt lat="43.79115" lon="3.45872">
        <ele>657</ele>
        <time>2014-09-28T10:10:38Z</time>
      </trkpt>
      <trkpt lat="43.7911" lon="3.45869">
        <ele>650</ele>
        <time>2014-09-28T10:10:48Z</time>
      </trkpt>
      <trkpt lat="43.7911" lon="3.4587">
        <ele>649</ele>
        <time>2014-09-28T10:10:49Z</time>
      </trkpt>
      <trkpt lat="43.7911" lon="3.4587">
        <ele>644</ele>
        <time>2014-09-28T10:10:56Z</time>
      </trkpt>
      <trkpt lat="43.79106" lon="3.45868">
        <ele>653</ele>
        <time>2014-09-28T10:11:18Z</time>
      </trkpt>
      <trkpt lat="43.791" lon="3.4585">
        <ele>668</ele>
        <time>2014-09-28T10:11:23Z</time>
      </trkpt>
      <trkpt lat="43.79099" lon="3.45847">
        <ele>671</ele>
        <time>2014-09-28T10:11:24Z</time>
      </trkpt>
      <trkpt lat="43.7909" lon="3.45847">
        <ele>669</ele>
        <time>2014-09-28T10:11:34Z</time>
      </trkpt>
      <trkpt lat="43.79089" lon="3.45848">
        <ele>671</ele>
        <time>2014-09-28T10:11:35Z</time>
      </trkpt>
      <trkpt lat="43.79084" lon="3.45858">
        <ele>675</ele>
        <time>2014-09-28T10:11:43Z</time>
      </trkpt>
      <trkpt lat="43.79072" lon="3.45893">
        <ele>681</ele>
        <time>2014-09-28T10:12:17Z</time>
      </trkpt>
      <trkpt lat="43.79074" lon="3.45906">
        <ele>679</ele>
        <time>2014-09-28T10:13:20Z</time>
      </trkpt>
      <trkpt lat="43.79069" lon="3.4591">
        <ele>680</ele>
        <time>2014-09-28T10:13:31Z</time>
      </trkpt>
      <trkpt lat="43.79068" lon="3.45909">
        <ele>665</ele>
        <time>2014-09-28T10:13:51Z</time>
      </trkpt>
      <trkpt lat="43.79067" lon="3.4591">
        <ele>665</ele>
        <time>2014-09-28T10:13:56Z</time>
      </trkpt>
      <trkpt lat="43.79068" lon="3.4591">
        <ele>663</ele>
        <time>2014-09-28T10:13:57Z</time>
      </trkpt>
      <trkpt lat="43.79062" lon="3.45912">
        <ele>688</ele>
        <time>2014-09-28T10:15:39Z</time>
      </trkpt>
      <trkpt lat="43.79058" lon="3.45911">
        <ele>687</ele>
        <time>2014-09-28T10:15:40Z</time>
      </trkpt>
      <trkpt lat="43.79056" lon="3.45912">
        <ele>680</ele>
        <time>2014-09-28T10:16:10Z</time>
      </trkpt>
      <trkpt lat="43.79054" lon="3.45913">
        <ele>689</ele>
        <time>2014-09-28T10:16:37Z</time>
      </trkpt>
      <trkpt lat="43.79054" lon="3.45913">
        <ele>688</ele>
        <time>2014-09-28T10:16:38Z</time>
      </trkpt>
      <trkpt lat="43.79053" lon="3.45912">
        <ele>671</ele>
        <time>2014-09-28T10:28:44Z</time>
      </trkpt>
      <trkpt lat="43.79047" lon="3.45912">
        <ele>667</ele>
        <time>2014-09-28T10:28:55Z</time>
      </trkpt>
      <trkpt lat="43.79048" lon="3.45912">
        <ele>670</ele>
        <time>2014-09-28T10:29:29Z</time>
      </trkpt>
      <trkpt lat="43.79056" lon="3.45908">
        <ele>673</ele>
        <time>2014-09-28T10:29:48Z</time>
      </trkpt>
      <trkpt lat="43.79057" lon="3.45908">
        <ele>674</ele>
        <time>2014-09-28T10:29:49Z</time>
      </trkpt>
      <trkpt lat="43.79054" lon="3.45911">
        <ele>666</ele>
        <time>2014-09-28T10:30:26Z</time>
      </trkpt>
      <trkpt lat="43.79054" lon="3.45911">
        <ele>666</ele>
        <time>2014-09-28T10:30:27Z</time>
      </trkpt>
      <trkpt lat="43.79053" lon="3.45912">
        <ele>682</ele>
        <time>2014-09-28T10:32:12Z</time>
      </trkpt>
      <trkpt lat="43.79057" lon="3.45915">
        <ele>675</ele>
        <time>2014-09-28T10:33:25Z</time>
      </trkpt>
      <trkpt lat="43.79057" lon="3.45915">
        <ele>674</ele>
        <time>2014-09-28T10:33:26Z</time>
      </trkpt>
      <trkpt lat="43.79051" lon="3.45911">
        <ele>680</ele>
        <time>2014-09-28T10:34:18Z</time>
      </trkpt>
      <trkpt lat="43.79051" lon="3.4591">
        <ele>681</ele>
        <time>2014-09-28T10:34:28Z</time>
      </trkpt>
      <trkpt lat="43.7905" lon="3.45909">
        <ele>678</ele>
        <time>2014-09-28T10:34:39Z</time>
      </trkpt>
      <trkpt lat="43.79047" lon="3.4591">
        <ele>683</ele>
        <time>2014-09-28T10:35:10Z</time>
      </trkpt>
      <trkpt lat="43.79051" lon="3.45911">
        <ele>680</ele>
        <time>2014-09-28T10:35:48Z</time>
      </trkpt>
      <trkpt lat="43.79048" lon="3.45908">
        <ele>680</ele>
        <time>2014-09-28T10:40:21Z</time>
      </trkpt>
      <trkpt lat="43.79045" lon="3.45908">
        <ele>690</ele>
        <time>2014-09-28T10:40:34Z</time>
      </trkpt>
      <trkpt lat="43.79053" lon="3.4591">
        <ele>681</ele>
        <time>2014-09-28T10:43:04Z</time>
      </trkpt>
      <trkpt lat="43.79055" lon="3.45912">
        <ele>665</ele>
        <time>2014-09-28T10:43:22Z</time>
      </trkpt>
      <trkpt lat="43.79062" lon="3.45914">
        <ele>672</ele>
        <time>2014-09-28T10:44:01Z</time>
      </trkpt>
      <trkpt lat="43.79062" lon="3.45914">
        <ele>672</ele>
        <time>2014-09-28T10:44:02Z</time>
      </trkpt>
      <trkpt lat="43.79057" lon="3.45909">
        <ele>686</ele>
        <time>2014-09-28T10:47:20Z</time>
      </trkpt>
      <trkpt lat="43.79046" lon="3.45897">
        <ele>695</ele>
        <time>2014-09-28T10:47:38Z</time>
      </trkpt>
      <trkpt lat="43.79046" lon="3.45896">
        <ele>685</ele>
        <time>2014-09-28T10:48:13Z</time>
      </trkpt>
      <trkpt lat="43.79053" lon="3.459">
        <ele>684</ele>
        <time>2014-09-28T10:48:14Z</time>
      </trkpt>
      <trkpt lat="43.79053" lon="3.45902">
        <ele>678</ele>
        <time>2014-09-28T10:48:29Z</time>
      </trkpt>
      <trkpt lat="43.79056" lon="3.45907">
        <ele>678</ele>
        <time>2014-09-28T10:48:33Z</time>
      </trkpt>
      <trkpt lat="43.79058" lon="3.45909">
        <ele>680</ele>
        <time>2014-09-28T10:48:34Z</time>
      </trkpt>
      <trkpt lat="43.79051" lon="3.45904">
        <ele>679</ele>
        <time>2014-09-28T10:49:29Z</time>
      </trkpt>
      <trkpt lat="43.79048" lon="3.45903">
        <ele>677</ele>
        <time>2014-09-28T10:49:30Z</time>
      </trkpt>
      <trkpt lat="43.7904" lon="3.45904">
        <ele>685</ele>
        <time>2014-09-28T10:49:42Z</time>
      </trkpt>
      <trkpt lat="43.79039" lon="3.45904">
        <ele>682</ele>
        <time>2014-09-28T10:49:43Z</time>
      </trkpt>
      <trkpt lat="43.79035" lon="3.45915">
        <ele>679</ele>
        <time>2014-09-28T10:49:49Z</time>
      </trkpt>
      <trkpt lat="43.79026" lon="3.45937">
        <ele>683</ele>
        <time>2014-09-28T10:50:06Z</time>
      </trkpt>
      <trkpt lat="43.79026" lon="3.45938">
        <ele>683</ele>
        <time>2014-09-28T10:50:07Z</time>
      </trkpt>
      <trkpt lat="43.79026" lon="3.4595">
        <ele>681</ele>
        <time>2014-09-28T10:50:17Z</time>
      </trkpt>
      <trkpt lat="43.79022" lon="3.45963">
        <ele>681</ele>
        <time>2014-09-28T10:50:26Z</time>
      </trkpt>
      <trkpt lat="43.79024" lon="3.45974">
        <ele>677</ele>
        <time>2014-09-28T10:50:32Z</time>
      </trkpt>
      <trkpt lat="43.79023" lon="3.45977">
        <ele>678</ele>
        <time>2014-09-28T10:50:33Z</time>
      </trkpt>
      <trkpt lat="43.79019" lon="3.45988">
        <ele>682</ele>
        <time>2014-09-28T10:50:42Z</time>
      </trkpt>
      <trkpt lat="43.79019" lon="3.45989">
        <ele>685</ele>
        <time>2014-09-28T10:50:43Z</time>
      </trkpt>
      <trkpt lat="43.79015" lon="3.45999">
        <ele>680</ele>
        <time>2014-09-28T10:50:49Z</time>
      </trkpt>
      <trkpt lat="43.79007" lon="3.46006">
        <ele>677</ele>
        <time>2014-09-28T10:50:56Z</time>
      </trkpt>
      <trkpt lat="43.79006" lon="3.46007">
        <ele>677</ele>
        <time>2014-09-28T10:50:57Z</time>
      </trkpt>
      <trkpt lat="43.79006" lon="3.46019">
        <ele>673</ele>
        <time>2014-09-28T10:51:06Z</time>
      </trkpt>
      <trkpt lat="43.79001" lon="3.46032">
        <ele>686</ele>
        <time>2014-09-28T10:51:22Z</time>
      </trkpt>
      <trkpt lat="43.78999" lon="3.46034">
        <ele>691</ele>
        <time>2014-09-28T10:51:24Z</time>
      </trkpt>
      <trkpt lat="43.78994" lon="3.46037">
        <ele>701</ele>
        <time>2014-09-28T10:51:27Z</time>
      </trkpt>
      <trkpt lat="43.78993" lon="3.46039">
        <ele>700</ele>
        <time>2014-09-28T10:51:28Z</time>
      </trkpt>
      <trkpt lat="43.78998" lon="3.46048">
        <ele>688</ele>
        <time>2014-09-28T10:51:35Z</time>
      </trkpt>
      <trkpt lat="43.78999" lon="3.46049">
        <ele>686</ele>
        <time>2014-09-28T10:51:36Z</time>
      </trkpt>
      <trkpt lat="43.79007" lon="3.46052">
        <ele>684</ele>
        <time>2014-09-28T10:51:40Z</time>
      </trkpt>
      <trkpt lat="43.79016" lon="3.46053">
        <ele>684</ele>
        <time>2014-09-28T10:51:49Z</time>
      </trkpt>
      <trkpt lat="43.79027" lon="3.46055">
        <ele>688</ele>
        <time>2014-09-28T10:51:58Z</time>
      </trkpt>
      <trkpt lat="43.79035" lon="3.46056">
        <ele>688</ele>
        <time>2014-09-28T10:52:04Z</time>
      </trkpt>
      <trkpt lat="43.79046" lon="3.46054">
        <ele>687</ele>
        <time>2014-09-28T10:52:12Z</time>
      </trkpt>
      <trkpt lat="43.79055" lon="3.46058">
        <ele>688</ele>
        <time>2014-09-28T10:52:21Z</time>
      </trkpt>
      <trkpt lat="43.79065" lon="3.46056">
        <ele>690</ele>
        <time>2014-09-28T10:52:30Z</time>
      </trkpt>
      <trkpt lat="43.79084" lon="3.46056">
        <ele>692</ele>
        <time>2014-09-28T10:52:51Z</time>
      </trkpt>
      <trkpt lat="43.79092" lon="3.46057">
        <ele>690</ele>
        <time>2014-09-28T10:52:56Z</time>
      </trkpt>
      <trkpt lat="43.79112" lon="3.46057">
        <ele>686</ele>
        <time>2014-09-28T10:53:11Z</time>
      </trkpt>
      <trkpt lat="43.79122" lon="3.46061">
        <ele>687</ele>
        <time>2014-09-28T10:53:30Z</time>
      </trkpt>
      <trkpt lat="43.79122" lon="3.46061">
        <ele>688</ele>
        <time>2014-09-28T10:53:31Z</time>
      </trkpt>
      <trkpt lat="43.79125" lon="3.46062">
        <ele>688</ele>
        <time>2014-09-28T10:53:34Z</time>
      </trkpt>
      <trkpt lat="43.79134" lon="3.46066">
        <ele>687</ele>
        <time>2014-09-28T10:53:44Z</time>
      </trkpt>
      <trkpt lat="43.79143" lon="3.46068">
        <ele>691</ele>
        <time>2014-09-28T10:53:52Z</time>
      </trkpt>
      <trkpt lat="43.79154" lon="3.46067">
        <ele>695</ele>
        <time>2014-09-28T10:54:04Z</time>
      </trkpt>
      <trkpt lat="43.79163" lon="3.46068">
        <ele>692</ele>
        <time>2014-09-28T10:54:13Z</time>
      </trkpt>
      <trkpt lat="43.79171" lon="3.46071">
        <ele>693</ele>
        <time>2014-09-28T10:54:21Z</time>
      </trkpt>
      <trkpt lat="43.79182" lon="3.46073">
        <ele>694</ele>
        <time>2014-09-28T10:54:34Z</time>
      </trkpt>
      <trkpt lat="43.79189" lon="3.46078">
        <ele>692</ele>
        <time>2014-09-28T10:54:41Z</time>
      </trkpt>
      <trkpt lat="43.79191" lon="3.4608">
        <ele>692</ele>
        <time>2014-09-28T10:54:42Z</time>
      </trkpt>
      <trkpt lat="43.79197" lon="3.46091">
        <ele>693</ele>
        <time>2014-09-28T10:54:49Z</time>
      </trkpt>
      <trkpt lat="43.79194" lon="3.46102">
        <ele>694</ele>
        <time>2014-09-28T10:55:03Z</time>
      </trkpt>
      <trkpt lat="43.79187" lon="3.46113">
        <ele>700</ele>
        <time>2014-09-28T10:55:18Z</time>
      </trkpt>
      <trkpt lat="43.79187" lon="3.46125">
        <ele>702</ele>
        <time>2014-09-28T10:55:29Z</time>
      </trkpt>
      <trkpt lat="43.79189" lon="3.46131">
        <ele>698</ele>
        <time>2014-09-28T10:55:38Z</time>
      </trkpt>
      <trkpt lat="43.79195" lon="3.46141">
        <ele>701</ele>
        <time>2014-09-28T10:55:50Z</time>
      </trkpt>
      <trkpt lat="43.79202" lon="3.46148">
        <ele>706</ele>
        <time>2014-09-28T10:56:09Z</time>
      </trkpt>
      <trkpt lat="43.79202" lon="3.46148">
        <ele>706</ele>
        <time>2014-09-28T10:56:10Z</time>
      </trkpt>
      <trkpt lat="43.79195" lon="3.46154">
        <ele>710</ele>
        <time>2014-09-28T10:56:36Z</time>
      </trkpt>
      <trkpt lat="43.79194" lon="3.46154">
        <ele>709</ele>
        <time>2014-09-28T10:56:37Z</time>
      </trkpt>
      <trkpt lat="43.79184" lon="3.46158">
        <ele>708</ele>
        <time>2014-09-28T10:56:47Z</time>
      </trkpt>
      <trkpt lat="43.79182" lon="3.46172">
        <ele>709</ele>
        <time>2014-09-28T10:57:00Z</time>
      </trkpt>
      <trkpt lat="43.7918" lon="3.46183">
        <ele>710</ele>
        <time>2014-09-28T10:57:11Z</time>
      </trkpt>
      <trkpt lat="43.79182" lon="3.46196">
        <ele>712</ele>
        <time>2014-09-28T10:57:22Z</time>
      </trkpt>
      <trkpt lat="43.79183" lon="3.46197">
        <ele>712</ele>
        <time>2014-09-28T10:57:23Z</time>
      </trkpt>
      <trkpt lat="43.79184" lon="3.46209">
        <ele>715</ele>
        <time>2014-09-28T10:57:37Z</time>
      </trkpt>
      <trkpt lat="43.79184" lon="3.46211">
        <ele>717</ele>
        <time>2014-09-28T10:57:38Z</time>
      </trkpt>
      <trkpt lat="43.79185" lon="3.46217">
        <ele>724</ele>
        <time>2014-09-28T10:57:55Z</time>
      </trkpt>
      <trkpt lat="43.79183" lon="3.4622">
        <ele>723</ele>
        <time>2014-09-28T10:58:00Z</time>
      </trkpt>
      <trkpt lat="43.79197" lon="3.46237">
        <ele>721</ele>
        <time>2014-09-28T10:58:20Z</time>
      </trkpt>
      <trkpt lat="43.79209" lon="3.46256">
        <ele>722</ele>
        <time>2014-09-28T10:58:41Z</time>
      </trkpt>
      <trkpt lat="43.7921" lon="3.46258">
        <ele>723</ele>
        <time>2014-09-28T10:58:42Z</time>
      </trkpt>
      <trkpt lat="43.79211" lon="3.4627">
        <ele>724</ele>
        <time>2014-09-28T10:58:54Z</time>
      </trkpt>
      <trkpt lat="43.79211" lon="3.46282">
        <ele>722</ele>
        <time>2014-09-28T10:59:03Z</time>
      </trkpt>
      <trkpt lat="43.79214" lon="3.46296">
        <ele>726</ele>
        <time>2014-09-28T10:59:16Z</time>
      </trkpt>
      <trkpt lat="43.79216" lon="3.46309">
        <ele>725</ele>
        <time>2014-09-28T10:59:27Z</time>
      </trkpt>
      <trkpt lat="43.79218" lon="3.46333">
        <ele>726</ele>
        <time>2014-09-28T10:59:53Z</time>
      </trkpt>
      <trkpt lat="43.79221" lon="3.46346">
        <ele>729</ele>
        <time>2014-09-28T11:00:06Z</time>
      </trkpt>
      <trkpt lat="43.79221" lon="3.46348">
        <ele>729</ele>
        <time>2014-09-28T11:00:07Z</time>
      </trkpt>
      <trkpt lat="43.79224" lon="3.4636">
        <ele>733</ele>
        <time>2014-09-28T11:00:19Z</time>
      </trkpt>
      <trkpt lat="43.79225" lon="3.46372">
        <ele>734</ele>
        <time>2014-09-28T11:00:31Z</time>
      </trkpt>
      <trkpt lat="43.79224" lon="3.46386">
        <ele>736</ele>
        <time>2014-09-28T11:00:43Z</time>
      </trkpt>
      <trkpt lat="43.79226" lon="3.46397">
        <ele>736</ele>
        <time>2014-09-28T11:00:52Z</time>
      </trkpt>
      <trkpt lat="43.79225" lon="3.4641">
        <ele>735</ele>
        <time>2014-09-28T11:01:01Z</time>
      </trkpt>
      <trkpt lat="43.79226" lon="3.46436">
        <ele>737</ele>
        <time>2014-09-28T11:01:23Z</time>
      </trkpt>
      <trkpt lat="43.79226" lon="3.4644">
        <ele>738</ele>
        <time>2014-09-28T11:01:30Z</time>
      </trkpt>
      <trkpt lat="43.79226" lon="3.4644">
        <ele>739</ele>
        <time>2014-09-28T11:01:31Z</time>
      </trkpt>
      <trkpt lat="43.79229" lon="3.46452">
        <ele>741</ele>
        <time>2014-09-28T11:01:39Z</time>
      </trkpt>
      <trkpt lat="43.79231" lon="3.46463">
        <ele>741</ele>
        <time>2014-09-28T11:01:48Z</time>
      </trkpt>
      <trkpt lat="43.79231" lon="3.46465">
        <ele>741</ele>
        <time>2014-09-28T11:01:49Z</time>
      </trkpt>
      <trkpt lat="43.79232" lon="3.46476">
        <ele>743</ele>
        <time>2014-09-28T11:01:58Z</time>
      </trkpt>
      <trkpt lat="43.79232" lon="3.46489">
        <ele>744</ele>
        <time>2014-09-28T11:02:08Z</time>
      </trkpt>
      <trkpt lat="43.79238" lon="3.46514">
        <ele>743</ele>
        <time>2014-09-28T11:02:29Z</time>
      </trkpt>
      <trkpt lat="43.79239" lon="3.46515">
        <ele>743</ele>
        <time>2014-09-28T11:02:30Z</time>
      </trkpt>
      <trkpt lat="43.79242" lon="3.46525">
        <ele>743</ele>
        <time>2014-09-28T11:02:37Z</time>
      </trkpt>
      <trkpt lat="43.79242" lon="3.46527">
        <ele>743</ele>
        <time>2014-09-28T11:02:38Z</time>
      </trkpt>
      <trkpt lat="43.79245" lon="3.46538">
        <ele>747</ele>
        <time>2014-09-28T11:02:48Z</time>
      </trkpt>
      <trkpt lat="43.79247" lon="3.46551">
        <ele>748</ele>
        <time>2014-09-28T11:03:00Z</time>
      </trkpt>
      <trkpt lat="43.79248" lon="3.46563">
        <ele>747</ele>
        <time>2014-09-28T11:03:09Z</time>
      </trkpt>
      <trkpt lat="43.79252" lon="3.46577">
        <ele>749</ele>
        <time>2014-09-28T11:03:21Z</time>
      </trkpt>
      <trkpt lat="43.79256" lon="3.46588">
        <ele>750</ele>
        <time>2014-09-28T11:03:31Z</time>
      </trkpt>
      <trkpt lat="43.79259" lon="3.46599">
        <ele>751</ele>
        <time>2014-09-28T11:03:41Z</time>
      </trkpt>
      <trkpt lat="43.79263" lon="3.46613">
        <ele>754</ele>
        <time>2014-09-28T11:03:52Z</time>
      </trkpt>
      <trkpt lat="43.79265" lon="3.46624">
        <ele>755</ele>
        <time>2014-09-28T11:04:10Z</time>
      </trkpt>
      <trkpt lat="43.79266" lon="3.46637">
        <ele>753</ele>
        <time>2014-09-28T11:04:20Z</time>
      </trkpt>
      <trkpt lat="43.79269" lon="3.46651">
        <ele>752</ele>
        <time>2014-09-28T11:04:31Z</time>
      </trkpt>
      <trkpt lat="43.79278" lon="3.46687">
        <ele>753</ele>
        <time>2014-09-28T11:04:59Z</time>
      </trkpt>
      <trkpt lat="43.7928" lon="3.46699">
        <ele>753</ele>
        <time>2014-09-28T11:05:09Z</time>
      </trkpt>
      <trkpt lat="43.79282" lon="3.46712">
        <ele>755</ele>
        <time>2014-09-28T11:05:18Z</time>
      </trkpt>
      <trkpt lat="43.79287" lon="3.4674">
        <ele>759</ele>
        <time>2014-09-28T11:05:37Z</time>
      </trkpt>
      <trkpt lat="43.79286" lon="3.46752">
        <ele>756</ele>
        <time>2014-09-28T11:05:46Z</time>
      </trkpt>
      <trkpt lat="43.79287" lon="3.46764">
        <ele>758</ele>
        <time>2014-09-28T11:05:55Z</time>
      </trkpt>
      <trkpt lat="43.7929" lon="3.46777">
        <ele>760</ele>
        <time>2014-09-28T11:06:04Z</time>
      </trkpt>
      <trkpt lat="43.79289" lon="3.46792">
        <ele>758</ele>
        <time>2014-09-28T11:06:16Z</time>
      </trkpt>
      <trkpt lat="43.79291" lon="3.46804">
        <ele>759</ele>
        <time>2014-09-28T11:06:24Z</time>
      </trkpt>
      <trkpt lat="43.79294" lon="3.46817">
        <ele>759</ele>
        <time>2014-09-28T11:06:35Z</time>
      </trkpt>
      <trkpt lat="43.79298" lon="3.46831">
        <ele>759</ele>
        <time>2014-09-28T11:06:44Z</time>
      </trkpt>
      <trkpt lat="43.793" lon="3.46842">
        <ele>759</ele>
        <time>2014-09-28T11:06:51Z</time>
      </trkpt>
      <trkpt lat="43.79306" lon="3.46868">
        <ele>759</ele>
        <time>2014-09-28T11:07:09Z</time>
      </trkpt>
      <trkpt lat="43.79308" lon="3.4688">
        <ele>758</ele>
        <time>2014-09-28T11:07:20Z</time>
      </trkpt>
      <trkpt lat="43.79311" lon="3.46891">
        <ele>757</ele>
        <time>2014-09-28T11:07:28Z</time>
      </trkpt>
      <trkpt lat="43.79315" lon="3.46905">
        <ele>758</ele>
        <time>2014-09-28T11:07:38Z</time>
      </trkpt>
      <trkpt lat="43.79321" lon="3.46917">
        <ele>758</ele>
        <time>2014-09-28T11:07:47Z</time>
      </trkpt>
      <trkpt lat="43.79326" lon="3.46926">
        <ele>758</ele>
        <time>2014-09-28T11:07:55Z</time>
      </trkpt>
      <trkpt lat="43.79334" lon="3.46933">
        <ele>760</ele>
        <time>2014-09-28T11:08:06Z</time>
      </trkpt>
      <trkpt lat="43.79343" lon="3.46937">
        <ele>761</ele>
        <time>2014-09-28T11:08:15Z</time>
      </trkpt>
      <trkpt lat="43.79344" lon="3.46937">
        <ele>761</ele>
        <time>2014-09-28T11:08:16Z</time>
      </trkpt>
      <trkpt lat="43.79353" lon="3.46941">
        <ele>765</ele>
        <time>2014-09-28T11:08:27Z</time>
      </trkpt>
      <trkpt lat="43.79359" lon="3.46949">
        <ele>767</ele>
        <time>2014-09-28T11:08:39Z</time>
      </trkpt>
      <trkpt lat="43.79367" lon="3.46964">
        <ele>773</ele>
        <time>2014-09-28T11:09:17Z</time>
      </trkpt>
      <trkpt lat="43.79368" lon="3.46964">
        <ele>774</ele>
        <time>2014-09-28T11:09:18Z</time>
      </trkpt>
      <trkpt lat="43.79368" lon="3.46963">
        <ele>773</ele>
        <time>2014-09-28T11:09:21Z</time>
      </trkpt>
      <trkpt lat="43.79367" lon="3.46975">
        <ele>773</ele>
        <time>2014-09-28T11:09:32Z</time>
      </trkpt>
      <trkpt lat="43.79367" lon="3.46976">
        <ele>773</ele>
        <time>2014-09-28T11:09:33Z</time>
      </trkpt>
      <trkpt lat="43.79366" lon="3.46989">
        <ele>772</ele>
        <time>2014-09-28T11:09:42Z</time>
      </trkpt>
      <trkpt lat="43.79361" lon="3.46999">
        <ele>773</ele>
        <time>2014-09-28T11:09:51Z</time>
      </trkpt>
      <trkpt lat="43.79362" lon="3.47011">
        <ele>771</ele>
        <time>2014-09-28T11:10:01Z</time>
      </trkpt>
      <trkpt lat="43.79363" lon="3.47012">
        <ele>771</ele>
        <time>2014-09-28T11:10:02Z</time>
      </trkpt>
      <trkpt lat="43.79372" lon="3.47017">
        <ele>772</ele>
        <time>2014-09-28T11:10:14Z</time>
      </trkpt>
      <trkpt lat="43.79375" lon="3.47016">
        <ele>772</ele>
        <time>2014-09-28T11:10:45Z</time>
      </trkpt>
      <trkpt lat="43.79375" lon="3.47016">
        <ele>773</ele>
        <time>2014-09-28T11:10:46Z</time>
      </trkpt>
      <trkpt lat="43.79384" lon="3.47016">
        <ele>775</ele>
        <time>2014-09-28T11:11:00Z</time>
      </trkpt>
      <trkpt lat="43.79393" lon="3.47014">
        <ele>778</ele>
        <time>2014-09-28T11:11:12Z</time>
      </trkpt>
      <trkpt lat="43.79402" lon="3.47017">
        <ele>776</ele>
        <time>2014-09-28T11:11:21Z</time>
      </trkpt>
      <trkpt lat="43.79412" lon="3.47017">
        <ele>779</ele>
        <time>2014-09-28T11:11:31Z</time>
      </trkpt>
      <trkpt lat="43.79432" lon="3.47018">
        <ele>780</ele>
        <time>2014-09-28T11:11:53Z</time>
      </trkpt>
      <trkpt lat="43.7944" lon="3.47017">
        <ele>782</ele>
        <time>2014-09-28T11:12:02Z</time>
      </trkpt>
      <trkpt lat="43.79449" lon="3.47021">
        <ele>785</ele>
        <time>2014-09-28T11:12:12Z</time>
      </trkpt>
      <trkpt lat="43.79462" lon="3.47032">
        <ele>780</ele>
        <time>2014-09-28T11:12:31Z</time>
      </trkpt>
      <trkpt lat="43.79464" lon="3.47035">
        <ele>782</ele>
        <time>2014-09-28T11:12:35Z</time>
      </trkpt>
      <trkpt lat="43.79458" lon="3.47044">
        <ele>782</ele>
        <time>2014-09-28T11:12:56Z</time>
      </trkpt>
      <trkpt lat="43.79449" lon="3.47049">
        <ele>781</ele>
        <time>2014-09-28T11:13:09Z</time>
      </trkpt>
      <trkpt lat="43.79448" lon="3.47049">
        <ele>782</ele>
        <time>2014-09-28T11:13:10Z</time>
      </trkpt>
      <trkpt lat="43.79439" lon="3.47051">
        <ele>781</ele>
        <time>2014-09-28T11:13:22Z</time>
      </trkpt>
      <trkpt lat="43.79439" lon="3.47052">
        <ele>780</ele>
        <time>2014-09-28T11:13:23Z</time>
      </trkpt>
      <trkpt lat="43.7943" lon="3.47054">
        <ele>777</ele>
        <time>2014-09-28T11:13:34Z</time>
      </trkpt>
      <trkpt lat="43.7942" lon="3.4705">
        <ele>779</ele>
        <time>2014-09-28T11:13:45Z</time>
      </trkpt>
      <trkpt lat="43.79403" lon="3.47044">
        <ele>775</ele>
        <time>2014-09-28T11:13:59Z</time>
      </trkpt>
      <trkpt lat="43.79395" lon="3.47036">
        <ele>774</ele>
        <time>2014-09-28T11:14:07Z</time>
      </trkpt>
      <trkpt lat="43.79386" lon="3.47027">
        <ele>773</ele>
        <time>2014-09-28T11:14:19Z</time>
      </trkpt>
      <trkpt lat="43.79378" lon="3.47022">
        <ele>770</ele>
        <time>2014-09-28T11:14:30Z</time>
      </trkpt>
      <trkpt lat="43.79376" lon="3.47021">
        <ele>773</ele>
        <time>2014-09-28T11:14:35Z</time>
      </trkpt>
      <trkpt lat="43.79376" lon="3.47022">
        <ele>773</ele>
        <time>2014-09-28T11:14:38Z</time>
      </trkpt>
      <trkpt lat="43.79367" lon="3.47019">
        <ele>772</ele>
        <time>2014-09-28T11:14:52Z</time>
      </trkpt>
      <trkpt lat="43.79367" lon="3.47019">
        <ele>773</ele>
        <time>2014-09-28T11:14:53Z</time>
      </trkpt>
      <trkpt lat="43.7936" lon="3.47028">
        <ele>774</ele>
        <time>2014-09-28T11:15:08Z</time>
      </trkpt>
      <trkpt lat="43.79352" lon="3.47033">
        <ele>774</ele>
        <time>2014-09-28T11:15:18Z</time>
      </trkpt>
      <trkpt lat="43.79337" lon="3.47048">
        <ele>774</ele>
        <time>2014-09-28T11:15:40Z</time>
      </trkpt>
      <trkpt lat="43.79329" lon="3.47058">
        <ele>773</ele>
        <time>2014-09-28T11:15:51Z</time>
      </trkpt>
      <trkpt lat="43.79321" lon="3.47064">
        <ele>773</ele>
        <time>2014-09-28T11:16:01Z</time>
      </trkpt>
      <trkpt lat="43.79313" lon="3.47071">
        <ele>771</ele>
        <time>2014-09-28T11:16:10Z</time>
      </trkpt>
      <trkpt lat="43.79304" lon="3.47077">
        <ele>774</ele>
        <time>2014-09-28T11:16:23Z</time>
      </trkpt>
      <trkpt lat="43.79298" lon="3.47088">
        <ele>770</ele>
        <time>2014-09-28T11:16:34Z</time>
      </trkpt>
      <trkpt lat="43.79292" lon="3.47096">
        <ele>773</ele>
        <time>2014-09-28T11:16:44Z</time>
      </trkpt>
      <trkpt lat="43.79291" lon="3.47096">
        <ele>774</ele>
        <time>2014-09-28T11:16:45Z</time>
      </trkpt>
      <trkpt lat="43.79277" lon="3.47112">
        <ele>771</ele>
        <time>2014-09-28T11:17:03Z</time>
      </trkpt>
      <trkpt lat="43.79277" lon="3.47113">
        <ele>771</ele>
        <time>2014-09-28T11:17:04Z</time>
      </trkpt>
      <trkpt lat="43.7927" lon="3.47119">
        <ele>773</ele>
        <time>2014-09-28T11:17:12Z</time>
      </trkpt>
      <trkpt lat="43.79268" lon="3.47119">
        <ele>773</ele>
        <time>2014-09-28T11:17:13Z</time>
      </trkpt>
      <trkpt lat="43.79252" lon="3.47132">
        <ele>767</ele>
        <time>2014-09-28T11:17:36Z</time>
      </trkpt>
      <trkpt lat="43.79244" lon="3.47135">
        <ele>767</ele>
        <time>2014-09-28T11:17:46Z</time>
      </trkpt>
      <trkpt lat="43.79236" lon="3.47143">
        <ele>768</ele>
        <time>2014-09-28T11:17:58Z</time>
      </trkpt>
      <trkpt lat="43.79229" lon="3.47151">
        <ele>768</ele>
        <time>2014-09-28T11:18:09Z</time>
      </trkpt>
      <trkpt lat="43.79222" lon="3.47158">
        <ele>767</ele>
        <time>2014-09-28T11:18:18Z</time>
      </trkpt>
      <trkpt lat="43.79214" lon="3.47164">
        <ele>769</ele>
        <time>2014-09-28T11:18:28Z</time>
      </trkpt>
      <trkpt lat="43.79205" lon="3.47166">
        <ele>766</ele>
        <time>2014-09-28T11:18:39Z</time>
      </trkpt>
      <trkpt lat="43.79203" lon="3.47168">
        <ele>767</ele>
        <time>2014-09-28T11:18:43Z</time>
      </trkpt>
      <trkpt lat="43.79197" lon="3.47177">
        <ele>765</ele>
        <time>2014-09-28T11:18:51Z</time>
      </trkpt>
      <trkpt lat="43.79197" lon="3.47178">
        <ele>766</ele>
        <time>2014-09-28T11:18:52Z</time>
      </trkpt>
      <trkpt lat="43.79191" lon="3.47187">
        <ele>765</ele>
        <time>2014-09-28T11:19:02Z</time>
      </trkpt>
      <trkpt lat="43.79193" lon="3.472">
        <ele>762</ele>
        <time>2014-09-28T11:19:10Z</time>
      </trkpt>
      <trkpt lat="43.79194" lon="3.47202">
        <ele>761</ele>
        <time>2014-09-28T11:19:11Z</time>
      </trkpt>
      <trkpt lat="43.79201" lon="3.47209">
        <ele>761</ele>
        <time>2014-09-28T11:19:19Z</time>
      </trkpt>
      <trkpt lat="43.79207" lon="3.47217">
        <ele>763</ele>
        <time>2014-09-28T11:19:27Z</time>
      </trkpt>
      <trkpt lat="43.79215" lon="3.47226">
        <ele>764</ele>
        <time>2014-09-28T11:19:35Z</time>
      </trkpt>
      <trkpt lat="43.79215" lon="3.47227">
        <ele>764</ele>
        <time>2014-09-28T11:19:36Z</time>
      </trkpt>
      <trkpt lat="43.79221" lon="3.47234">
        <ele>763</ele>
        <time>2014-09-28T11:19:45Z</time>
      </trkpt>
      <trkpt lat="43.79227" lon="3.47246">
        <ele>764</ele>
        <time>2014-09-28T11:19:55Z</time>
      </trkpt>
      <trkpt lat="43.79239" lon="3.47264">
        <ele>765</ele>
        <time>2014-09-28T11:20:14Z</time>
      </trkpt>
      <trkpt lat="43.7924" lon="3.47265">
        <ele>765</ele>
        <time>2014-09-28T11:20:15Z</time>
      </trkpt>
      <trkpt lat="43.79246" lon="3.47273">
        <ele>765</ele>
        <time>2014-09-28T11:20:23Z</time>
      </trkpt>
      <trkpt lat="43.79251" lon="3.47285">
        <ele>766</ele>
        <time>2014-09-28T11:20:32Z</time>
      </trkpt>
      <trkpt lat="43.79254" lon="3.47297">
        <ele>765</ele>
        <time>2014-09-28T11:20:41Z</time>
      </trkpt>
      <trkpt lat="43.79258" lon="3.47309">
        <ele>766</ele>
        <time>2014-09-28T11:20:51Z</time>
      </trkpt>
      <trkpt lat="43.7926" lon="3.47321">
        <ele>769</ele>
        <time>2014-09-28T11:21:01Z</time>
      </trkpt>
      <trkpt lat="43.7926" lon="3.47334">
        <ele>770</ele>
        <time>2014-09-28T11:21:14Z</time>
      </trkpt>
      <trkpt lat="43.79259" lon="3.47346">
        <ele>768</ele>
        <time>2014-09-28T11:21:28Z</time>
      </trkpt>
      <trkpt lat="43.79257" lon="3.47359">
        <ele>771</ele>
        <time>2014-09-28T11:21:39Z</time>
      </trkpt>
      <trkpt lat="43.79257" lon="3.4736">
        <ele>772</ele>
        <time>2014-09-28T11:21:40Z</time>
      </trkpt>
      <trkpt lat="43.79256" lon="3.47372">
        <ele>772</ele>
        <time>2014-09-28T11:21:50Z</time>
      </trkpt>
      <trkpt lat="43.79258" lon="3.474">
        <ele>768</ele>
        <time>2014-09-28T11:22:17Z</time>
      </trkpt>
      <trkpt lat="43.7926" lon="3.47411">
        <ele>768</ele>
        <time>2014-09-28T11:22:28Z</time>
      </trkpt>
      <trkpt lat="43.7926" lon="3.47413">
        <ele>768</ele>
        <time>2014-09-28T11:22:29Z</time>
      </trkpt>
      <trkpt lat="43.79258" lon="3.47424">
        <ele>766</ele>
        <time>2014-09-28T11:22:41Z</time>
      </trkpt>
      <trkpt lat="43.79258" lon="3.47437">
        <ele>767</ele>
        <time>2014-09-28T11:22:56Z</time>
      </trkpt>
      <trkpt lat="43.79257" lon="3.47438">
        <ele>767</ele>
        <time>2014-09-28T11:22:57Z</time>
      </trkpt>
      <trkpt lat="43.79258" lon="3.47449">
        <ele>768</ele>
        <time>2014-09-28T11:23:06Z</time>
      </trkpt>
      <trkpt lat="43.79257" lon="3.47451">
        <ele>766</ele>
        <time>2014-09-28T11:23:07Z</time>
      </trkpt>
      <trkpt lat="43.79257" lon="3.47464">
        <ele>768</ele>
        <time>2014-09-28T11:23:16Z</time>
      </trkpt>
      <trkpt lat="43.79261" lon="3.47476">
        <ele>769</ele>
        <time>2014-09-28T11:23:30Z</time>
      </trkpt>
      <trkpt lat="43.79266" lon="3.47486">
        <ele>767</ele>
        <time>2014-09-28T11:23:39Z</time>
      </trkpt>
      <trkpt lat="43.79273" lon="3.47494">
        <ele>765</ele>
        <time>2014-09-28T11:23:50Z</time>
      </trkpt>
      <trkpt lat="43.79273" lon="3.47496">
        <ele>767</ele>
        <time>2014-09-28T11:23:51Z</time>
      </trkpt>
      <trkpt lat="43.79278" lon="3.47507">
        <ele>764</ele>
        <time>2014-09-28T11:24:01Z</time>
      </trkpt>
      <trkpt lat="43.79281" lon="3.47517">
        <ele>764</ele>
        <time>2014-09-28T11:24:10Z</time>
      </trkpt>
      <trkpt lat="43.79287" lon="3.47527">
        <ele>763</ele>
        <time>2014-09-28T11:24:18Z</time>
      </trkpt>
      <trkpt lat="43.79291" lon="3.47541">
        <ele>764</ele>
        <time>2014-09-28T11:24:29Z</time>
      </trkpt>
      <trkpt lat="43.79308" lon="3.47573">
        <ele>758</ele>
        <time>2014-09-28T11:24:55Z</time>
      </trkpt>
      <trkpt lat="43.79315" lon="3.47583">
        <ele>757</ele>
        <time>2014-09-28T11:25:07Z</time>
      </trkpt>
      <trkpt lat="43.79318" lon="3.47594">
        <ele>757</ele>
        <time>2014-09-28T11:25:18Z</time>
      </trkpt>
      <trkpt lat="43.79318" lon="3.47595">
        <ele>757</ele>
        <time>2014-09-28T11:25:19Z</time>
      </trkpt>
      <trkpt lat="43.79322" lon="3.47607">
        <ele>754</ele>
        <time>2014-09-28T11:25:28Z</time>
      </trkpt>
      <trkpt lat="43.79327" lon="3.47616">
        <ele>751</ele>
        <time>2014-09-28T11:25:36Z</time>
      </trkpt>
      <trkpt lat="43.79342" lon="3.47634">
        <ele>749</ele>
        <time>2014-09-28T11:25:56Z</time>
      </trkpt>
      <trkpt lat="43.79346" lon="3.47645">
        <ele>746</ele>
        <time>2014-09-28T11:26:08Z</time>
      </trkpt>
      <trkpt lat="43.79352" lon="3.47656">
        <ele>752</ele>
        <time>2014-09-28T11:26:19Z</time>
      </trkpt>
      <trkpt lat="43.79358" lon="3.47665">
        <ele>751</ele>
        <time>2014-09-28T11:26:32Z</time>
      </trkpt>
      <trkpt lat="43.79363" lon="3.47676">
        <ele>748</ele>
        <time>2014-09-28T11:26:42Z</time>
      </trkpt>
      <trkpt lat="43.7937" lon="3.47686">
        <ele>748</ele>
        <time>2014-09-28T11:26:53Z</time>
      </trkpt>
      <trkpt lat="43.79374" lon="3.47697">
        <ele>746</ele>
        <time>2014-09-28T11:27:03Z</time>
      </trkpt>
      <trkpt lat="43.79378" lon="3.47709">
        <ele>743</ele>
        <time>2014-09-28T11:27:13Z</time>
      </trkpt>
      <trkpt lat="43.79384" lon="3.47716">
        <ele>745</ele>
        <time>2014-09-28T11:27:28Z</time>
      </trkpt>
      <trkpt lat="43.79394" lon="3.4772">
        <ele>744</ele>
        <time>2014-09-28T11:27:37Z</time>
      </trkpt>
      <trkpt lat="43.794" lon="3.47728">
        <ele>740</ele>
        <time>2014-09-28T11:27:47Z</time>
      </trkpt>
      <trkpt lat="43.79401" lon="3.47729">
        <ele>740</ele>
        <time>2014-09-28T11:27:48Z</time>
      </trkpt>
      <trkpt lat="43.79406" lon="3.47739">
        <ele>738</ele>
        <time>2014-09-28T11:28:04Z</time>
      </trkpt>
      <trkpt lat="43.79406" lon="3.4774">
        <ele>738</ele>
        <time>2014-09-28T11:28:05Z</time>
      </trkpt>
      <trkpt lat="43.7941" lon="3.47743">
        <ele>736</ele>
        <time>2014-09-28T11:28:19Z</time>
      </trkpt>
      <trkpt lat="43.79415" lon="3.47754">
        <ele>737</ele>
        <time>2014-09-28T11:28:31Z</time>
      </trkpt>
      <trkpt lat="43.79423" lon="3.47762">
        <ele>736</ele>
        <time>2014-09-28T11:28:45Z</time>
      </trkpt>
      <trkpt lat="43.79435" lon="3.47781">
        <ele>730</ele>
        <time>2014-09-28T11:29:07Z</time>
      </trkpt>
      <trkpt lat="43.79439" lon="3.47793">
        <ele>730</ele>
        <time>2014-09-28T11:29:17Z</time>
      </trkpt>
      <trkpt lat="43.79442" lon="3.47804">
        <ele>726</ele>
        <time>2014-09-28T11:29:27Z</time>
      </trkpt>
      <trkpt lat="43.79443" lon="3.47805">
        <ele>726</ele>
        <time>2014-09-28T11:29:28Z</time>
      </trkpt>
      <trkpt lat="43.79449" lon="3.47813">
        <ele>724</ele>
        <time>2014-09-28T11:29:39Z</time>
      </trkpt>
      <trkpt lat="43.79451" lon="3.47827">
        <ele>725</ele>
        <time>2014-09-28T11:29:50Z</time>
      </trkpt>
      <trkpt lat="43.79456" lon="3.47836">
        <ele>724</ele>
        <time>2014-09-28T11:29:57Z</time>
      </trkpt>
      <trkpt lat="43.79457" lon="3.47838">
        <ele>724</ele>
        <time>2014-09-28T11:29:58Z</time>
      </trkpt>
      <trkpt lat="43.7946" lon="3.47851">
        <ele>725</ele>
        <time>2014-09-28T11:30:08Z</time>
      </trkpt>
      <trkpt lat="43.79465" lon="3.47861">
        <ele>725</ele>
        <time>2014-09-28T11:30:15Z</time>
      </trkpt>
      <trkpt lat="43.79468" lon="3.47875">
        <ele>728</ele>
        <time>2014-09-28T11:30:27Z</time>
      </trkpt>
      <trkpt lat="43.79472" lon="3.47887">
        <ele>728</ele>
        <time>2014-09-28T11:30:40Z</time>
      </trkpt>
      <trkpt lat="43.79472" lon="3.47895">
        <ele>731</ele>
        <time>2014-09-28T11:30:59Z</time>
      </trkpt>
      <trkpt lat="43.79475" lon="3.47899">
        <ele>733</ele>
        <time>2014-09-28T11:31:04Z</time>
      </trkpt>
      <trkpt lat="43.7948" lon="3.47923">
        <ele>737</ele>
        <time>2014-09-28T11:31:30Z</time>
      </trkpt>
      <trkpt lat="43.79484" lon="3.47936">
        <ele>739</ele>
        <time>2014-09-28T11:31:44Z</time>
      </trkpt>
      <trkpt lat="43.79486" lon="3.47947">
        <ele>741</ele>
        <time>2014-09-28T11:31:56Z</time>
      </trkpt>
      <trkpt lat="43.79493" lon="3.47957">
        <ele>742</ele>
        <time>2014-09-28T11:32:08Z</time>
      </trkpt>
      <trkpt lat="43.79497" lon="3.47968">
        <ele>744</ele>
        <time>2014-09-28T11:32:21Z</time>
      </trkpt>
      <trkpt lat="43.79499" lon="3.47982">
        <ele>744</ele>
        <time>2014-09-28T11:32:34Z</time>
      </trkpt>
      <trkpt lat="43.79506" lon="3.48006">
        <ele>747</ele>
        <time>2014-09-28T11:32:59Z</time>
      </trkpt>
      <trkpt lat="43.79513" lon="3.48014">
        <ele>748</ele>
        <time>2014-09-28T11:33:16Z</time>
      </trkpt>
      <trkpt lat="43.7952" lon="3.48025">
        <ele>749</ele>
        <time>2014-09-28T11:33:28Z</time>
      </trkpt>
      <trkpt lat="43.79524" lon="3.48037">
        <ele>751</ele>
        <time>2014-09-28T11:33:39Z</time>
      </trkpt>
      <trkpt lat="43.79526" lon="3.48049">
        <ele>750</ele>
        <time>2014-09-28T11:33:51Z</time>
      </trkpt>
      <trkpt lat="43.79531" lon="3.4806">
        <ele>754</ele>
        <time>2014-09-28T11:34:04Z</time>
      </trkpt>
      <trkpt lat="43.79538" lon="3.48068">
        <ele>753</ele>
        <time>2014-09-28T11:34:16Z</time>
      </trkpt>
      <trkpt lat="43.79542" lon="3.4808">
        <ele>754</ele>
        <time>2014-09-28T11:34:30Z</time>
      </trkpt>
      <trkpt lat="43.79547" lon="3.4809">
        <ele>755</ele>
        <time>2014-09-28T11:34:40Z</time>
      </trkpt>
      <trkpt lat="43.7955" lon="3.48098">
        <ele>756</ele>
        <time>2014-09-28T11:34:53Z</time>
      </trkpt>
      <trkpt lat="43.79558" lon="3.4811">
        <ele>757</ele>
        <time>2014-09-28T11:35:07Z</time>
      </trkpt>
      <trkpt lat="43.79558" lon="3.48111">
        <ele>757</ele>
        <time>2014-09-28T11:35:08Z</time>
      </trkpt>
      <trkpt lat="43.79565" lon="3.48119">
        <ele>758</ele>
        <time>2014-09-28T11:35:21Z</time>
      </trkpt>
      <trkpt lat="43.79569" lon="3.48129">
        <ele>760</ele>
        <time>2014-09-28T11:35:33Z</time>
      </trkpt>
      <trkpt lat="43.7957" lon="3.4813">
        <ele>760</ele>
        <time>2014-09-28T11:35:34Z</time>
      </trkpt>
      <trkpt lat="43.79577" lon="3.48138">
        <ele>759</ele>
        <time>2014-09-28T11:35:45Z</time>
      </trkpt>
      <trkpt lat="43.79578" lon="3.48138">
        <ele>760</ele>
        <time>2014-09-28T11:35:46Z</time>
      </trkpt>
      <trkpt lat="43.79586" lon="3.48143">
        <ele>761</ele>
        <time>2014-09-28T11:35:54Z</time>
      </trkpt>
      <trkpt lat="43.796" lon="3.48158">
        <ele>764</ele>
        <time>2014-09-28T11:36:20Z</time>
      </trkpt>
      <trkpt lat="43.79602" lon="3.48161">
        <ele>765</ele>
        <time>2014-09-28T11:36:24Z</time>
      </trkpt>
      <trkpt lat="43.79608" lon="3.48169">
        <ele>765</ele>
        <time>2014-09-28T11:36:36Z</time>
      </trkpt>
      <trkpt lat="43.79608" lon="3.4817">
        <ele>765</ele>
        <time>2014-09-28T11:36:37Z</time>
      </trkpt>
      <trkpt lat="43.79615" lon="3.48178">
        <ele>769</ele>
        <time>2014-09-28T11:36:48Z</time>
      </trkpt>
      <trkpt lat="43.79621" lon="3.48186">
        <ele>770</ele>
        <time>2014-09-28T11:37:00Z</time>
      </trkpt>
      <trkpt lat="43.79627" lon="3.48198">
        <ele>771</ele>
        <time>2014-09-28T11:37:13Z</time>
      </trkpt>
      <trkpt lat="43.79635" lon="3.48203">
        <ele>773</ele>
        <time>2014-09-28T11:37:30Z</time>
      </trkpt>
      <trkpt lat="43.79641" lon="3.48213">
        <ele>775</ele>
        <time>2014-09-28T11:37:42Z</time>
      </trkpt>
      <trkpt lat="43.79648" lon="3.4822">
        <ele>775</ele>
        <time>2014-09-28T11:37:53Z</time>
      </trkpt>
      <trkpt lat="43.79655" lon="3.48229">
        <ele>777</ele>
        <time>2014-09-28T11:38:04Z</time>
      </trkpt>
      <trkpt lat="43.79661" lon="3.48237">
        <ele>781</ele>
        <time>2014-09-28T11:38:21Z</time>
      </trkpt>
      <trkpt lat="43.79669" lon="3.48248">
        <ele>787</ele>
        <time>2014-09-28T11:38:49Z</time>
      </trkpt>
      <trkpt lat="43.79681" lon="3.4825">
        <ele>780</ele>
        <time>2014-09-28T11:39:13Z</time>
      </trkpt>
      <trkpt lat="43.79682" lon="3.48251">
        <ele>781</ele>
        <time>2014-09-28T11:39:14Z</time>
      </trkpt>
      <trkpt lat="43.7969" lon="3.48252">
        <ele>786</ele>
        <time>2014-09-28T11:39:29Z</time>
      </trkpt>
      <trkpt lat="43.79691" lon="3.48251">
        <ele>786</ele>
        <time>2014-09-28T11:39:30Z</time>
      </trkpt>
      <trkpt lat="43.797" lon="3.48252">
        <ele>786</ele>
        <time>2014-09-28T11:39:43Z</time>
      </trkpt>
      <trkpt lat="43.79709" lon="3.48256">
        <ele>790</ele>
        <time>2014-09-28T11:39:57Z</time>
      </trkpt>
      <trkpt lat="43.79718" lon="3.48256">
        <ele>796</ele>
        <time>2014-09-28T11:40:11Z</time>
      </trkpt>
      <trkpt lat="43.79726" lon="3.48249">
        <ele>795</ele>
        <time>2014-09-28T11:40:26Z</time>
      </trkpt>
      <trkpt lat="43.79735" lon="3.4825">
        <ele>796</ele>
        <time>2014-09-28T11:40:40Z</time>
      </trkpt>
      <trkpt lat="43.79744" lon="3.48251">
        <ele>798</ele>
        <time>2014-09-28T11:40:56Z</time>
      </trkpt>
      <trkpt lat="43.79751" lon="3.48241">
        <ele>797</ele>
        <time>2014-09-28T11:41:16Z</time>
      </trkpt>
      <trkpt lat="43.79752" lon="3.48241">
        <ele>800</ele>
        <time>2014-09-28T11:41:31Z</time>
      </trkpt>
      <trkpt lat="43.79753" lon="3.48241">
        <ele>798</ele>
        <time>2014-09-28T11:41:39Z</time>
      </trkpt>
      <trkpt lat="43.79753" lon="3.48241">
        <ele>798</ele>
        <time>2014-09-28T11:41:40Z</time>
      </trkpt>
      <trkpt lat="43.79753" lon="3.4824">
        <ele>800</ele>
        <time>2014-09-28T11:41:44Z</time>
      </trkpt>
      <trkpt lat="43.79755" lon="3.48237">
        <ele>806</ele>
        <time>2014-09-28T11:41:54Z</time>
      </trkpt>
      <trkpt lat="43.79757" lon="3.48232">
        <ele>804</ele>
        <time>2014-09-28T11:41:59Z</time>
      </trkpt>
      <trkpt lat="43.79764" lon="3.48225">
        <ele>807</ele>
        <time>2014-09-28T11:42:17Z</time>
      </trkpt>
      <trkpt lat="43.79773" lon="3.48227">
        <ele>805</ele>
        <time>2014-09-28T11:42:34Z</time>
      </trkpt>
      <trkpt lat="43.79781" lon="3.48233">
        <ele>806</ele>
        <time>2014-09-28T11:42:49Z</time>
      </trkpt>
      <trkpt lat="43.7979" lon="3.4823">
        <ele>813</ele>
        <time>2014-09-28T11:43:05Z</time>
      </trkpt>
      <trkpt lat="43.7979" lon="3.48229">
        <ele>813</ele>
        <time>2014-09-28T11:43:06Z</time>
      </trkpt>
      <trkpt lat="43.79793" lon="3.48217">
        <ele>813</ele>
        <time>2014-09-28T11:43:18Z</time>
      </trkpt>
      <trkpt lat="43.79792" lon="3.48206">
        <ele>818</ele>
        <time>2014-09-28T11:43:38Z</time>
      </trkpt>
      <trkpt lat="43.79793" lon="3.48206">
        <ele>817</ele>
        <time>2014-09-28T11:43:39Z</time>
      </trkpt>
      <trkpt lat="43.79793" lon="3.48203">
        <ele>814</ele>
        <time>2014-09-28T11:43:42Z</time>
      </trkpt>
      <trkpt lat="43.79797" lon="3.48192">
        <ele>817</ele>
        <time>2014-09-28T11:43:56Z</time>
      </trkpt>
      <trkpt lat="43.7981" lon="3.4818">
        <ele>822</ele>
        <time>2014-09-28T11:44:20Z</time>
      </trkpt>
      <trkpt lat="43.7981" lon="3.48179">
        <ele>823</ele>
        <time>2014-09-28T11:44:21Z</time>
      </trkpt>
      <trkpt lat="43.79821" lon="3.48174">
        <ele>823</ele>
        <time>2014-09-28T11:44:37Z</time>
      </trkpt>
      <trkpt lat="43.79829" lon="3.48175">
        <ele>823</ele>
        <time>2014-09-28T11:44:48Z</time>
      </trkpt>
      <trkpt lat="43.79839" lon="3.48171">
        <ele>822</ele>
        <time>2014-09-28T11:45:03Z</time>
      </trkpt>
      <trkpt lat="43.79847" lon="3.48172">
        <ele>826</ele>
        <time>2014-09-28T11:45:13Z</time>
      </trkpt>
      <trkpt lat="43.79855" lon="3.48176">
        <ele>824</ele>
        <time>2014-09-28T11:45:23Z</time>
      </trkpt>
      <trkpt lat="43.79857" lon="3.48175">
        <ele>825</ele>
        <time>2014-09-28T11:45:24Z</time>
      </trkpt>
      <trkpt lat="43.79866" lon="3.48176">
        <ele>822</ele>
        <time>2014-09-28T11:45:36Z</time>
      </trkpt>
      <trkpt lat="43.79874" lon="3.4818">
        <ele>822</ele>
        <time>2014-09-28T11:45:44Z</time>
      </trkpt>
      <trkpt lat="43.79884" lon="3.48182">
        <ele>819</ele>
        <time>2014-09-28T11:45:54Z</time>
      </trkpt>
      <trkpt lat="43.79895" lon="3.4818">
        <ele>815</ele>
        <time>2014-09-28T11:46:06Z</time>
      </trkpt>
      <trkpt lat="43.79903" lon="3.48179">
        <ele>811</ele>
        <time>2014-09-28T11:46:15Z</time>
      </trkpt>
      <trkpt lat="43.79912" lon="3.48184">
        <ele>812</ele>
        <time>2014-09-28T11:46:26Z</time>
      </trkpt>
      <trkpt lat="43.79922" lon="3.48184">
        <ele>818</ele>
        <time>2014-09-28T11:46:38Z</time>
      </trkpt>
      <trkpt lat="43.79933" lon="3.48179">
        <ele>824</ele>
        <time>2014-09-28T11:46:48Z</time>
      </trkpt>
      <trkpt lat="43.79941" lon="3.48178">
        <ele>823</ele>
        <time>2014-09-28T11:46:57Z</time>
      </trkpt>
      <trkpt lat="43.79952" lon="3.48175">
        <ele>822</ele>
        <time>2014-09-28T11:47:07Z</time>
      </trkpt>
      <trkpt lat="43.79972" lon="3.48177">
        <ele>816</ele>
        <time>2014-09-28T11:47:29Z</time>
      </trkpt>
      <trkpt lat="43.79978" lon="3.48168">
        <ele>809</ele>
        <time>2014-09-28T11:47:41Z</time>
      </trkpt>
      <trkpt lat="43.79978" lon="3.48168">
        <ele>811</ele>
        <time>2014-09-28T11:47:42Z</time>
      </trkpt>
      <trkpt lat="43.79995" lon="3.48156">
        <ele>817</ele>
        <time>2014-09-28T11:48:07Z</time>
      </trkpt>
      <trkpt lat="43.80003" lon="3.48152">
        <ele>819</ele>
        <time>2014-09-28T11:48:23Z</time>
      </trkpt>
      <trkpt lat="43.80012" lon="3.4815">
        <ele>814</ele>
        <time>2014-09-28T11:48:46Z</time>
      </trkpt>
      <trkpt lat="43.80013" lon="3.48151">
        <ele>815</ele>
        <time>2014-09-28T11:48:50Z</time>
      </trkpt>
      <trkpt lat="43.80015" lon="3.48152">
        <ele>811</ele>
        <time>2014-09-28T11:48:56Z</time>
      </trkpt>
      <trkpt lat="43.80017" lon="3.48151">
        <ele>810</ele>
        <time>2014-09-28T11:49:03Z</time>
      </trkpt>
      <trkpt lat="43.80019" lon="3.48149">
        <ele>811</ele>
        <time>2014-09-28T11:49:09Z</time>
      </trkpt>
      <trkpt lat="43.80021" lon="3.48151">
        <ele>811</ele>
        <time>2014-09-28T11:49:17Z</time>
      </trkpt>
      <trkpt lat="43.80025" lon="3.48153">
        <ele>808</ele>
        <time>2014-09-28T11:49:27Z</time>
      </trkpt>
      <trkpt lat="43.80026" lon="3.48155">
        <ele>807</ele>
        <time>2014-09-28T11:49:30Z</time>
      </trkpt>
      <trkpt lat="43.80033" lon="3.48162">
        <ele>803</ele>
        <time>2014-09-28T11:49:47Z</time>
      </trkpt>
      <trkpt lat="43.80033" lon="3.48163">
        <ele>803</ele>
        <time>2014-09-28T11:49:48Z</time>
      </trkpt>
      <trkpt lat="43.8005" lon="3.4817">
        <ele>796</ele>
        <time>2014-09-28T11:50:20Z</time>
      </trkpt>
      <trkpt lat="43.80058" lon="3.48177">
        <ele>794</ele>
        <time>2014-09-28T11:50:37Z</time>
      </trkpt>
      <trkpt lat="43.80075" lon="3.48184">
        <ele>787</ele>
        <time>2014-09-28T11:51:14Z</time>
      </trkpt>
      <trkpt lat="43.80075" lon="3.48185">
        <ele>788</ele>
        <time>2014-09-28T11:51:15Z</time>
      </trkpt>
      <trkpt lat="43.80073" lon="3.48196">
        <ele>790</ele>
        <time>2014-09-28T11:51:34Z</time>
      </trkpt>
      <trkpt lat="43.80075" lon="3.48198">
        <ele>786</ele>
        <time>2014-09-28T11:51:38Z</time>
      </trkpt>
      <trkpt lat="43.80084" lon="3.48198">
        <ele>784</ele>
        <time>2014-09-28T11:51:53Z</time>
      </trkpt>
      <trkpt lat="43.80086" lon="3.4821">
        <ele>783</ele>
        <time>2014-09-28T11:52:12Z</time>
      </trkpt>
      <trkpt lat="43.80085" lon="3.4821">
        <ele>783</ele>
        <time>2014-09-28T11:52:13Z</time>
      </trkpt>
      <trkpt lat="43.80093" lon="3.48216">
        <ele>778</ele>
        <time>2014-09-28T11:52:27Z</time>
      </trkpt>
      <trkpt lat="43.80093" lon="3.48217">
        <ele>778</ele>
        <time>2014-09-28T11:52:28Z</time>
      </trkpt>
      <trkpt lat="43.80101" lon="3.48221">
        <ele>778</ele>
        <time>2014-09-28T11:52:39Z</time>
      </trkpt>
      <trkpt lat="43.80102" lon="3.48221">
        <ele>778</ele>
        <time>2014-09-28T11:52:40Z</time>
      </trkpt>
      <trkpt lat="43.8011" lon="3.48226">
        <ele>776</ele>
        <time>2014-09-28T11:52:51Z</time>
      </trkpt>
      <trkpt lat="43.80111" lon="3.48226">
        <ele>776</ele>
        <time>2014-09-28T11:52:52Z</time>
      </trkpt>
      <trkpt lat="43.80126" lon="3.48235">
        <ele>769</ele>
        <time>2014-09-28T11:53:11Z</time>
      </trkpt>
      <trkpt lat="43.80136" lon="3.48241">
        <ele>769</ele>
        <time>2014-09-28T11:53:19Z</time>
      </trkpt>
      <trkpt lat="43.80137" lon="3.48241">
        <ele>770</ele>
        <time>2014-09-28T11:53:20Z</time>
      </trkpt>
      <trkpt lat="43.80144" lon="3.48247">
        <ele>773</ele>
        <time>2014-09-28T11:53:32Z</time>
      </trkpt>
      <trkpt lat="43.80144" lon="3.48249">
        <ele>772</ele>
        <time>2014-09-28T11:53:33Z</time>
      </trkpt>
      <trkpt lat="43.80152" lon="3.48255">
        <ele>775</ele>
        <time>2014-09-28T11:53:46Z</time>
      </trkpt>
      <trkpt lat="43.80167" lon="3.48271">
        <ele>776</ele>
        <time>2014-09-28T11:54:06Z</time>
      </trkpt>
      <trkpt lat="43.80174" lon="3.4828">
        <ele>777</ele>
        <time>2014-09-28T11:54:16Z</time>
      </trkpt>
      <trkpt lat="43.80175" lon="3.48281">
        <ele>776</ele>
        <time>2014-09-28T11:54:17Z</time>
      </trkpt>
      <trkpt lat="43.80181" lon="3.48289">
        <ele>776</ele>
        <time>2014-09-28T11:54:27Z</time>
      </trkpt>
      <trkpt lat="43.80188" lon="3.48296">
        <ele>779</ele>
        <time>2014-09-28T11:54:37Z</time>
      </trkpt>
      <trkpt lat="43.80188" lon="3.48298">
        <ele>779</ele>
        <time>2014-09-28T11:54:38Z</time>
      </trkpt>
      <trkpt lat="43.80195" lon="3.48305">
        <ele>775</ele>
        <time>2014-09-28T11:54:49Z</time>
      </trkpt>
      <trkpt lat="43.80196" lon="3.48307">
        <ele>774</ele>
        <time>2014-09-28T11:54:50Z</time>
      </trkpt>
      <trkpt lat="43.80202" lon="3.48316">
        <ele>775</ele>
        <time>2014-09-28T11:55:00Z</time>
      </trkpt>
      <trkpt lat="43.80209" lon="3.48324">
        <ele>778</ele>
        <time>2014-09-28T11:55:10Z</time>
      </trkpt>
      <trkpt lat="43.80213" lon="3.48336">
        <ele>777</ele>
        <time>2014-09-28T11:55:20Z</time>
      </trkpt>
      <trkpt lat="43.80214" lon="3.48337">
        <ele>776</ele>
        <time>2014-09-28T11:55:21Z</time>
      </trkpt>
      <trkpt lat="43.80222" lon="3.48343">
        <ele>779</ele>
        <time>2014-09-28T11:55:34Z</time>
      </trkpt>
      <trkpt lat="43.80227" lon="3.4835">
        <ele>787</ele>
        <time>2014-09-28T11:56:05Z</time>
      </trkpt>
      <trkpt lat="43.80227" lon="3.48349">
        <ele>786</ele>
        <time>2014-09-28T11:56:12Z</time>
      </trkpt>
      <trkpt lat="43.80234" lon="3.48356">
        <ele>782</ele>
        <time>2014-09-28T11:56:25Z</time>
      </trkpt>
      <trkpt lat="43.8024" lon="3.48365">
        <ele>785</ele>
        <time>2014-09-28T11:56:35Z</time>
      </trkpt>
      <trkpt lat="43.80246" lon="3.48377">
        <ele>783</ele>
        <time>2014-09-28T11:56:47Z</time>
      </trkpt>
      <trkpt lat="43.80252" lon="3.48386">
        <ele>783</ele>
        <time>2014-09-28T11:56:56Z</time>
      </trkpt>
      <trkpt lat="43.80258" lon="3.48395">
        <ele>783</ele>
        <time>2014-09-28T11:57:05Z</time>
      </trkpt>
      <trkpt lat="43.80264" lon="3.48405">
        <ele>784</ele>
        <time>2014-09-28T11:57:15Z</time>
      </trkpt>
      <trkpt lat="43.80273" lon="3.48414">
        <ele>785</ele>
        <time>2014-09-28T11:57:26Z</time>
      </trkpt>
      <trkpt lat="43.80277" lon="3.48423">
        <ele>784</ele>
        <time>2014-09-28T11:57:34Z</time>
      </trkpt>
      <trkpt lat="43.80286" lon="3.4843">
        <ele>783</ele>
        <time>2014-09-28T11:57:43Z</time>
      </trkpt>
      <trkpt lat="43.80294" lon="3.48439">
        <ele>784</ele>
        <time>2014-09-28T11:57:56Z</time>
      </trkpt>
      <trkpt lat="43.80301" lon="3.48445">
        <ele>781</ele>
        <time>2014-09-28T11:58:09Z</time>
      </trkpt>
      <trkpt lat="43.80309" lon="3.48454">
        <ele>782</ele>
        <time>2014-09-28T11:58:21Z</time>
      </trkpt>
      <trkpt lat="43.80317" lon="3.48462">
        <ele>781</ele>
        <time>2014-09-28T11:58:35Z</time>
      </trkpt>
      <trkpt lat="43.80325" lon="3.48468">
        <ele>782</ele>
        <time>2014-09-28T11:58:47Z</time>
      </trkpt>
      <trkpt lat="43.80348" lon="3.48492">
        <ele>782</ele>
        <time>2014-09-28T11:59:19Z</time>
      </trkpt>
      <trkpt lat="43.80355" lon="3.48499">
        <ele>781</ele>
        <time>2014-09-28T11:59:28Z</time>
      </trkpt>
      <trkpt lat="43.8037" lon="3.48516">
        <ele>779</ele>
        <time>2014-09-28T11:59:49Z</time>
      </trkpt>
      <trkpt lat="43.80376" lon="3.48524">
        <ele>777</ele>
        <time>2014-09-28T11:59:57Z</time>
      </trkpt>
      <trkpt lat="43.80384" lon="3.48533">
        <ele>777</ele>
        <time>2014-09-28T12:00:08Z</time>
      </trkpt>
      <trkpt lat="43.80391" lon="3.48541">
        <ele>779</ele>
        <time>2014-09-28T12:00:18Z</time>
      </trkpt>
      <trkpt lat="43.80399" lon="3.4855">
        <ele>783</ele>
        <time>2014-09-28T12:00:29Z</time>
      </trkpt>
      <trkpt lat="43.80404" lon="3.48561">
        <ele>783</ele>
        <time>2014-09-28T12:00:39Z</time>
      </trkpt>
      <trkpt lat="43.80411" lon="3.4857">
        <ele>783</ele>
        <time>2014-09-28T12:00:49Z</time>
      </trkpt>
      <trkpt lat="43.80415" lon="3.4858">
        <ele>784</ele>
        <time>2014-09-28T12:00:59Z</time>
      </trkpt>
      <trkpt lat="43.80423" lon="3.48604">
        <ele>786</ele>
        <time>2014-09-28T12:01:22Z</time>
      </trkpt>
      <trkpt lat="43.80428" lon="3.48615">
        <ele>786</ele>
        <time>2014-09-28T12:01:31Z</time>
      </trkpt>
      <trkpt lat="43.80433" lon="3.48625">
        <ele>785</ele>
        <time>2014-09-28T12:01:40Z</time>
      </trkpt>
      <trkpt lat="43.80446" lon="3.48643">
        <ele>785</ele>
        <time>2014-09-28T12:01:59Z</time>
      </trkpt>
      <trkpt lat="43.80453" lon="3.48651">
        <ele>785</ele>
        <time>2014-09-28T12:02:08Z</time>
      </trkpt>
      <trkpt lat="43.80461" lon="3.48659">
        <ele>786</ele>
        <time>2014-09-28T12:02:18Z</time>
      </trkpt>
      <trkpt lat="43.80477" lon="3.48673">
        <ele>786</ele>
        <time>2014-09-28T12:02:42Z</time>
      </trkpt>
      <trkpt lat="43.80493" lon="3.48688">
        <ele>789</ele>
        <time>2014-09-28T12:02:58Z</time>
      </trkpt>
      <trkpt lat="43.805" lon="3.48697">
        <ele>788</ele>
        <time>2014-09-28T12:03:07Z</time>
      </trkpt>
      <trkpt lat="43.80506" lon="3.48703">
        <ele>790</ele>
        <time>2014-09-28T12:03:14Z</time>
      </trkpt>
      <trkpt lat="43.80514" lon="3.48712">
        <ele>788</ele>
        <time>2014-09-28T12:03:23Z</time>
      </trkpt>
      <trkpt lat="43.80521" lon="3.48723">
        <ele>788</ele>
        <time>2014-09-28T12:03:35Z</time>
      </trkpt>
      <trkpt lat="43.80537" lon="3.48755">
        <ele>788</ele>
        <time>2014-09-28T12:04:00Z</time>
      </trkpt>
      <trkpt lat="43.80541" lon="3.48766">
        <ele>788</ele>
        <time>2014-09-28T12:04:09Z</time>
      </trkpt>
      <trkpt lat="43.80545" lon="3.48778">
        <ele>786</ele>
        <time>2014-09-28T12:04:18Z</time>
      </trkpt>
      <trkpt lat="43.80546" lon="3.4879">
        <ele>784</ele>
        <time>2014-09-28T12:04:28Z</time>
      </trkpt>
      <trkpt lat="43.80546" lon="3.48791">
        <ele>784</ele>
        <time>2014-09-28T12:04:29Z</time>
      </trkpt>
      <trkpt lat="43.80548" lon="3.48803">
        <ele>783</ele>
        <time>2014-09-28T12:04:38Z</time>
      </trkpt>
      <trkpt lat="43.80548" lon="3.48817">
        <ele>780</ele>
        <time>2014-09-28T12:04:49Z</time>
      </trkpt>
      <trkpt lat="43.80546" lon="3.48829">
        <ele>783</ele>
        <time>2014-09-28T12:05:01Z</time>
      </trkpt>
      <trkpt lat="43.80546" lon="3.48841">
        <ele>782</ele>
        <time>2014-09-28T12:05:12Z</time>
      </trkpt>
      <trkpt lat="43.8055" lon="3.48856">
        <ele>782</ele>
        <time>2014-09-28T12:05:21Z</time>
      </trkpt>
      <trkpt lat="43.80559" lon="3.48877">
        <ele>785</ele>
        <time>2014-09-28T12:05:41Z</time>
      </trkpt>
      <trkpt lat="43.80563" lon="3.48888">
        <ele>788</ele>
        <time>2014-09-28T12:05:53Z</time>
      </trkpt>
      <trkpt lat="43.80563" lon="3.48902">
        <ele>788</ele>
        <time>2014-09-28T12:06:07Z</time>
      </trkpt>
      <trkpt lat="43.80568" lon="3.48926">
        <ele>792</ele>
        <time>2014-09-28T12:06:29Z</time>
      </trkpt>
      <trkpt lat="43.80571" lon="3.48953">
        <ele>793</ele>
        <time>2014-09-28T12:06:55Z</time>
      </trkpt>
      <trkpt lat="43.80571" lon="3.48964">
        <ele>791</ele>
        <time>2014-09-28T12:07:05Z</time>
      </trkpt>
      <trkpt lat="43.80572" lon="3.48976">
        <ele>794</ele>
        <time>2014-09-28T12:07:19Z</time>
      </trkpt>
      <trkpt lat="43.80572" lon="3.48989">
        <ele>795</ele>
        <time>2014-09-28T12:07:30Z</time>
      </trkpt>
      <trkpt lat="43.80576" lon="3.49002">
        <ele>794</ele>
        <time>2014-09-28T12:07:44Z</time>
      </trkpt>
      <trkpt lat="43.80578" lon="3.49026">
        <ele>799</ele>
        <time>2014-09-28T12:08:13Z</time>
      </trkpt>
      <trkpt lat="43.80578" lon="3.49027">
        <ele>799</ele>
        <time>2014-09-28T12:08:14Z</time>
      </trkpt>
      <trkpt lat="43.8058" lon="3.49041">
        <ele>801</ele>
        <time>2014-09-28T12:08:26Z</time>
      </trkpt>
      <trkpt lat="43.80584" lon="3.49051">
        <ele>802</ele>
        <time>2014-09-28T12:08:39Z</time>
      </trkpt>
      <trkpt lat="43.80582" lon="3.49063">
        <ele>802</ele>
        <time>2014-09-28T12:08:53Z</time>
      </trkpt>
      <trkpt lat="43.80586" lon="3.49076">
        <ele>805</ele>
        <time>2014-09-28T12:09:05Z</time>
      </trkpt>
      <trkpt lat="43.80591" lon="3.49101">
        <ele>808</ele>
        <time>2014-09-28T12:09:30Z</time>
      </trkpt>
      <trkpt lat="43.80596" lon="3.49113">
        <ele>810</ele>
        <time>2014-09-28T12:09:41Z</time>
      </trkpt>
      <trkpt lat="43.80599" lon="3.49128">
        <ele>814</ele>
        <time>2014-09-28T12:09:58Z</time>
      </trkpt>
      <trkpt lat="43.80604" lon="3.49138">
        <ele>811</ele>
        <time>2014-09-28T12:10:13Z</time>
      </trkpt>
      <trkpt lat="43.80606" lon="3.49151">
        <ele>812</ele>
        <time>2014-09-28T12:10:24Z</time>
      </trkpt>
      <trkpt lat="43.80606" lon="3.49164">
        <ele>812</ele>
        <time>2014-09-28T12:10:35Z</time>
      </trkpt>
      <trkpt lat="43.80606" lon="3.49176">
        <ele>813</ele>
        <time>2014-09-28T12:10:46Z</time>
      </trkpt>
      <trkpt lat="43.80614" lon="3.49201">
        <ele>813</ele>
        <time>2014-09-28T12:11:07Z</time>
      </trkpt>
      <trkpt lat="43.80616" lon="3.49214">
        <ele>813</ele>
        <time>2014-09-28T12:11:17Z</time>
      </trkpt>
      <trkpt lat="43.80618" lon="3.49226">
        <ele>810</ele>
        <time>2014-09-28T12:11:28Z</time>
      </trkpt>
      <trkpt lat="43.80625" lon="3.49237">
        <ele>812</ele>
        <time>2014-09-28T12:11:40Z</time>
      </trkpt>
      <trkpt lat="43.8063" lon="3.49247">
        <ele>814</ele>
        <time>2014-09-28T12:11:47Z</time>
      </trkpt>
      <trkpt lat="43.80634" lon="3.49258">
        <ele>818</ele>
        <time>2014-09-28T12:11:57Z</time>
      </trkpt>
      <trkpt lat="43.80634" lon="3.4926">
        <ele>819</ele>
        <time>2014-09-28T12:11:58Z</time>
      </trkpt>
      <trkpt lat="43.80638" lon="3.49272">
        <ele>814</ele>
        <time>2014-09-28T12:12:08Z</time>
      </trkpt>
      <trkpt lat="43.80643" lon="3.49282">
        <ele>812</ele>
        <time>2014-09-28T12:12:18Z</time>
      </trkpt>
      <trkpt lat="43.80648" lon="3.49294">
        <ele>811</ele>
        <time>2014-09-28T12:12:28Z</time>
      </trkpt>
      <trkpt lat="43.80654" lon="3.49307">
        <ele>812</ele>
        <time>2014-09-28T12:12:39Z</time>
      </trkpt>
      <trkpt lat="43.80657" lon="3.49319">
        <ele>811</ele>
        <time>2014-09-28T12:12:49Z</time>
      </trkpt>
      <trkpt lat="43.80662" lon="3.49331">
        <ele>807</ele>
        <time>2014-09-28T12:13:01Z</time>
      </trkpt>
      <trkpt lat="43.80665" lon="3.49344">
        <ele>809</ele>
        <time>2014-09-28T12:13:11Z</time>
      </trkpt>
      <trkpt lat="43.80673" lon="3.4935">
        <ele>812</ele>
        <time>2014-09-28T12:13:19Z</time>
      </trkpt>
      <trkpt lat="43.80679" lon="3.49359">
        <ele>810</ele>
        <time>2014-09-28T12:13:28Z</time>
      </trkpt>
      <trkpt lat="43.80685" lon="3.49371">
        <ele>814</ele>
        <time>2014-09-28T12:13:40Z</time>
      </trkpt>
      <trkpt lat="43.80695" lon="3.49391">
        <ele>815</ele>
        <time>2014-09-28T12:14:02Z</time>
      </trkpt>
      <trkpt lat="43.807" lon="3.49397">
        <ele>814</ele>
        <time>2014-09-28T12:14:15Z</time>
      </trkpt>
      <trkpt lat="43.80699" lon="3.49397">
        <ele>815</ele>
        <time>2014-09-28T12:14:19Z</time>
      </trkpt>
      <trkpt lat="43.807" lon="3.49396">
        <ele>820</ele>
        <time>2014-09-28T12:14:58Z</time>
      </trkpt>
      <trkpt lat="43.80701" lon="3.49397">
        <ele>817</ele>
        <time>2014-09-28T12:22:21Z</time>
      </trkpt>
      <trkpt lat="43.80702" lon="3.49396">
        <ele>819</ele>
        <time>2014-09-28T12:23:48Z</time>
      </trkpt>
      <trkpt lat="43.80705" lon="3.49398">
        <ele>819</ele>
        <time>2014-09-28T12:23:52Z</time>
      </trkpt>
      <trkpt lat="43.80705" lon="3.49398">
        <ele>819</ele>
        <time>2014-09-28T12:23:53Z</time>
      </trkpt>
      <trkpt lat="43.80713" lon="3.49403">
        <ele>819</ele>
        <time>2014-09-28T12:24:04Z</time>
      </trkpt>
      <trkpt lat="43.80714" lon="3.49403">
        <ele>818</ele>
        <time>2014-09-28T12:24:05Z</time>
      </trkpt>
      <trkpt lat="43.80723" lon="3.49409">
        <ele>819</ele>
        <time>2014-09-28T12:24:20Z</time>
      </trkpt>
      <trkpt lat="43.80732" lon="3.49409">
        <ele>820</ele>
        <time>2014-09-28T12:24:31Z</time>
      </trkpt>
      <trkpt lat="43.80733" lon="3.49408">
        <ele>819</ele>
        <time>2014-09-28T12:24:32Z</time>
      </trkpt>
      <trkpt lat="43.80741" lon="3.49411">
        <ele>823</ele>
        <time>2014-09-28T12:24:48Z</time>
      </trkpt>
      <trkpt lat="43.80747" lon="3.49421">
        <ele>824</ele>
        <time>2014-09-28T12:25:05Z</time>
      </trkpt>
      <trkpt lat="43.80761" lon="3.49436">
        <ele>822</ele>
        <time>2014-09-28T12:25:26Z</time>
      </trkpt>
      <trkpt lat="43.8077" lon="3.49442">
        <ele>824</ele>
        <time>2014-09-28T12:25:39Z</time>
      </trkpt>
      <trkpt lat="43.80771" lon="3.49449">
        <ele>827</ele>
        <time>2014-09-28T12:26:33Z</time>
      </trkpt>
      <trkpt lat="43.80772" lon="3.49448">
        <ele>826</ele>
        <time>2014-09-28T12:26:34Z</time>
      </trkpt>
      <trkpt lat="43.80771" lon="3.49449">
        <ele>826</ele>
        <time>2014-09-28T12:27:00Z</time>
      </trkpt>
      <trkpt lat="43.80771" lon="3.4945">
        <ele>825</ele>
        <time>2014-09-28T12:27:05Z</time>
      </trkpt>
      <trkpt lat="43.80771" lon="3.49452">
        <ele>826</ele>
        <time>2014-09-28T12:27:39Z</time>
      </trkpt>
      <trkpt lat="43.80779" lon="3.49462">
        <ele>827</ele>
        <time>2014-09-28T12:28:07Z</time>
      </trkpt>
      <trkpt lat="43.80787" lon="3.49468">
        <ele>826</ele>
        <time>2014-09-28T12:28:18Z</time>
      </trkpt>
      <trkpt lat="43.80794" lon="3.49475">
        <ele>827</ele>
        <time>2014-09-28T12:28:29Z</time>
      </trkpt>
      <trkpt lat="43.8081" lon="3.49489">
        <ele>830</ele>
        <time>2014-09-28T12:28:53Z</time>
      </trkpt>
      <trkpt lat="43.80818" lon="3.49494">
        <ele>830</ele>
        <time>2014-09-28T12:29:09Z</time>
      </trkpt>
      <trkpt lat="43.80825" lon="3.49504">
        <ele>830</ele>
        <time>2014-09-28T12:29:19Z</time>
      </trkpt>
      <trkpt lat="43.8083" lon="3.49516">
        <ele>832</ele>
        <time>2014-09-28T12:29:28Z</time>
      </trkpt>
      <trkpt lat="43.80834" lon="3.49528">
        <ele>835</ele>
        <time>2014-09-28T12:29:37Z</time>
      </trkpt>
      <trkpt lat="43.8084" lon="3.49538">
        <ele>833</ele>
        <time>2014-09-28T12:29:46Z</time>
      </trkpt>
      <trkpt lat="43.80848" lon="3.49544">
        <ele>834</ele>
        <time>2014-09-28T12:29:55Z</time>
      </trkpt>
      <trkpt lat="43.80867" lon="3.49543">
        <ele>833</ele>
        <time>2014-09-28T12:30:13Z</time>
      </trkpt>
      <trkpt lat="43.80875" lon="3.4954">
        <ele>837</ele>
        <time>2014-09-28T12:30:25Z</time>
      </trkpt>
      <trkpt lat="43.80884" lon="3.49535">
        <ele>839</ele>
        <time>2014-09-28T12:30:36Z</time>
      </trkpt>
      <trkpt lat="43.80895" lon="3.4953">
        <ele>835</ele>
        <time>2014-09-28T12:30:56Z</time>
      </trkpt>
      <trkpt lat="43.80903" lon="3.49537">
        <ele>834</ele>
        <time>2014-09-28T12:31:11Z</time>
      </trkpt>
      <trkpt lat="43.80902" lon="3.4955">
        <ele>834</ele>
        <time>2014-09-28T12:31:30Z</time>
      </trkpt>
      <trkpt lat="43.80902" lon="3.49554">
        <ele>831</ele>
        <time>2014-09-28T12:31:48Z</time>
      </trkpt>
      <trkpt lat="43.80902" lon="3.49557">
        <ele>835</ele>
        <time>2014-09-28T12:32:17Z</time>
      </trkpt>
      <trkpt lat="43.80903" lon="3.49561">
        <ele>834</ele>
        <time>2014-09-28T12:32:22Z</time>
      </trkpt>
      <trkpt lat="43.80903" lon="3.49562">
        <ele>835</ele>
        <time>2014-09-28T12:32:23Z</time>
      </trkpt>
      <trkpt lat="43.80906" lon="3.49573">
        <ele>835</ele>
        <time>2014-09-28T12:32:32Z</time>
      </trkpt>
      <trkpt lat="43.80911" lon="3.49581">
        <ele>836</ele>
        <time>2014-09-28T12:32:47Z</time>
      </trkpt>
      <trkpt lat="43.8092" lon="3.49586">
        <ele>834</ele>
        <time>2014-09-28T12:33:03Z</time>
      </trkpt>
      <trkpt lat="43.80929" lon="3.4959">
        <ele>831</ele>
        <time>2014-09-28T12:33:13Z</time>
      </trkpt>
      <trkpt lat="43.80937" lon="3.49596">
        <ele>830</ele>
        <time>2014-09-28T12:33:22Z</time>
      </trkpt>
      <trkpt lat="43.80943" lon="3.49606">
        <ele>832</ele>
        <time>2014-09-28T12:33:36Z</time>
      </trkpt>
      <trkpt lat="43.80943" lon="3.49608">
        <ele>832</ele>
        <time>2014-09-28T12:33:37Z</time>
      </trkpt>
      <trkpt lat="43.80941" lon="3.49619">
        <ele>829</ele>
        <time>2014-09-28T12:33:45Z</time>
      </trkpt>
      <trkpt lat="43.80934" lon="3.49629">
        <ele>831</ele>
        <time>2014-09-28T12:33:55Z</time>
      </trkpt>
      <trkpt lat="43.80926" lon="3.49639">
        <ele>831</ele>
        <time>2014-09-28T12:34:05Z</time>
      </trkpt>
      <trkpt lat="43.80919" lon="3.49649">
        <ele>833</ele>
        <time>2014-09-28T12:34:17Z</time>
      </trkpt>
      <trkpt lat="43.80928" lon="3.49656">
        <ele>835</ele>
        <time>2014-09-28T12:34:32Z</time>
      </trkpt>
      <trkpt lat="43.80942" lon="3.49669">
        <ele>832</ele>
        <time>2014-09-28T12:34:51Z</time>
      </trkpt>
      <trkpt lat="43.80944" lon="3.49669">
        <ele>831</ele>
        <time>2014-09-28T12:34:52Z</time>
      </trkpt>
      <trkpt lat="43.80952" lon="3.4967">
        <ele>830</ele>
        <time>2014-09-28T12:34:59Z</time>
      </trkpt>
      <trkpt lat="43.80953" lon="3.49669">
        <ele>830</ele>
        <time>2014-09-28T12:35:00Z</time>
      </trkpt>
      <trkpt lat="43.80961" lon="3.49671">
        <ele>832</ele>
        <time>2014-09-28T12:35:09Z</time>
      </trkpt>
      <trkpt lat="43.80971" lon="3.49674">
        <ele>835</ele>
        <time>2014-09-28T12:35:19Z</time>
      </trkpt>
      <trkpt lat="43.8098" lon="3.49674">
        <ele>833</ele>
        <time>2014-09-28T12:35:40Z</time>
      </trkpt>
      <trkpt lat="43.80988" lon="3.49681">
        <ele>837</ele>
        <time>2014-09-28T12:35:54Z</time>
      </trkpt>
      <trkpt lat="43.80992" lon="3.49693">
        <ele>837</ele>
        <time>2014-09-28T12:36:07Z</time>
      </trkpt>
      <trkpt lat="43.80999" lon="3.49702">
        <ele>838</ele>
        <time>2014-09-28T12:36:18Z</time>
      </trkpt>
      <trkpt lat="43.81006" lon="3.49708">
        <ele>839</ele>
        <time>2014-09-28T12:36:28Z</time>
      </trkpt>
      <trkpt lat="43.81017" lon="3.4971">
        <ele>840</ele>
        <time>2014-09-28T12:36:38Z</time>
      </trkpt>
      <trkpt lat="43.81024" lon="3.49715">
        <ele>841</ele>
        <time>2014-09-28T12:36:47Z</time>
      </trkpt>
      <trkpt lat="43.81025" lon="3.49715">
        <ele>842</ele>
        <time>2014-09-28T12:36:48Z</time>
      </trkpt>
      <trkpt lat="43.81032" lon="3.49706">
        <ele>840</ele>
        <time>2014-09-28T12:36:59Z</time>
      </trkpt>
      <trkpt lat="43.81041" lon="3.49708">
        <ele>841</ele>
        <time>2014-09-28T12:37:08Z</time>
      </trkpt>
      <trkpt lat="43.8105" lon="3.49706">
        <ele>842</ele>
        <time>2014-09-28T12:37:19Z</time>
      </trkpt>
      <trkpt lat="43.81051" lon="3.49706">
        <ele>842</ele>
        <time>2014-09-28T12:37:20Z</time>
      </trkpt>
      <trkpt lat="43.81056" lon="3.49716">
        <ele>841</ele>
        <time>2014-09-28T12:37:34Z</time>
      </trkpt>
      <trkpt lat="43.81058" lon="3.4973">
        <ele>843</ele>
        <time>2014-09-28T12:37:45Z</time>
      </trkpt>
      <trkpt lat="43.81062" lon="3.49739">
        <ele>845</ele>
        <time>2014-09-28T12:37:53Z</time>
      </trkpt>
      <trkpt lat="43.81063" lon="3.4974">
        <ele>845</ele>
        <time>2014-09-28T12:37:54Z</time>
      </trkpt>
      <trkpt lat="43.81068" lon="3.4975">
        <ele>842</ele>
        <time>2014-09-28T12:38:03Z</time>
      </trkpt>
      <trkpt lat="43.81074" lon="3.49761">
        <ele>843</ele>
        <time>2014-09-28T12:38:16Z</time>
      </trkpt>
      <trkpt lat="43.81074" lon="3.49762">
        <ele>845</ele>
        <time>2014-09-28T12:38:23Z</time>
      </trkpt>
      <trkpt lat="43.81068" lon="3.49786">
        <ele>841</ele>
        <time>2014-09-28T12:38:50Z</time>
      </trkpt>
      <trkpt lat="43.81068" lon="3.49788">
        <ele>843</ele>
        <time>2014-09-28T12:38:51Z</time>
      </trkpt>
      <trkpt lat="43.81073" lon="3.49799">
        <ele>844</ele>
        <time>2014-09-28T12:38:58Z</time>
      </trkpt>
      <trkpt lat="43.81089" lon="3.49811">
        <ele>844</ele>
        <time>2014-09-28T12:39:14Z</time>
      </trkpt>
      <trkpt lat="43.81099" lon="3.4982">
        <ele>847</ele>
        <time>2014-09-28T12:39:27Z</time>
      </trkpt>
      <trkpt lat="43.81108" lon="3.4982">
        <ele>846</ele>
        <time>2014-09-28T12:39:36Z</time>
      </trkpt>
      <trkpt lat="43.81126" lon="3.49822">
        <ele>845</ele>
        <time>2014-09-28T12:39:55Z</time>
      </trkpt>
      <trkpt lat="43.81135" lon="3.49826">
        <ele>846</ele>
        <time>2014-09-28T12:40:14Z</time>
      </trkpt>
      <trkpt lat="43.81143" lon="3.49833">
        <ele>847</ele>
        <time>2014-09-28T12:40:33Z</time>
      </trkpt>
      <trkpt lat="43.81144" lon="3.49833">
        <ele>848</ele>
        <time>2014-09-28T12:40:34Z</time>
      </trkpt>
      <trkpt lat="43.81152" lon="3.49839">
        <ele>847</ele>
        <time>2014-09-28T12:40:48Z</time>
      </trkpt>
      <trkpt lat="43.81171" lon="3.49845">
        <ele>846</ele>
        <time>2014-09-28T12:41:07Z</time>
      </trkpt>
      <trkpt lat="43.81189" lon="3.49846">
        <ele>846</ele>
        <time>2014-09-28T12:41:26Z</time>
      </trkpt>
      <trkpt lat="43.81206" lon="3.4985">
        <ele>848</ele>
        <time>2014-09-28T12:41:51Z</time>
      </trkpt>
      <trkpt lat="43.81216" lon="3.49847">
        <ele>850</ele>
        <time>2014-09-28T12:42:02Z</time>
      </trkpt>
      <trkpt lat="43.81226" lon="3.49848">
        <ele>848</ele>
        <time>2014-09-28T12:42:15Z</time>
      </trkpt>
      <trkpt lat="43.81235" lon="3.49851">
        <ele>851</ele>
        <time>2014-09-28T12:42:25Z</time>
      </trkpt>
      <trkpt lat="43.81241" lon="3.4986">
        <ele>851</ele>
        <time>2014-09-28T12:42:36Z</time>
      </trkpt>
      <trkpt lat="43.81246" lon="3.49872">
        <ele>851</ele>
        <time>2014-09-28T12:42:48Z</time>
      </trkpt>
      <trkpt lat="43.81246" lon="3.49885">
        <ele>851</ele>
        <time>2014-09-28T12:42:57Z</time>
      </trkpt>
      <trkpt lat="43.81246" lon="3.49896">
        <ele>854</ele>
        <time>2014-09-28T12:43:06Z</time>
      </trkpt>
      <trkpt lat="43.81249" lon="3.4991">
        <ele>855</ele>
        <time>2014-09-28T12:43:17Z</time>
      </trkpt>
      <trkpt lat="43.81257" lon="3.49913">
        <ele>857</ele>
        <time>2014-09-28T12:43:31Z</time>
      </trkpt>
      <trkpt lat="43.81267" lon="3.49911">
        <ele>860</ele>
        <time>2014-09-28T12:43:46Z</time>
      </trkpt>
      <trkpt lat="43.81275" lon="3.49915">
        <ele>860</ele>
        <time>2014-09-28T12:44:02Z</time>
      </trkpt>
      <trkpt lat="43.8128" lon="3.49926">
        <ele>861</ele>
        <time>2014-09-28T12:44:24Z</time>
      </trkpt>
      <trkpt lat="43.81282" lon="3.49927">
        <ele>862</ele>
        <time>2014-09-28T12:44:30Z</time>
      </trkpt>
      <trkpt lat="43.81287" lon="3.49937">
        <ele>862</ele>
        <time>2014-09-28T12:44:51Z</time>
      </trkpt>
      <trkpt lat="43.81297" lon="3.49933">
        <ele>865</ele>
        <time>2014-09-28T12:45:04Z</time>
      </trkpt>
      <trkpt lat="43.81301" lon="3.49945">
        <ele>865</ele>
        <time>2014-09-28T12:45:23Z</time>
      </trkpt>
      <trkpt lat="43.81307" lon="3.49953">
        <ele>873</ele>
        <time>2014-09-28T12:45:48Z</time>
      </trkpt>
      <trkpt lat="43.81308" lon="3.4996">
        <ele>872</ele>
        <time>2014-09-28T12:46:01Z</time>
      </trkpt>
      <trkpt lat="43.81311" lon="3.49962">
        <ele>870</ele>
        <time>2014-09-28T12:46:07Z</time>
      </trkpt>
      <trkpt lat="43.8132" lon="3.4996">
        <ele>875</ele>
        <time>2014-09-28T12:46:24Z</time>
      </trkpt>
      <trkpt lat="43.81327" lon="3.49967">
        <ele>875</ele>
        <time>2014-09-28T12:46:51Z</time>
      </trkpt>
      <trkpt lat="43.81328" lon="3.49968">
        <ele>874</ele>
        <time>2014-09-28T12:46:54Z</time>
      </trkpt>
      <trkpt lat="43.81332" lon="3.49972">
        <ele>876</ele>
        <time>2014-09-28T12:47:10Z</time>
      </trkpt>
      <trkpt lat="43.81333" lon="3.49973">
        <ele>874</ele>
        <time>2014-09-28T12:47:15Z</time>
      </trkpt>
      <trkpt lat="43.81335" lon="3.49975">
        <ele>876</ele>
        <time>2014-09-28T12:47:31Z</time>
      </trkpt>
      <trkpt lat="43.8134" lon="3.49985">
        <ele>873</ele>
        <time>2014-09-28T12:47:49Z</time>
      </trkpt>
      <trkpt lat="43.81347" lon="3.49994">
        <ele>876</ele>
        <time>2014-09-28T12:48:19Z</time>
      </trkpt>
      <trkpt lat="43.81348" lon="3.50006">
        <ele>878</ele>
        <time>2014-09-28T12:48:51Z</time>
      </trkpt>
      <trkpt lat="43.81351" lon="3.50009">
        <ele>882</ele>
        <time>2014-09-28T12:48:57Z</time>
      </trkpt>
      <trkpt lat="43.81352" lon="3.50018">
        <ele>877</ele>
        <time>2014-09-28T12:51:33Z</time>
      </trkpt>
      <trkpt lat="43.81353" lon="3.50018">
        <ele>879</ele>
        <time>2014-09-28T12:52:03Z</time>
      </trkpt>
      <trkpt lat="43.81363" lon="3.50018">
        <ele>873</ele>
        <time>2014-09-28T12:54:32Z</time>
      </trkpt>
      <trkpt lat="43.81372" lon="3.5002">
        <ele>873</ele>
        <time>2014-09-28T12:55:29Z</time>
      </trkpt>
      <trkpt lat="43.81374" lon="3.5002">
        <ele>867</ele>
        <time>2014-09-28T12:56:09Z</time>
      </trkpt>
      <trkpt lat="43.81377" lon="3.50019">
        <ele>868</ele>
        <time>2014-09-28T12:56:11Z</time>
      </trkpt>
      <trkpt lat="43.81385" lon="3.50022">
        <ele>861</ele>
        <time>2014-09-28T12:56:48Z</time>
      </trkpt>
      <trkpt lat="43.81385" lon="3.50023">
        <ele>862</ele>
        <time>2014-09-28T12:56:49Z</time>
      </trkpt>
      <trkpt lat="43.81386" lon="3.50034">
        <ele>866</ele>
        <time>2014-09-28T12:57:00Z</time>
      </trkpt>
      <trkpt lat="43.81386" lon="3.50035">
        <ele>863</ele>
        <time>2014-09-28T12:57:01Z</time>
      </trkpt>
      <trkpt lat="43.81388" lon="3.50047">
        <ele>865</ele>
        <time>2014-09-28T12:57:16Z</time>
      </trkpt>
      <trkpt lat="43.81395" lon="3.50055">
        <ele>856</ele>
        <time>2014-09-28T12:58:07Z</time>
      </trkpt>
      <trkpt lat="43.81396" lon="3.50055">
        <ele>857</ele>
        <time>2014-09-28T12:58:08Z</time>
      </trkpt>
      <trkpt lat="43.81404" lon="3.50052">
        <ele>856</ele>
        <time>2014-09-28T12:58:25Z</time>
      </trkpt>
      <trkpt lat="43.81405" lon="3.50052">
        <ele>856</ele>
        <time>2014-09-28T12:58:27Z</time>
      </trkpt>
      <trkpt lat="43.8141" lon="3.50065">
        <ele>853</ele>
        <time>2014-09-28T12:58:46Z</time>
      </trkpt>
      <trkpt lat="43.81411" lon="3.50066">
        <ele>854</ele>
        <time>2014-09-28T12:58:47Z</time>
      </trkpt>
      <trkpt lat="43.81416" lon="3.50075">
        <ele>852</ele>
        <time>2014-09-28T12:59:11Z</time>
      </trkpt>
      <trkpt lat="43.81417" lon="3.50083">
        <ele>851</ele>
        <time>2014-09-28T12:59:20Z</time>
      </trkpt>
      <trkpt lat="43.81424" lon="3.50091">
        <ele>846</ele>
        <time>2014-09-28T12:59:58Z</time>
      </trkpt>
      <trkpt lat="43.8143" lon="3.5009">
        <ele>843</ele>
        <time>2014-09-28T13:00:18Z</time>
      </trkpt>
      <trkpt lat="43.81436" lon="3.501">
        <ele>846</ele>
        <time>2014-09-28T13:00:36Z</time>
      </trkpt>
      <trkpt lat="43.81444" lon="3.50103">
        <ele>840</ele>
        <time>2014-09-28T13:00:47Z</time>
      </trkpt>
      <trkpt lat="43.81453" lon="3.501">
        <ele>839</ele>
        <time>2014-09-28T13:00:58Z</time>
      </trkpt>
      <trkpt lat="43.81462" lon="3.50097">
        <ele>836</ele>
        <time>2014-09-28T13:01:09Z</time>
      </trkpt>
      <trkpt lat="43.81471" lon="3.50091">
        <ele>833</ele>
        <time>2014-09-28T13:01:20Z</time>
      </trkpt>
      <trkpt lat="43.8148" lon="3.5009">
        <ele>833</ele>
        <time>2014-09-28T13:01:31Z</time>
      </trkpt>
      <trkpt lat="43.8148" lon="3.50089">
        <ele>833</ele>
        <time>2014-09-28T13:01:32Z</time>
      </trkpt>
      <trkpt lat="43.81489" lon="3.5009">
        <ele>827</ele>
        <time>2014-09-28T13:01:49Z</time>
      </trkpt>
      <trkpt lat="43.81499" lon="3.5009">
        <ele>822</ele>
        <time>2014-09-28T13:02:01Z</time>
      </trkpt>
      <trkpt lat="43.81507" lon="3.50088">
        <ele>823</ele>
        <time>2014-09-28T13:02:12Z</time>
      </trkpt>
      <trkpt lat="43.81522" lon="3.50078">
        <ele>820</ele>
        <time>2014-09-28T13:03:23Z</time>
      </trkpt>
      <trkpt lat="43.81523" lon="3.50079">
        <ele>821</ele>
        <time>2014-09-28T13:03:24Z</time>
      </trkpt>
      <trkpt lat="43.81532" lon="3.50079">
        <ele>821</ele>
        <time>2014-09-28T13:03:34Z</time>
      </trkpt>
      <trkpt lat="43.81538" lon="3.50077">
        <ele>820</ele>
        <time>2014-09-28T13:03:45Z</time>
      </trkpt>
      <trkpt lat="43.8154" lon="3.50078">
        <ele>818</ele>
        <time>2014-09-28T13:03:47Z</time>
      </trkpt>
      <trkpt lat="43.8155" lon="3.50073">
        <ele>818</ele>
        <time>2014-09-28T13:03:56Z</time>
      </trkpt>
      <trkpt lat="43.81556" lon="3.50064">
        <ele>819</ele>
        <time>2014-09-28T13:04:13Z</time>
      </trkpt>
      <trkpt lat="43.81556" lon="3.50063">
        <ele>820</ele>
        <time>2014-09-28T13:04:14Z</time>
      </trkpt>
      <trkpt lat="43.81562" lon="3.50054">
        <ele>820</ele>
        <time>2014-09-28T13:04:25Z</time>
      </trkpt>
      <trkpt lat="43.81567" lon="3.50045">
        <ele>817</ele>
        <time>2014-09-28T13:04:32Z</time>
      </trkpt>
      <trkpt lat="43.81568" lon="3.50043">
        <ele>819</ele>
        <time>2014-09-28T13:04:33Z</time>
      </trkpt>
      <trkpt lat="43.81573" lon="3.50033">
        <ele>814</ele>
        <time>2014-09-28T13:04:44Z</time>
      </trkpt>
      <trkpt lat="43.81582" lon="3.50029">
        <ele>815</ele>
        <time>2014-09-28T13:04:51Z</time>
      </trkpt>
      <trkpt lat="43.81591" lon="3.50024">
        <ele>817</ele>
        <time>2014-09-28T13:05:05Z</time>
      </trkpt>
      <trkpt lat="43.81592" lon="3.50024">
        <ele>816</ele>
        <time>2014-09-28T13:05:23Z</time>
      </trkpt>
      <trkpt lat="43.81593" lon="3.50025">
        <ele>818</ele>
        <time>2014-09-28T13:05:32Z</time>
      </trkpt>
      <trkpt lat="43.816" lon="3.50023">
        <ele>818</ele>
        <time>2014-09-28T13:05:45Z</time>
      </trkpt>
      <trkpt lat="43.81611" lon="3.50023">
        <ele>818</ele>
        <time>2014-09-28T13:05:55Z</time>
      </trkpt>
      <trkpt lat="43.8162" lon="3.50019">
        <ele>818</ele>
        <time>2014-09-28T13:06:05Z</time>
      </trkpt>
      <trkpt lat="43.81629" lon="3.50018">
        <ele>818</ele>
        <time>2014-09-28T13:06:14Z</time>
      </trkpt>
      <trkpt lat="43.81637" lon="3.50021">
        <ele>819</ele>
        <time>2014-09-28T13:06:24Z</time>
      </trkpt>
      <trkpt lat="43.81645" lon="3.50029">
        <ele>821</ele>
        <time>2014-09-28T13:06:40Z</time>
      </trkpt>
      <trkpt lat="43.81653" lon="3.50024">
        <ele>817</ele>
        <time>2014-09-28T13:06:49Z</time>
      </trkpt>
      <trkpt lat="43.81654" lon="3.50023">
        <ele>817</ele>
        <time>2014-09-28T13:06:50Z</time>
      </trkpt>
      <trkpt lat="43.81662" lon="3.50022">
        <ele>817</ele>
        <time>2014-09-28T13:06:58Z</time>
      </trkpt>
      <trkpt lat="43.81672" lon="3.50022">
        <ele>816</ele>
        <time>2014-09-28T13:07:14Z</time>
      </trkpt>
      <trkpt lat="43.8167" lon="3.50034">
        <ele>818</ele>
        <time>2014-09-28T13:07:35Z</time>
      </trkpt>
      <trkpt lat="43.8167" lon="3.50035">
        <ele>819</ele>
        <time>2014-09-28T13:07:36Z</time>
      </trkpt>
      <trkpt lat="43.81675" lon="3.50045">
        <ele>819</ele>
        <time>2014-09-28T13:07:49Z</time>
      </trkpt>
      <trkpt lat="43.81673" lon="3.50057">
        <ele>820</ele>
        <time>2014-09-28T13:08:06Z</time>
      </trkpt>
      <trkpt lat="43.81673" lon="3.50058">
        <ele>819</ele>
        <time>2014-09-28T13:08:07Z</time>
      </trkpt>
      <trkpt lat="43.81672" lon="3.5007">
        <ele>813</ele>
        <time>2014-09-28T13:08:19Z</time>
      </trkpt>
      <trkpt lat="43.81678" lon="3.5008">
        <ele>814</ele>
        <time>2014-09-28T13:08:41Z</time>
      </trkpt>
      <trkpt lat="43.81678" lon="3.5008">
        <ele>813</ele>
        <time>2014-09-28T13:08:42Z</time>
      </trkpt>
      <trkpt lat="43.81684" lon="3.50088">
        <ele>814</ele>
        <time>2014-09-28T13:08:57Z</time>
      </trkpt>
      <trkpt lat="43.81702" lon="3.50094">
        <ele>814</ele>
        <time>2014-09-28T13:09:14Z</time>
      </trkpt>
      <trkpt lat="43.81711" lon="3.50089">
        <ele>808</ele>
        <time>2014-09-28T13:09:23Z</time>
      </trkpt>
      <trkpt lat="43.81712" lon="3.50089">
        <ele>809</ele>
        <time>2014-09-28T13:09:24Z</time>
      </trkpt>
      <trkpt lat="43.8172" lon="3.50094">
        <ele>813</ele>
        <time>2014-09-28T13:09:37Z</time>
      </trkpt>
      <trkpt lat="43.81729" lon="3.50096">
        <ele>810</ele>
        <time>2014-09-28T13:09:49Z</time>
      </trkpt>
      <trkpt lat="43.8173" lon="3.50095">
        <ele>809</ele>
        <time>2014-09-28T13:09:50Z</time>
      </trkpt>
      <trkpt lat="43.81734" lon="3.50086">
        <ele>808</ele>
        <time>2014-09-28T13:09:57Z</time>
      </trkpt>
      <trkpt lat="43.81735" lon="3.50085">
        <ele>807</ele>
        <time>2014-09-28T13:09:58Z</time>
      </trkpt>
      <trkpt lat="43.81738" lon="3.50072">
        <ele>810</ele>
        <time>2014-09-28T13:10:08Z</time>
      </trkpt>
      <trkpt lat="43.81741" lon="3.5006">
        <ele>808</ele>
        <time>2014-09-28T13:10:20Z</time>
      </trkpt>
      <trkpt lat="43.8174" lon="3.50046">
        <ele>806</ele>
        <time>2014-09-28T13:10:34Z</time>
      </trkpt>
      <trkpt lat="43.8174" lon="3.50033">
        <ele>805</ele>
        <time>2014-09-28T13:10:46Z</time>
      </trkpt>
      <trkpt lat="43.81739" lon="3.50022">
        <ele>801</ele>
        <time>2014-09-28T13:11:01Z</time>
      </trkpt>
      <trkpt lat="43.81739" lon="3.50019">
        <ele>802</ele>
        <time>2014-09-28T13:11:04Z</time>
      </trkpt>
      <trkpt lat="43.81747" lon="3.50016">
        <ele>805</ele>
        <time>2014-09-28T13:11:16Z</time>
      </trkpt>
      <trkpt lat="43.81748" lon="3.50016">
        <ele>806</ele>
        <time>2014-09-28T13:11:17Z</time>
      </trkpt>
      <trkpt lat="43.81756" lon="3.50021">
        <ele>804</ele>
        <time>2014-09-28T13:11:31Z</time>
      </trkpt>
      <trkpt lat="43.81763" lon="3.50028">
        <ele>806</ele>
        <time>2014-09-28T13:11:42Z</time>
      </trkpt>
      <trkpt lat="43.81767" lon="3.50041">
        <ele>808</ele>
        <time>2014-09-28T13:11:57Z</time>
      </trkpt>
      <trkpt lat="43.81776" lon="3.5004">
        <ele>812</ele>
        <time>2014-09-28T13:12:18Z</time>
      </trkpt>
      <trkpt lat="43.81785" lon="3.50044">
        <ele>809</ele>
        <time>2014-09-28T13:12:38Z</time>
      </trkpt>
      <trkpt lat="43.81789" lon="3.50054">
        <ele>805</ele>
        <time>2014-09-28T13:12:59Z</time>
      </trkpt>
      <trkpt lat="43.81788" lon="3.50063">
        <ele>810</ele>
        <time>2014-09-28T13:13:12Z</time>
      </trkpt>
      <trkpt lat="43.81789" lon="3.50065">
        <ele>802</ele>
        <time>2014-09-28T13:13:21Z</time>
      </trkpt>
      <trkpt lat="43.81795" lon="3.50074">
        <ele>799</ele>
        <time>2014-09-28T13:13:44Z</time>
      </trkpt>
      <trkpt lat="43.81796" lon="3.50074">
        <ele>799</ele>
        <time>2014-09-28T13:13:45Z</time>
      </trkpt>
      <trkpt lat="43.81804" lon="3.50071">
        <ele>798</ele>
        <time>2014-09-28T13:13:57Z</time>
      </trkpt>
      <trkpt lat="43.81808" lon="3.5007">
        <ele>797</ele>
        <time>2014-09-28T13:14:02Z</time>
      </trkpt>
      <trkpt lat="43.81816" lon="3.50076">
        <ele>794</ele>
        <time>2014-09-28T13:14:20Z</time>
      </trkpt>
      <trkpt lat="43.81823" lon="3.50082">
        <ele>795</ele>
        <time>2014-09-28T13:14:37Z</time>
      </trkpt>
      <trkpt lat="43.81826" lon="3.50095">
        <ele>790</ele>
        <time>2014-09-28T13:14:48Z</time>
      </trkpt>
      <trkpt lat="43.81826" lon="3.50098">
        <ele>790</ele>
        <time>2014-09-28T13:14:49Z</time>
      </trkpt>
      <trkpt lat="43.81829" lon="3.50109">
        <ele>794</ele>
        <time>2014-09-28T13:15:00Z</time>
      </trkpt>
      <trkpt lat="43.81835" lon="3.50118">
        <ele>789</ele>
        <time>2014-09-28T13:15:13Z</time>
      </trkpt>
      <trkpt lat="43.81842" lon="3.50124">
        <ele>788</ele>
        <time>2014-09-28T13:16:02Z</time>
      </trkpt>
      <trkpt lat="43.81846" lon="3.50125">
        <ele>785</ele>
        <time>2014-09-28T13:16:29Z</time>
      </trkpt>
      <trkpt lat="43.81849" lon="3.50127">
        <ele>785</ele>
        <time>2014-09-28T13:16:32Z</time>
      </trkpt>
      <trkpt lat="43.81856" lon="3.5012">
        <ele>782</ele>
        <time>2014-09-28T13:16:46Z</time>
      </trkpt>
      <trkpt lat="43.81862" lon="3.50112">
        <ele>779</ele>
        <time>2014-09-28T13:16:59Z</time>
      </trkpt>
      <trkpt lat="43.81863" lon="3.50113">
        <ele>779</ele>
        <time>2014-09-28T13:17:22Z</time>
      </trkpt>
      <trkpt lat="43.81865" lon="3.50111">
        <ele>780</ele>
        <time>2014-09-28T13:17:31Z</time>
      </trkpt>
      <trkpt lat="43.81872" lon="3.50107">
        <ele>777</ele>
        <time>2014-09-28T13:17:48Z</time>
      </trkpt>
      <trkpt lat="43.81873" lon="3.50107">
        <ele>776</ele>
        <time>2014-09-28T13:17:49Z</time>
      </trkpt>
      <trkpt lat="43.81876" lon="3.50105">
        <ele>775</ele>
        <time>2014-09-28T13:17:58Z</time>
      </trkpt>
      <trkpt lat="43.81878" lon="3.50104">
        <ele>776</ele>
        <time>2014-09-28T13:18:03Z</time>
      </trkpt>
      <trkpt lat="43.81878" lon="3.50105">
        <ele>778</ele>
        <time>2014-09-28T13:18:08Z</time>
      </trkpt>
      <trkpt lat="43.81882" lon="3.50105">
        <ele>778</ele>
        <time>2014-09-28T13:18:15Z</time>
      </trkpt>
      <trkpt lat="43.81882" lon="3.50105">
        <ele>779</ele>
        <time>2014-09-28T13:18:16Z</time>
      </trkpt>
      <trkpt lat="43.81887" lon="3.50096">
        <ele>769</ele>
        <time>2014-09-28T13:18:28Z</time>
      </trkpt>
      <trkpt lat="43.81887" lon="3.50094">
        <ele>770</ele>
        <time>2014-09-28T13:18:29Z</time>
      </trkpt>
      <trkpt lat="43.81894" lon="3.50087">
        <ele>774</ele>
        <time>2014-09-28T13:18:48Z</time>
      </trkpt>
      <trkpt lat="43.81895" lon="3.50087">
        <ele>773</ele>
        <time>2014-09-28T13:18:49Z</time>
      </trkpt>
      <trkpt lat="43.81899" lon="3.50094">
        <ele>768</ele>
        <time>2014-09-28T13:19:22Z</time>
      </trkpt>
      <trkpt lat="43.81899" lon="3.50096">
        <ele>776</ele>
        <time>2014-09-28T13:19:32Z</time>
      </trkpt>
      <trkpt lat="43.81899" lon="3.50096">
        <ele>774</ele>
        <time>2014-09-28T13:19:34Z</time>
      </trkpt>
      <trkpt lat="43.81899" lon="3.50096">
        <ele>775</ele>
        <time>2014-09-28T13:19:35Z</time>
      </trkpt>
      <trkpt lat="43.819" lon="3.50098">
        <ele>777</ele>
        <time>2014-09-28T13:19:41Z</time>
      </trkpt>
      <trkpt lat="43.81901" lon="3.50103">
        <ele>774</ele>
        <time>2014-09-28T13:19:49Z</time>
      </trkpt>
      <trkpt lat="43.81902" lon="3.50105">
        <ele>775</ele>
        <time>2014-09-28T13:20:06Z</time>
      </trkpt>
      <trkpt lat="43.81906" lon="3.50108">
        <ele>774</ele>
        <time>2014-09-28T13:20:13Z</time>
      </trkpt>
      <trkpt lat="43.8191" lon="3.50119">
        <ele>775</ele>
        <time>2014-09-28T13:20:26Z</time>
      </trkpt>
      <trkpt lat="43.8191" lon="3.5012">
        <ele>775</ele>
        <time>2014-09-28T13:20:27Z</time>
      </trkpt>
      <trkpt lat="43.81919" lon="3.50125">
        <ele>772</ele>
        <time>2014-09-28T13:20:38Z</time>
      </trkpt>
      <trkpt lat="43.81928" lon="3.50128">
        <ele>771</ele>
        <time>2014-09-28T13:20:48Z</time>
      </trkpt>
      <trkpt lat="43.81936" lon="3.50134">
        <ele>770</ele>
        <time>2014-09-28T13:20:56Z</time>
      </trkpt>
      <trkpt lat="43.81945" lon="3.50141">
        <ele>769</ele>
        <time>2014-09-28T13:21:05Z</time>
      </trkpt>
      <trkpt lat="43.81955" lon="3.50144">
        <ele>767</ele>
        <time>2014-09-28T13:21:17Z</time>
      </trkpt>
      <trkpt lat="43.81964" lon="3.50147">
        <ele>764</ele>
        <time>2014-09-28T13:21:27Z</time>
      </trkpt>
      <trkpt lat="43.81969" lon="3.50157">
        <ele>762</ele>
        <time>2014-09-28T13:21:36Z</time>
      </trkpt>
      <trkpt lat="43.81969" lon="3.50158">
        <ele>763</ele>
        <time>2014-09-28T13:21:37Z</time>
      </trkpt>
      <trkpt lat="43.81974" lon="3.50168">
        <ele>767</ele>
        <time>2014-09-28T13:21:47Z</time>
      </trkpt>
      <trkpt lat="43.81981" lon="3.50178">
        <ele>765</ele>
        <time>2014-09-28T13:21:57Z</time>
      </trkpt>
      <trkpt lat="43.81989" lon="3.50185">
        <ele>763</ele>
        <time>2014-09-28T13:22:16Z</time>
      </trkpt>
      <trkpt lat="43.81997" lon="3.50187">
        <ele>761</ele>
        <time>2014-09-28T13:23:17Z</time>
      </trkpt>
      <trkpt lat="43.82007" lon="3.50191">
        <ele>762</ele>
        <time>2014-09-28T13:23:27Z</time>
      </trkpt>
      <trkpt lat="43.82015" lon="3.50191">
        <ele>764</ele>
        <time>2014-09-28T13:23:36Z</time>
      </trkpt>
      <trkpt lat="43.82024" lon="3.50188">
        <ele>761</ele>
        <time>2014-09-28T13:23:44Z</time>
      </trkpt>
      <trkpt lat="43.82033" lon="3.50183">
        <ele>765</ele>
        <time>2014-09-28T13:23:56Z</time>
      </trkpt>
      <trkpt lat="43.82042" lon="3.50174">
        <ele>764</ele>
        <time>2014-09-28T13:24:05Z</time>
      </trkpt>
      <trkpt lat="43.82049" lon="3.50169">
        <ele>763</ele>
        <time>2014-09-28T13:24:14Z</time>
      </trkpt>
      <trkpt lat="43.8206" lon="3.50164">
        <ele>768</ele>
        <time>2014-09-28T13:24:23Z</time>
      </trkpt>
      <trkpt lat="43.82069" lon="3.50163">
        <ele>769</ele>
        <time>2014-09-28T13:24:34Z</time>
      </trkpt>
      <trkpt lat="43.82088" lon="3.50163">
        <ele>767</ele>
        <time>2014-09-28T13:24:51Z</time>
      </trkpt>
      <trkpt lat="43.82115" lon="3.50156">
        <ele>771</ele>
        <time>2014-09-28T13:25:19Z</time>
      </trkpt>
      <trkpt lat="43.82122" lon="3.50148">
        <ele>772</ele>
        <time>2014-09-28T13:25:28Z</time>
      </trkpt>
      <trkpt lat="43.82128" lon="3.50136">
        <ele>770</ele>
        <time>2014-09-28T13:25:39Z</time>
      </trkpt>
      <trkpt lat="43.82142" lon="3.50101">
        <ele>768</ele>
        <time>2014-09-28T13:26:09Z</time>
      </trkpt>
      <trkpt lat="43.82148" lon="3.50092">
        <ele>769</ele>
        <time>2014-09-28T13:26:19Z</time>
      </trkpt>
      <trkpt lat="43.82157" lon="3.50083">
        <ele>770</ele>
        <time>2014-09-28T13:26:28Z</time>
      </trkpt>
      <trkpt lat="43.82165" lon="3.50077">
        <ele>768</ele>
        <time>2014-09-28T13:26:36Z</time>
      </trkpt>
      <trkpt lat="43.82173" lon="3.50073">
        <ele>770</ele>
        <time>2014-09-28T13:26:46Z</time>
      </trkpt>
      <trkpt lat="43.8219" lon="3.50058">
        <ele>770</ele>
        <time>2014-09-28T13:27:05Z</time>
      </trkpt>
      <trkpt lat="43.82196" lon="3.50047">
        <ele>771</ele>
        <time>2014-09-28T13:27:15Z</time>
      </trkpt>
      <trkpt lat="43.82201" lon="3.50036">
        <ele>770</ele>
        <time>2014-09-28T13:27:24Z</time>
      </trkpt>
      <trkpt lat="43.82208" lon="3.49999">
        <ele>773</ele>
        <time>2014-09-28T13:27:50Z</time>
      </trkpt>
      <trkpt lat="43.82213" lon="3.49991">
        <ele>774</ele>
        <time>2014-09-28T13:27:58Z</time>
      </trkpt>
      <trkpt lat="43.82222" lon="3.49981">
        <ele>772</ele>
        <time>2014-09-28T13:28:08Z</time>
      </trkpt>
      <trkpt lat="43.8223" lon="3.49973">
        <ele>774</ele>
        <time>2014-09-28T13:28:18Z</time>
      </trkpt>
      <trkpt lat="43.82235" lon="3.49965">
        <ele>774</ele>
        <time>2014-09-28T13:28:25Z</time>
      </trkpt>
      <trkpt lat="43.82235" lon="3.49964">
        <ele>774</ele>
        <time>2014-09-28T13:28:26Z</time>
      </trkpt>
      <trkpt lat="43.82237" lon="3.49953">
        <ele>774</ele>
        <time>2014-09-28T13:28:35Z</time>
      </trkpt>
      <trkpt lat="43.82237" lon="3.49939">
        <ele>776</ele>
        <time>2014-09-28T13:28:44Z</time>
      </trkpt>
      <trkpt lat="43.82241" lon="3.49925">
        <ele>773</ele>
        <time>2014-09-28T13:28:53Z</time>
      </trkpt>
      <trkpt lat="43.82248" lon="3.49919">
        <ele>774</ele>
        <time>2014-09-28T13:29:03Z</time>
      </trkpt>
      <trkpt lat="43.82256" lon="3.4991">
        <ele>774</ele>
        <time>2014-09-28T13:29:12Z</time>
      </trkpt>
      <trkpt lat="43.82262" lon="3.499">
        <ele>774</ele>
        <time>2014-09-28T13:29:19Z</time>
      </trkpt>
      <trkpt lat="43.82262" lon="3.49899">
        <ele>774</ele>
        <time>2014-09-28T13:29:20Z</time>
      </trkpt>
      <trkpt lat="43.82263" lon="3.49887">
        <ele>774</ele>
        <time>2014-09-28T13:29:29Z</time>
      </trkpt>
      <trkpt lat="43.82262" lon="3.49849">
        <ele>776</ele>
        <time>2014-09-28T13:29:56Z</time>
      </trkpt>
      <trkpt lat="43.82262" lon="3.49847">
        <ele>775</ele>
        <time>2014-09-28T13:29:57Z</time>
      </trkpt>
      <trkpt lat="43.82258" lon="3.49834">
        <ele>775</ele>
        <time>2014-09-28T13:30:06Z</time>
      </trkpt>
      <trkpt lat="43.82256" lon="3.49823">
        <ele>776</ele>
        <time>2014-09-28T13:30:13Z</time>
      </trkpt>
      <trkpt lat="43.82252" lon="3.49811">
        <ele>774</ele>
        <time>2014-09-28T13:30:21Z</time>
      </trkpt>
      <trkpt lat="43.82248" lon="3.49799">
        <ele>777</ele>
        <time>2014-09-28T13:30:30Z</time>
      </trkpt>
      <trkpt lat="43.82242" lon="3.49787">
        <ele>778</ele>
        <time>2014-09-28T13:30:41Z</time>
      </trkpt>
      <trkpt lat="43.82237" lon="3.49761">
        <ele>778</ele>
        <time>2014-09-28T13:31:00Z</time>
      </trkpt>
      <trkpt lat="43.82247" lon="3.49751">
        <ele>784</ele>
        <time>2014-09-28T13:31:20Z</time>
      </trkpt>
      <trkpt lat="43.82258" lon="3.49753">
        <ele>783</ele>
        <time>2014-09-28T13:31:31Z</time>
      </trkpt>
      <trkpt lat="43.82266" lon="3.49754">
        <ele>783</ele>
        <time>2014-09-28T13:31:40Z</time>
      </trkpt>
      <trkpt lat="43.82278" lon="3.49757">
        <ele>784</ele>
        <time>2014-09-28T13:31:50Z</time>
      </trkpt>
      <trkpt lat="43.82287" lon="3.49763">
        <ele>785</ele>
        <time>2014-09-28T13:32:01Z</time>
      </trkpt>
      <trkpt lat="43.82294" lon="3.49771">
        <ele>782</ele>
        <time>2014-09-28T13:32:09Z</time>
      </trkpt>
      <trkpt lat="43.82302" lon="3.49776">
        <ele>782</ele>
        <time>2014-09-28T13:32:18Z</time>
      </trkpt>
      <trkpt lat="43.82311" lon="3.49779">
        <ele>783</ele>
        <time>2014-09-28T13:32:26Z</time>
      </trkpt>
      <trkpt lat="43.82328" lon="3.49794">
        <ele>787</ele>
        <time>2014-09-28T13:32:45Z</time>
      </trkpt>
      <trkpt lat="43.82336" lon="3.49802">
        <ele>787</ele>
        <time>2014-09-28T13:32:56Z</time>
      </trkpt>
      <trkpt lat="43.82343" lon="3.4981">
        <ele>787</ele>
        <time>2014-09-28T13:33:05Z</time>
      </trkpt>
      <trkpt lat="43.82347" lon="3.49822">
        <ele>788</ele>
        <time>2014-09-28T13:33:14Z</time>
      </trkpt>
      <trkpt lat="43.82353" lon="3.49833">
        <ele>785</ele>
        <time>2014-09-28T13:33:22Z</time>
      </trkpt>
      <trkpt lat="43.82361" lon="3.49842">
        <ele>786</ele>
        <time>2014-09-28T13:33:32Z</time>
      </trkpt>
      <trkpt lat="43.82369" lon="3.49847">
        <ele>782</ele>
        <time>2014-09-28T13:33:40Z</time>
      </trkpt>
      <trkpt lat="43.82379" lon="3.49848">
        <ele>785</ele>
        <time>2014-09-28T13:33:50Z</time>
      </trkpt>
      <trkpt lat="43.82387" lon="3.4985">
        <ele>783</ele>
        <time>2014-09-28T13:33:58Z</time>
      </trkpt>
      <trkpt lat="43.82395" lon="3.49858">
        <ele>787</ele>
        <time>2014-09-28T13:34:07Z</time>
      </trkpt>
      <trkpt lat="43.8241" lon="3.49872">
        <ele>789</ele>
        <time>2014-09-28T13:34:25Z</time>
      </trkpt>
      <trkpt lat="43.82429" lon="3.49903">
        <ele>787</ele>
        <time>2014-09-28T13:34:53Z</time>
      </trkpt>
      <trkpt lat="43.82429" lon="3.49903">
        <ele>787</ele>
        <time>2014-09-28T13:34:54Z</time>
      </trkpt>
      <trkpt lat="43.82432" lon="3.4991">
        <ele>788</ele>
        <time>2014-09-28T13:35:31Z</time>
      </trkpt>
      <trkpt lat="43.82432" lon="3.49912">
        <ele>787</ele>
        <time>2014-09-28T13:35:33Z</time>
      </trkpt>
      <trkpt lat="43.82432" lon="3.49913">
        <ele>789</ele>
        <time>2014-09-28T13:35:35Z</time>
      </trkpt>
      <trkpt lat="43.82432" lon="3.49912">
        <ele>793</ele>
        <time>2014-09-28T13:35:49Z</time>
      </trkpt>
      <trkpt lat="43.82433" lon="3.49913">
        <ele>793</ele>
        <time>2014-09-28T13:36:07Z</time>
      </trkpt>
      <trkpt lat="43.82432" lon="3.49913">
        <ele>790</ele>
        <time>2014-09-28T13:36:13Z</time>
      </trkpt>
      <trkpt lat="43.82433" lon="3.49913">
        <ele>791</ele>
        <time>2014-09-28T13:36:14Z</time>
      </trkpt>
      <trkpt lat="43.82439" lon="3.49923">
        <ele>789</ele>
        <time>2014-09-28T13:36:23Z</time>
      </trkpt>
      <trkpt lat="43.82451" lon="3.49943">
        <ele>792</ele>
        <time>2014-09-28T13:36:42Z</time>
      </trkpt>
      <trkpt lat="43.82457" lon="3.49952">
        <ele>792</ele>
        <time>2014-09-28T13:36:51Z</time>
      </trkpt>
      <trkpt lat="43.82463" lon="3.49962">
        <ele>791</ele>
        <time>2014-09-28T13:37:00Z</time>
      </trkpt>
      <trkpt lat="43.82469" lon="3.49972">
        <ele>792</ele>
        <time>2014-09-28T13:37:10Z</time>
      </trkpt>
      <trkpt lat="43.82474" lon="3.49989">
        <ele>794</ele>
        <time>2014-09-28T13:37:44Z</time>
      </trkpt>
      <trkpt lat="43.82476" lon="3.5">
        <ele>793</ele>
        <time>2014-09-28T13:38:00Z</time>
      </trkpt>
      <trkpt lat="43.82483" lon="3.5001">
        <ele>793</ele>
        <time>2014-09-28T13:38:11Z</time>
      </trkpt>
      <trkpt lat="43.8249" lon="3.50019">
        <ele>792</ele>
        <time>2014-09-28T13:38:23Z</time>
      </trkpt>
      <trkpt lat="43.82499" lon="3.50022">
        <ele>790</ele>
        <time>2014-09-28T13:38:33Z</time>
      </trkpt>
      <trkpt lat="43.82507" lon="3.50024">
        <ele>788</ele>
        <time>2014-09-28T13:38:41Z</time>
      </trkpt>
      <trkpt lat="43.82508" lon="3.50023">
        <ele>787</ele>
        <time>2014-09-28T13:38:42Z</time>
      </trkpt>
      <trkpt lat="43.82517" lon="3.50025">
        <ele>785</ele>
        <time>2014-09-28T13:38:52Z</time>
      </trkpt>
      <trkpt lat="43.82525" lon="3.50031">
        <ele>788</ele>
        <time>2014-09-28T13:39:09Z</time>
      </trkpt>
      <trkpt lat="43.8253" lon="3.50058">
        <ele>785</ele>
        <time>2014-09-28T13:39:30Z</time>
      </trkpt>
      <trkpt lat="43.82536" lon="3.50068">
        <ele>785</ele>
        <time>2014-09-28T13:39:41Z</time>
      </trkpt>
      <trkpt lat="43.82543" lon="3.50077">
        <ele>781</ele>
        <time>2014-09-28T13:39:53Z</time>
      </trkpt>
      <trkpt lat="43.82543" lon="3.50079">
        <ele>780</ele>
        <time>2014-09-28T13:39:54Z</time>
      </trkpt>
      <trkpt lat="43.82551" lon="3.50088">
        <ele>785</ele>
        <time>2014-09-28T13:40:07Z</time>
      </trkpt>
      <trkpt lat="43.82556" lon="3.50098">
        <ele>782</ele>
        <time>2014-09-28T13:40:18Z</time>
      </trkpt>
      <trkpt lat="43.82559" lon="3.5011">
        <ele>781</ele>
        <time>2014-09-28T13:40:28Z</time>
      </trkpt>
      <trkpt lat="43.82566" lon="3.50116">
        <ele>781</ele>
        <time>2014-09-28T13:40:35Z</time>
      </trkpt>
      <trkpt lat="43.82567" lon="3.50116">
        <ele>782</ele>
        <time>2014-09-28T13:40:36Z</time>
      </trkpt>
      <trkpt lat="43.82571" lon="3.50127">
        <ele>782</ele>
        <time>2014-09-28T13:40:46Z</time>
      </trkpt>
      <trkpt lat="43.82573" lon="3.50141">
        <ele>779</ele>
        <time>2014-09-28T13:40:58Z</time>
      </trkpt>
      <trkpt lat="43.82578" lon="3.50152">
        <ele>780</ele>
        <time>2014-09-28T13:41:12Z</time>
      </trkpt>
      <trkpt lat="43.82583" lon="3.50162">
        <ele>778</ele>
        <time>2014-09-28T13:41:24Z</time>
      </trkpt>
      <trkpt lat="43.82584" lon="3.50163">
        <ele>779</ele>
        <time>2014-09-28T13:41:25Z</time>
      </trkpt>
      <trkpt lat="43.82592" lon="3.50162">
        <ele>778</ele>
        <time>2014-09-28T13:41:34Z</time>
      </trkpt>
      <trkpt lat="43.826" lon="3.50169">
        <ele>776</ele>
        <time>2014-09-28T13:41:47Z</time>
      </trkpt>
      <trkpt lat="43.82601" lon="3.5017">
        <ele>776</ele>
        <time>2014-09-28T13:41:48Z</time>
      </trkpt>
      <trkpt lat="43.82608" lon="3.50177">
        <ele>782</ele>
        <time>2014-09-28T13:41:59Z</time>
      </trkpt>
      <trkpt lat="43.82616" lon="3.50183">
        <ele>773</ele>
        <time>2014-09-28T13:42:11Z</time>
      </trkpt>
      <trkpt lat="43.82625" lon="3.50183">
        <ele>773</ele>
        <time>2014-09-28T13:42:18Z</time>
      </trkpt>
      <trkpt lat="43.82627" lon="3.50182">
        <ele>774</ele>
        <time>2014-09-28T13:42:19Z</time>
      </trkpt>
      <trkpt lat="43.82635" lon="3.5018">
        <ele>774</ele>
        <time>2014-09-28T13:42:28Z</time>
      </trkpt>
      <trkpt lat="43.82645" lon="3.50186">
        <ele>774</ele>
        <time>2014-09-28T13:43:03Z</time>
      </trkpt>
      <trkpt lat="43.82646" lon="3.50187">
        <ele>777</ele>
        <time>2014-09-28T13:43:07Z</time>
      </trkpt>
      <trkpt lat="43.82654" lon="3.50194">
        <ele>769</ele>
        <time>2014-09-28T13:43:32Z</time>
      </trkpt>
      <trkpt lat="43.82663" lon="3.50196">
        <ele>770</ele>
        <time>2014-09-28T13:43:43Z</time>
      </trkpt>
      <trkpt lat="43.82672" lon="3.50191">
        <ele>772</ele>
        <time>2014-09-28T13:43:56Z</time>
      </trkpt>
      <trkpt lat="43.8268" lon="3.50195">
        <ele>770</ele>
        <time>2014-09-28T13:44:10Z</time>
      </trkpt>
      <trkpt lat="43.82688" lon="3.50201">
        <ele>773</ele>
        <time>2014-09-28T13:44:24Z</time>
      </trkpt>
      <trkpt lat="43.82694" lon="3.50211">
        <ele>772</ele>
        <time>2014-09-28T13:44:36Z</time>
      </trkpt>
      <trkpt lat="43.82697" lon="3.50223">
        <ele>770</ele>
        <time>2014-09-28T13:44:50Z</time>
      </trkpt>
      <trkpt lat="43.82702" lon="3.50233">
        <ele>769</ele>
        <time>2014-09-28T13:45:07Z</time>
      </trkpt>
      <trkpt lat="43.82705" lon="3.50246">
        <ele>767</ele>
        <time>2014-09-28T13:45:20Z</time>
      </trkpt>
      <trkpt lat="43.82711" lon="3.50257">
        <ele>767</ele>
        <time>2014-09-28T13:45:31Z</time>
      </trkpt>
      <trkpt lat="43.8271" lon="3.50269">
        <ele>769</ele>
        <time>2014-09-28T13:45:41Z</time>
      </trkpt>
      <trkpt lat="43.82712" lon="3.50283">
        <ele>766</ele>
        <time>2014-09-28T13:45:54Z</time>
      </trkpt>
      <trkpt lat="43.82717" lon="3.50294">
        <ele>768</ele>
        <time>2014-09-28T13:46:08Z</time>
      </trkpt>
      <trkpt lat="43.82725" lon="3.50301">
        <ele>766</ele>
        <time>2014-09-28T13:46:19Z</time>
      </trkpt>
      <trkpt lat="43.82732" lon="3.50308">
        <ele>757</ele>
        <time>2014-09-28T13:46:30Z</time>
      </trkpt>
      <trkpt lat="43.82738" lon="3.50318">
        <ele>757</ele>
        <time>2014-09-28T13:46:42Z</time>
      </trkpt>
      <trkpt lat="43.82739" lon="3.50331">
        <ele>758</ele>
        <time>2014-09-28T13:46:53Z</time>
      </trkpt>
      <trkpt lat="43.82747" lon="3.50337">
        <ele>757</ele>
        <time>2014-09-28T13:47:05Z</time>
      </trkpt>
      <trkpt lat="43.82751" lon="3.5035">
        <ele>757</ele>
        <time>2014-09-28T13:47:17Z</time>
      </trkpt>
      <trkpt lat="43.82751" lon="3.50361">
        <ele>754</ele>
        <time>2014-09-28T13:47:27Z</time>
      </trkpt>
      <trkpt lat="43.82757" lon="3.50372">
        <ele>751</ele>
        <time>2014-09-28T13:47:39Z</time>
      </trkpt>
      <trkpt lat="43.82767" lon="3.50394">
        <ele>749</ele>
        <time>2014-09-28T13:48:00Z</time>
      </trkpt>
      <trkpt lat="43.82777" lon="3.50401">
        <ele>750</ele>
        <time>2014-09-28T13:48:11Z</time>
      </trkpt>
      <trkpt lat="43.82783" lon="3.5041">
        <ele>747</ele>
        <time>2014-09-28T13:48:23Z</time>
      </trkpt>
      <trkpt lat="43.82783" lon="3.50423">
        <ele>745</ele>
        <time>2014-09-28T13:48:35Z</time>
      </trkpt>
      <trkpt lat="43.82787" lon="3.50434">
        <ele>748</ele>
        <time>2014-09-28T13:48:44Z</time>
      </trkpt>
      <trkpt lat="43.82789" lon="3.50446">
        <ele>749</ele>
        <time>2014-09-28T13:48:54Z</time>
      </trkpt>
      <trkpt lat="43.8279" lon="3.5046">
        <ele>749</ele>
        <time>2014-09-28T13:49:04Z</time>
      </trkpt>
      <trkpt lat="43.82794" lon="3.50472">
        <ele>749</ele>
        <time>2014-09-28T13:49:14Z</time>
      </trkpt>
      <trkpt lat="43.828" lon="3.50481">
        <ele>747</ele>
        <time>2014-09-28T13:49:22Z</time>
      </trkpt>
      <trkpt lat="43.82805" lon="3.50492">
        <ele>748</ele>
        <time>2014-09-28T13:49:33Z</time>
      </trkpt>
      <trkpt lat="43.82806" lon="3.50492">
        <ele>749</ele>
        <time>2014-09-28T13:49:34Z</time>
      </trkpt>
      <trkpt lat="43.82812" lon="3.50503">
        <ele>748</ele>
        <time>2014-09-28T13:49:44Z</time>
      </trkpt>
      <trkpt lat="43.82818" lon="3.50513">
        <ele>746</ele>
        <time>2014-09-28T13:49:55Z</time>
      </trkpt>
      <trkpt lat="43.82823" lon="3.50523">
        <ele>746</ele>
        <time>2014-09-28T13:50:04Z</time>
      </trkpt>
      <trkpt lat="43.8283" lon="3.50531">
        <ele>743</ele>
        <time>2014-09-28T13:50:12Z</time>
      </trkpt>
      <trkpt lat="43.82832" lon="3.50537">
        <ele>746</ele>
        <time>2014-09-28T13:50:18Z</time>
      </trkpt>
      <trkpt lat="43.82831" lon="3.5054">
        <ele>746</ele>
        <time>2014-09-28T13:50:22Z</time>
      </trkpt>
      <trkpt lat="43.8283" lon="3.50554">
        <ele>743</ele>
        <time>2014-09-28T13:50:36Z</time>
      </trkpt>
      <trkpt lat="43.82833" lon="3.50565">
        <ele>745</ele>
        <time>2014-09-28T13:50:47Z</time>
      </trkpt>
      <trkpt lat="43.82838" lon="3.50576">
        <ele>741</ele>
        <time>2014-09-28T13:50:59Z</time>
      </trkpt>
      <trkpt lat="43.82847" lon="3.50584">
        <ele>739</ele>
        <time>2014-09-28T13:51:12Z</time>
      </trkpt>
      <trkpt lat="43.82851" lon="3.5059">
        <ele>736</ele>
        <time>2014-09-28T13:52:16Z</time>
      </trkpt>
      <trkpt lat="43.82851" lon="3.50593">
        <ele>737</ele>
        <time>2014-09-28T13:52:18Z</time>
      </trkpt>
      <trkpt lat="43.82846" lon="3.50601">
        <ele>738</ele>
        <time>2014-09-28T13:52:32Z</time>
      </trkpt>
      <trkpt lat="43.82843" lon="3.50602">
        <ele>737</ele>
        <time>2014-09-28T13:52:35Z</time>
      </trkpt>
      <trkpt lat="43.82836" lon="3.50609">
        <ele>739</ele>
        <time>2014-09-28T13:52:46Z</time>
      </trkpt>
      <trkpt lat="43.82829" lon="3.50615">
        <ele>741</ele>
        <time>2014-09-28T13:52:56Z</time>
      </trkpt>
      <trkpt lat="43.82821" lon="3.50623">
        <ele>739</ele>
        <time>2014-09-28T13:53:07Z</time>
      </trkpt>
      <trkpt lat="43.82816" lon="3.50635">
        <ele>737</ele>
        <time>2014-09-28T13:53:18Z</time>
      </trkpt>
      <trkpt lat="43.82805" lon="3.50657">
        <ele>738</ele>
        <time>2014-09-28T13:53:45Z</time>
      </trkpt>
      <trkpt lat="43.82802" lon="3.50669">
        <ele>735</ele>
        <time>2014-09-28T13:54:00Z</time>
      </trkpt>
      <trkpt lat="43.82802" lon="3.50681">
        <ele>734</ele>
        <time>2014-09-28T13:54:14Z</time>
      </trkpt>
      <trkpt lat="43.82805" lon="3.50693">
        <ele>733</ele>
        <time>2014-09-28T13:54:27Z</time>
      </trkpt>
      <trkpt lat="43.82805" lon="3.50705">
        <ele>733</ele>
        <time>2014-09-28T13:54:41Z</time>
      </trkpt>
      <trkpt lat="43.82805" lon="3.50706">
        <ele>734</ele>
        <time>2014-09-28T13:54:42Z</time>
      </trkpt>
      <trkpt lat="43.82805" lon="3.50731">
        <ele>727</ele>
        <time>2014-09-28T13:55:09Z</time>
      </trkpt>
      <trkpt lat="43.82802" lon="3.50743">
        <ele>726</ele>
        <time>2014-09-28T13:55:23Z</time>
      </trkpt>
      <trkpt lat="43.82798" lon="3.50755">
        <ele>725</ele>
        <time>2014-09-28T13:55:40Z</time>
      </trkpt>
      <trkpt lat="43.82793" lon="3.50766">
        <ele>722</ele>
        <time>2014-09-28T13:55:52Z</time>
      </trkpt>
      <trkpt lat="43.82793" lon="3.50766">
        <ele>719</ele>
        <time>2014-09-28T13:55:53Z</time>
      </trkpt>
      <trkpt lat="43.82787" lon="3.50776">
        <ele>721</ele>
        <time>2014-09-28T13:56:03Z</time>
      </trkpt>
      <trkpt lat="43.82781" lon="3.50787">
        <ele>722</ele>
        <time>2014-09-28T13:56:15Z</time>
      </trkpt>
      <trkpt lat="43.82775" lon="3.50794">
        <ele>720</ele>
        <time>2014-09-28T13:56:24Z</time>
      </trkpt>
      <trkpt lat="43.82774" lon="3.50796">
        <ele>721</ele>
        <time>2014-09-28T13:56:25Z</time>
      </trkpt>
      <trkpt lat="43.82765" lon="3.50799">
        <ele>716</ele>
        <time>2014-09-28T13:56:40Z</time>
      </trkpt>
      <trkpt lat="43.82759" lon="3.50806">
        <ele>718</ele>
        <time>2014-09-28T13:56:49Z</time>
      </trkpt>
      <trkpt lat="43.82751" lon="3.50816">
        <ele>718</ele>
        <time>2014-09-28T13:56:59Z</time>
      </trkpt>
      <trkpt lat="43.82744" lon="3.50825">
        <ele>717</ele>
        <time>2014-09-28T13:57:12Z</time>
      </trkpt>
      <trkpt lat="43.82735" lon="3.50827">
        <ele>715</ele>
        <time>2014-09-28T13:57:30Z</time>
      </trkpt>
      <trkpt lat="43.82733" lon="3.50841">
        <ele>715</ele>
        <time>2014-09-28T13:57:45Z</time>
      </trkpt>
      <trkpt lat="43.82733" lon="3.50843">
        <ele>719</ele>
        <time>2014-09-28T13:57:49Z</time>
      </trkpt>
      <trkpt lat="43.82735" lon="3.50846">
        <ele>715</ele>
        <time>2014-09-28T13:57:52Z</time>
      </trkpt>
      <trkpt lat="43.82739" lon="3.50857">
        <ele>718</ele>
        <time>2014-09-28T13:58:02Z</time>
      </trkpt>
      <trkpt lat="43.82745" lon="3.50867">
        <ele>717</ele>
        <time>2014-09-28T13:58:12Z</time>
      </trkpt>
      <trkpt lat="43.82757" lon="3.50885">
        <ele>717</ele>
        <time>2014-09-28T13:58:31Z</time>
      </trkpt>
      <trkpt lat="43.82766" lon="3.50893">
        <ele>711</ele>
        <time>2014-09-28T13:58:46Z</time>
      </trkpt>
      <trkpt lat="43.82773" lon="3.50902">
        <ele>713</ele>
        <time>2014-09-28T13:58:58Z</time>
      </trkpt>
      <trkpt lat="43.82782" lon="3.50905">
        <ele>710</ele>
        <time>2014-09-28T13:59:10Z</time>
      </trkpt>
      <trkpt lat="43.82788" lon="3.50915">
        <ele>704</ele>
        <time>2014-09-28T13:59:25Z</time>
      </trkpt>
      <trkpt lat="43.82796" lon="3.5092">
        <ele>709</ele>
        <time>2014-09-28T13:59:37Z</time>
      </trkpt>
      <trkpt lat="43.82805" lon="3.50922">
        <ele>707</ele>
        <time>2014-09-28T13:59:51Z</time>
      </trkpt>
      <trkpt lat="43.82814" lon="3.50923">
        <ele>704</ele>
        <time>2014-09-28T14:00:00Z</time>
      </trkpt>
      <trkpt lat="43.82832" lon="3.50928">
        <ele>701</ele>
        <time>2014-09-28T14:00:22Z</time>
      </trkpt>
      <trkpt lat="43.82842" lon="3.5093">
        <ele>699</ele>
        <time>2014-09-28T14:00:36Z</time>
      </trkpt>
      <trkpt lat="43.82851" lon="3.50933">
        <ele>695</ele>
        <time>2014-09-28T14:00:47Z</time>
      </trkpt>
      <trkpt lat="43.8286" lon="3.50934">
        <ele>695</ele>
        <time>2014-09-28T14:00:57Z</time>
      </trkpt>
      <trkpt lat="43.8287" lon="3.50931">
        <ele>697</ele>
        <time>2014-09-28T14:01:33Z</time>
      </trkpt>
      <trkpt lat="43.82879" lon="3.5093">
        <ele>696</ele>
        <time>2014-09-28T14:01:42Z</time>
      </trkpt>
      <trkpt lat="43.82888" lon="3.50934">
        <ele>697</ele>
        <time>2014-09-28T14:01:51Z</time>
      </trkpt>
      <trkpt lat="43.82895" lon="3.50941">
        <ele>693</ele>
        <time>2014-09-28T14:02:03Z</time>
      </trkpt>
      <trkpt lat="43.82903" lon="3.50948">
        <ele>697</ele>
        <time>2014-09-28T14:02:13Z</time>
      </trkpt>
      <trkpt lat="43.82911" lon="3.50955">
        <ele>699</ele>
        <time>2014-09-28T14:02:23Z</time>
      </trkpt>
      <trkpt lat="43.82918" lon="3.50964">
        <ele>692</ele>
        <time>2014-09-28T14:02:35Z</time>
      </trkpt>
      <trkpt lat="43.82926" lon="3.50974">
        <ele>691</ele>
        <time>2014-09-28T14:02:46Z</time>
      </trkpt>
      <trkpt lat="43.82943" lon="3.50987">
        <ele>693</ele>
        <time>2014-09-28T14:03:04Z</time>
      </trkpt>
      <trkpt lat="43.8295" lon="3.5099">
        <ele>689</ele>
        <time>2014-09-28T14:03:13Z</time>
      </trkpt>
      <trkpt lat="43.82961" lon="3.50995">
        <ele>689</ele>
        <time>2014-09-28T14:03:23Z</time>
      </trkpt>
      <trkpt lat="43.82979" lon="3.50994">
        <ele>684</ele>
        <time>2014-09-28T14:03:46Z</time>
      </trkpt>
      <trkpt lat="43.82989" lon="3.50992">
        <ele>682</ele>
        <time>2014-09-28T14:04:01Z</time>
      </trkpt>
      <trkpt lat="43.82998" lon="3.50991">
        <ele>682</ele>
        <time>2014-09-28T14:04:16Z</time>
      </trkpt>
      <trkpt lat="43.83016" lon="3.5098">
        <ele>676</ele>
        <time>2014-09-28T14:04:42Z</time>
      </trkpt>
      <trkpt lat="43.83025" lon="3.50978">
        <ele>675</ele>
        <time>2014-09-28T14:04:55Z</time>
      </trkpt>
      <trkpt lat="43.83034" lon="3.50972">
        <ele>670</ele>
        <time>2014-09-28T14:05:06Z</time>
      </trkpt>
      <trkpt lat="43.83041" lon="3.50965">
        <ele>671</ele>
        <time>2014-09-28T14:05:17Z</time>
      </trkpt>
      <trkpt lat="43.8305" lon="3.50961">
        <ele>667</ele>
        <time>2014-09-28T14:05:32Z</time>
      </trkpt>
      <trkpt lat="43.83058" lon="3.50955">
        <ele>671</ele>
        <time>2014-09-28T14:05:49Z</time>
      </trkpt>
      <trkpt lat="43.83068" lon="3.5095">
        <ele>672</ele>
        <time>2014-09-28T14:06:03Z</time>
      </trkpt>
      <trkpt lat="43.83076" lon="3.50948">
        <ele>667</ele>
        <time>2014-09-28T14:06:16Z</time>
      </trkpt>
      <trkpt lat="43.83085" lon="3.50949">
        <ele>669</ele>
        <time>2014-09-28T14:06:28Z</time>
      </trkpt>
      <trkpt lat="43.83086" lon="3.50949">
        <ele>668</ele>
        <time>2014-09-28T14:06:29Z</time>
      </trkpt>
      <trkpt lat="43.83096" lon="3.50948">
        <ele>664</ele>
        <time>2014-09-28T14:06:39Z</time>
      </trkpt>
      <trkpt lat="43.83115" lon="3.5095">
        <ele>661</ele>
        <time>2014-09-28T14:06:59Z</time>
      </trkpt>
      <trkpt lat="43.83133" lon="3.50941">
        <ele>661</ele>
        <time>2014-09-28T14:07:18Z</time>
      </trkpt>
      <trkpt lat="43.83142" lon="3.50938">
        <ele>661</ele>
        <time>2014-09-28T14:07:29Z</time>
      </trkpt>
      <trkpt lat="43.83151" lon="3.50935">
        <ele>659</ele>
        <time>2014-09-28T14:07:41Z</time>
      </trkpt>
      <trkpt lat="43.83159" lon="3.50938">
        <ele>654</ele>
        <time>2014-09-28T14:07:52Z</time>
      </trkpt>
      <trkpt lat="43.8316" lon="3.50938">
        <ele>653</ele>
        <time>2014-09-28T14:07:53Z</time>
      </trkpt>
      <trkpt lat="43.83169" lon="3.50942">
        <ele>654</ele>
        <time>2014-09-28T14:08:04Z</time>
      </trkpt>
      <trkpt lat="43.83178" lon="3.5094">
        <ele>653</ele>
        <time>2014-09-28T14:08:14Z</time>
      </trkpt>
      <trkpt lat="43.83186" lon="3.50936">
        <ele>648</ele>
        <time>2014-09-28T14:08:25Z</time>
      </trkpt>
      <trkpt lat="43.83196" lon="3.50935">
        <ele>649</ele>
        <time>2014-09-28T14:08:38Z</time>
      </trkpt>
      <trkpt lat="43.83215" lon="3.50938">
        <ele>645</ele>
        <time>2014-09-28T14:09:05Z</time>
      </trkpt>
      <trkpt lat="43.83233" lon="3.50945">
        <ele>640</ele>
        <time>2014-09-28T14:09:28Z</time>
      </trkpt>
      <trkpt lat="43.83241" lon="3.50949">
        <ele>635</ele>
        <time>2014-09-28T14:09:39Z</time>
      </trkpt>
      <trkpt lat="43.83246" lon="3.50952">
        <ele>639</ele>
        <time>2014-09-28T14:09:52Z</time>
      </trkpt>
      <trkpt lat="43.83246" lon="3.50953">
        <ele>638</ele>
        <time>2014-09-28T14:10:07Z</time>
      </trkpt>
      <trkpt lat="43.83252" lon="3.50956">
        <ele>640</ele>
        <time>2014-09-28T14:10:30Z</time>
      </trkpt>
      <trkpt lat="43.83253" lon="3.50957">
        <ele>638</ele>
        <time>2014-09-28T14:10:35Z</time>
      </trkpt>
      <trkpt lat="43.83255" lon="3.50958">
        <ele>637</ele>
        <time>2014-09-28T14:10:39Z</time>
      </trkpt>
      <trkpt lat="43.83258" lon="3.50958">
        <ele>640</ele>
        <time>2014-09-28T14:10:49Z</time>
      </trkpt>
      <trkpt lat="43.83268" lon="3.50953">
        <ele>640</ele>
        <time>2014-09-28T14:11:00Z</time>
      </trkpt>
      <trkpt lat="43.83278" lon="3.50951">
        <ele>637</ele>
        <time>2014-09-28T14:11:10Z</time>
      </trkpt>
      <trkpt lat="43.83295" lon="3.50942">
        <ele>637</ele>
        <time>2014-09-28T14:11:27Z</time>
      </trkpt>
      <trkpt lat="43.83304" lon="3.50939">
        <ele>634</ele>
        <time>2014-09-28T14:11:36Z</time>
      </trkpt>
      <trkpt lat="43.83313" lon="3.50937">
        <ele>634</ele>
        <time>2014-09-28T14:11:46Z</time>
      </trkpt>
      <trkpt lat="43.83333" lon="3.50939">
        <ele>634</ele>
        <time>2014-09-28T14:12:05Z</time>
      </trkpt>
      <trkpt lat="43.83341" lon="3.50937">
        <ele>635</ele>
        <time>2014-09-28T14:12:18Z</time>
      </trkpt>
      <trkpt lat="43.83351" lon="3.50937">
        <ele>632</ele>
        <time>2014-09-28T14:12:26Z</time>
      </trkpt>
      <trkpt lat="43.83361" lon="3.50939">
        <ele>631</ele>
        <time>2014-09-28T14:12:36Z</time>
      </trkpt>
      <trkpt lat="43.83372" lon="3.50941">
        <ele>630</ele>
        <time>2014-09-28T14:12:47Z</time>
      </trkpt>
      <trkpt lat="43.8338" lon="3.5094">
        <ele>627</ele>
        <time>2014-09-28T14:12:55Z</time>
      </trkpt>
      <trkpt lat="43.83408" lon="3.50945">
        <ele>624</ele>
        <time>2014-09-28T14:13:21Z</time>
      </trkpt>
      <trkpt lat="43.83418" lon="3.50948">
        <ele>632</ele>
        <time>2014-09-28T14:13:30Z</time>
      </trkpt>
      <trkpt lat="43.83436" lon="3.50953">
        <ele>632</ele>
        <time>2014-09-28T14:13:47Z</time>
      </trkpt>
      <trkpt lat="43.83445" lon="3.50954">
        <ele>631</ele>
        <time>2014-09-28T14:13:56Z</time>
      </trkpt>
      <trkpt lat="43.83473" lon="3.50954">
        <ele>629</ele>
        <time>2014-09-28T14:14:22Z</time>
      </trkpt>
      <trkpt lat="43.83492" lon="3.50955">
        <ele>627</ele>
        <time>2014-09-28T14:14:40Z</time>
      </trkpt>
      <trkpt lat="43.83512" lon="3.50952">
        <ele>624</ele>
        <time>2014-09-28T14:15:00Z</time>
      </trkpt>
      <trkpt lat="43.8352" lon="3.50949">
        <ele>623</ele>
        <time>2014-09-28T14:15:07Z</time>
      </trkpt>
      <trkpt lat="43.8353" lon="3.50948">
        <ele>623</ele>
        <time>2014-09-28T14:15:18Z</time>
      </trkpt>
      <trkpt lat="43.83539" lon="3.50947">
        <ele>621</ele>
        <time>2014-09-28T14:15:27Z</time>
      </trkpt>
      <trkpt lat="43.83548" lon="3.50944">
        <ele>621</ele>
        <time>2014-09-28T14:15:35Z</time>
      </trkpt>
      <trkpt lat="43.83558" lon="3.50943">
        <ele>619</ele>
        <time>2014-09-28T14:15:44Z</time>
      </trkpt>
      <trkpt lat="43.83568" lon="3.50943">
        <ele>624</ele>
        <time>2014-09-28T14:15:53Z</time>
      </trkpt>
      <trkpt lat="43.83585" lon="3.50942">
        <ele>625</ele>
        <time>2014-09-28T14:16:09Z</time>
      </trkpt>
      <trkpt lat="43.83604" lon="3.50945">
        <ele>625</ele>
        <time>2014-09-28T14:16:25Z</time>
      </trkpt>
      <trkpt lat="43.83614" lon="3.50944">
        <ele>625</ele>
        <time>2014-09-28T14:16:35Z</time>
      </trkpt>
      <trkpt lat="43.83622" lon="3.50944">
        <ele>625</ele>
        <time>2014-09-28T14:16:43Z</time>
      </trkpt>
      <trkpt lat="43.83641" lon="3.50947">
        <ele>623</ele>
        <time>2014-09-28T14:17:00Z</time>
      </trkpt>
      <trkpt lat="43.83651" lon="3.50949">
        <ele>626</ele>
        <time>2014-09-28T14:17:09Z</time>
      </trkpt>
      <trkpt lat="43.83659" lon="3.50953">
        <ele>629</ele>
        <time>2014-09-28T14:17:17Z</time>
      </trkpt>
      <trkpt lat="43.8366" lon="3.50954">
        <ele>627</ele>
        <time>2014-09-28T14:17:18Z</time>
      </trkpt>
      <trkpt lat="43.8367" lon="3.50956">
        <ele>630</ele>
        <time>2014-09-28T14:17:27Z</time>
      </trkpt>
      <trkpt lat="43.83679" lon="3.50957">
        <ele>629</ele>
        <time>2014-09-28T14:17:35Z</time>
      </trkpt>
      <trkpt lat="43.8368" lon="3.50958">
        <ele>628</ele>
        <time>2014-09-28T14:17:36Z</time>
      </trkpt>
      <trkpt lat="43.8369" lon="3.50961">
        <ele>627</ele>
        <time>2014-09-28T14:17:45Z</time>
      </trkpt>
      <trkpt lat="43.83698" lon="3.50965">
        <ele>628</ele>
        <time>2014-09-28T14:17:52Z</time>
      </trkpt>
      <trkpt lat="43.83724" lon="3.5098">
        <ele>633</ele>
        <time>2014-09-28T14:18:19Z</time>
      </trkpt>
      <trkpt lat="43.83725" lon="3.50981">
        <ele>632</ele>
        <time>2014-09-28T14:18:20Z</time>
      </trkpt>
      <trkpt lat="43.83743" lon="3.50991">
        <ele>633</ele>
        <time>2014-09-28T14:18:37Z</time>
      </trkpt>
      <trkpt lat="43.83752" lon="3.50997">
        <ele>631</ele>
        <time>2014-09-28T14:18:45Z</time>
      </trkpt>
      <trkpt lat="43.8376" lon="3.50999">
        <ele>630</ele>
        <time>2014-09-28T14:18:52Z</time>
      </trkpt>
      <trkpt lat="43.83769" lon="3.50998">
        <ele>627</ele>
        <time>2014-09-28T14:19:02Z</time>
      </trkpt>
      <trkpt lat="43.83778" lon="3.50993">
        <ele>626</ele>
        <time>2014-09-28T14:19:11Z</time>
      </trkpt>
      <trkpt lat="43.83787" lon="3.50988">
        <ele>629</ele>
        <time>2014-09-28T14:19:21Z</time>
      </trkpt>
      <trkpt lat="43.83797" lon="3.50986">
        <ele>627</ele>
        <time>2014-09-28T14:19:30Z</time>
      </trkpt>
      <trkpt lat="43.83806" lon="3.50987">
        <ele>624</ele>
        <time>2014-09-28T14:19:39Z</time>
      </trkpt>
      <trkpt lat="43.83816" lon="3.50992">
        <ele>626</ele>
        <time>2014-09-28T14:19:47Z</time>
      </trkpt>
      <trkpt lat="43.83824" lon="3.50994">
        <ele>625</ele>
        <time>2014-09-28T14:19:54Z</time>
      </trkpt>
      <trkpt lat="43.83832" lon="3.51">
        <ele>630</ele>
        <time>2014-09-28T14:20:03Z</time>
      </trkpt>
      <trkpt lat="43.8384" lon="3.51009">
        <ele>630</ele>
        <time>2014-09-28T14:20:11Z</time>
      </trkpt>
      <trkpt lat="43.83847" lon="3.51016">
        <ele>628</ele>
        <time>2014-09-28T14:20:18Z</time>
      </trkpt>
      <trkpt lat="43.83854" lon="3.51025">
        <ele>630</ele>
        <time>2014-09-28T14:20:26Z</time>
      </trkpt>
      <trkpt lat="43.83868" lon="3.51041">
        <ele>634</ele>
        <time>2014-09-28T14:20:43Z</time>
      </trkpt>
      <trkpt lat="43.83874" lon="3.51049">
        <ele>632</ele>
        <time>2014-09-28T14:20:51Z</time>
      </trkpt>
      <trkpt lat="43.83902" lon="3.51084">
        <ele>632</ele>
        <time>2014-09-28T14:21:22Z</time>
      </trkpt>
      <trkpt lat="43.83909" lon="3.51092">
        <ele>633</ele>
        <time>2014-09-28T14:21:30Z</time>
      </trkpt>
      <trkpt lat="43.83917" lon="3.51103">
        <ele>632</ele>
        <time>2014-09-28T14:21:40Z</time>
      </trkpt>
      <trkpt lat="43.83925" lon="3.51106">
        <ele>631</ele>
        <time>2014-09-28T14:21:49Z</time>
      </trkpt>
      <trkpt lat="43.83935" lon="3.51111">
        <ele>632</ele>
        <time>2014-09-28T14:22:00Z</time>
      </trkpt>
      <trkpt lat="43.8395" lon="3.51098">
        <ele>631</ele>
        <time>2014-09-28T14:22:20Z</time>
      </trkpt>
      <trkpt lat="43.83959" lon="3.51094">
        <ele>632</ele>
        <time>2014-09-28T14:22:30Z</time>
      </trkpt>
      <trkpt lat="43.83969" lon="3.51093">
        <ele>636</ele>
        <time>2014-09-28T14:22:39Z</time>
      </trkpt>
      <trkpt lat="43.83988" lon="3.51092">
        <ele>633</ele>
        <time>2014-09-28T14:22:55Z</time>
      </trkpt>
      <trkpt lat="43.83999" lon="3.51092">
        <ele>634</ele>
        <time>2014-09-28T14:23:05Z</time>
      </trkpt>
      <trkpt lat="43.84007" lon="3.51094">
        <ele>633</ele>
        <time>2014-09-28T14:23:13Z</time>
      </trkpt>
      <trkpt lat="43.84024" lon="3.51105">
        <ele>633</ele>
        <time>2014-09-28T14:23:31Z</time>
      </trkpt>
      <trkpt lat="43.8404" lon="3.5112">
        <ele>634</ele>
        <time>2014-09-28T14:23:53Z</time>
      </trkpt>
      <trkpt lat="43.84057" lon="3.51133">
        <ele>629</ele>
        <time>2014-09-28T14:24:10Z</time>
      </trkpt>
      <trkpt lat="43.84065" lon="3.51137">
        <ele>629</ele>
        <time>2014-09-28T14:24:21Z</time>
      </trkpt>
      <trkpt lat="43.84074" lon="3.5114">
        <ele>629</ele>
        <time>2014-09-28T14:24:31Z</time>
      </trkpt>
      <trkpt lat="43.84084" lon="3.51143">
        <ele>630</ele>
        <time>2014-09-28T14:24:43Z</time>
      </trkpt>
      <trkpt lat="43.84113" lon="3.51146">
        <ele>629</ele>
        <time>2014-09-28T14:25:06Z</time>
      </trkpt>
      <trkpt lat="43.84132" lon="3.51145">
        <ele>623</ele>
        <time>2014-09-28T14:25:24Z</time>
      </trkpt>
      <trkpt lat="43.84151" lon="3.5115">
        <ele>624</ele>
        <time>2014-09-28T14:25:43Z</time>
      </trkpt>
      <trkpt lat="43.8416" lon="3.51151">
        <ele>622</ele>
        <time>2014-09-28T14:25:50Z</time>
      </trkpt>
      <trkpt lat="43.84187" lon="3.51163">
        <ele>621</ele>
        <time>2014-09-28T14:26:16Z</time>
      </trkpt>
      <trkpt lat="43.84197" lon="3.51166">
        <ele>620</ele>
        <time>2014-09-28T14:26:26Z</time>
      </trkpt>
      <trkpt lat="43.84205" lon="3.51169">
        <ele>619</ele>
        <time>2014-09-28T14:26:34Z</time>
      </trkpt>
      <trkpt lat="43.84214" lon="3.51168">
        <ele>616</ele>
        <time>2014-09-28T14:26:44Z</time>
      </trkpt>
      <trkpt lat="43.84225" lon="3.51164">
        <ele>621</ele>
        <time>2014-09-28T14:26:53Z</time>
      </trkpt>
      <trkpt lat="43.84234" lon="3.51161">
        <ele>619</ele>
        <time>2014-09-28T14:27:02Z</time>
      </trkpt>
      <trkpt lat="43.84242" lon="3.51161">
        <ele>611</ele>
        <time>2014-09-28T14:27:10Z</time>
      </trkpt>
      <trkpt lat="43.84252" lon="3.51162">
        <ele>613</ele>
        <time>2014-09-28T14:27:19Z</time>
      </trkpt>
      <trkpt lat="43.8426" lon="3.51165">
        <ele>616</ele>
        <time>2014-09-28T14:27:26Z</time>
      </trkpt>
      <trkpt lat="43.8427" lon="3.51173">
        <ele>615</ele>
        <time>2014-09-28T14:27:36Z</time>
      </trkpt>
      <trkpt lat="43.84278" lon="3.51178">
        <ele>615</ele>
        <time>2014-09-28T14:27:44Z</time>
      </trkpt>
      <trkpt lat="43.84288" lon="3.51179">
        <ele>615</ele>
        <time>2014-09-28T14:27:52Z</time>
      </trkpt>
      <trkpt lat="43.84308" lon="3.51183">
        <ele>614</ele>
        <time>2014-09-28T14:28:11Z</time>
      </trkpt>
      <trkpt lat="43.84316" lon="3.51186">
        <ele>613</ele>
        <time>2014-09-28T14:28:19Z</time>
      </trkpt>
      <trkpt lat="43.84325" lon="3.51191">
        <ele>617</ele>
        <time>2014-09-28T14:28:28Z</time>
      </trkpt>
      <trkpt lat="43.84334" lon="3.51196">
        <ele>619</ele>
        <time>2014-09-28T14:28:41Z</time>
      </trkpt>
      <trkpt lat="43.84343" lon="3.51199">
        <ele>618</ele>
        <time>2014-09-28T14:28:50Z</time>
      </trkpt>
      <trkpt lat="43.84352" lon="3.51202">
        <ele>626</ele>
        <time>2014-09-28T14:28:59Z</time>
      </trkpt>
      <trkpt lat="43.84361" lon="3.51206">
        <ele>631</ele>
        <time>2014-09-28T14:29:08Z</time>
      </trkpt>
      <trkpt lat="43.8437" lon="3.51212">
        <ele>629</ele>
        <time>2014-09-28T14:29:15Z</time>
      </trkpt>
      <trkpt lat="43.84379" lon="3.51216">
        <ele>627</ele>
        <time>2014-09-28T14:29:24Z</time>
      </trkpt>
      <trkpt lat="43.84385" lon="3.51225">
        <ele>627</ele>
        <time>2014-09-28T14:29:32Z</time>
      </trkpt>
      <trkpt lat="43.84387" lon="3.5124">
        <ele>630</ele>
        <time>2014-09-28T14:29:43Z</time>
      </trkpt>
      <trkpt lat="43.84389" lon="3.51252">
        <ele>633</ele>
        <time>2014-09-28T14:29:52Z</time>
      </trkpt>
      <trkpt lat="43.84393" lon="3.5126">
        <ele>631</ele>
        <time>2014-09-28T14:29:58Z</time>
      </trkpt>
      <trkpt lat="43.84401" lon="3.5127">
        <ele>625</ele>
        <time>2014-09-28T14:30:05Z</time>
      </trkpt>
      <trkpt lat="43.8441" lon="3.51279">
        <ele>627</ele>
        <time>2014-09-28T14:30:14Z</time>
      </trkpt>
      <trkpt lat="43.84425" lon="3.51291">
        <ele>629</ele>
        <time>2014-09-28T14:30:31Z</time>
      </trkpt>
      <trkpt lat="43.8444" lon="3.51307">
        <ele>628</ele>
        <time>2014-09-28T14:30:48Z</time>
      </trkpt>
      <trkpt lat="43.84442" lon="3.51309">
        <ele>628</ele>
        <time>2014-09-28T14:30:49Z</time>
      </trkpt>
      <trkpt lat="43.84449" lon="3.51315">
        <ele>626</ele>
        <time>2014-09-28T14:30:58Z</time>
      </trkpt>
      <trkpt lat="43.84456" lon="3.51325">
        <ele>627</ele>
        <time>2014-09-28T14:31:07Z</time>
      </trkpt>
      <trkpt lat="43.84457" lon="3.51339">
        <ele>628</ele>
        <time>2014-09-28T14:31:16Z</time>
      </trkpt>
      <trkpt lat="43.84458" lon="3.51353">
        <ele>626</ele>
        <time>2014-09-28T14:31:27Z</time>
      </trkpt>
      <trkpt lat="43.8446" lon="3.51365">
        <ele>627</ele>
        <time>2014-09-28T14:31:34Z</time>
      </trkpt>
      <trkpt lat="43.84463" lon="3.51375">
        <ele>629</ele>
        <time>2014-09-28T14:31:43Z</time>
      </trkpt>
      <trkpt lat="43.84463" lon="3.51377">
        <ele>628</ele>
        <time>2014-09-28T14:31:44Z</time>
      </trkpt>
      <trkpt lat="43.84466" lon="3.5139">
        <ele>626</ele>
        <time>2014-09-28T14:31:53Z</time>
      </trkpt>
      <trkpt lat="43.84468" lon="3.51401">
        <ele>625</ele>
        <time>2014-09-28T14:32:00Z</time>
      </trkpt>
      <trkpt lat="43.84471" lon="3.51414">
        <ele>621</ele>
        <time>2014-09-28T14:32:08Z</time>
      </trkpt>
      <trkpt lat="43.84473" lon="3.51428">
        <ele>623</ele>
        <time>2014-09-28T14:32:16Z</time>
      </trkpt>
      <trkpt lat="43.84476" lon="3.5144">
        <ele>622</ele>
        <time>2014-09-28T14:32:23Z</time>
      </trkpt>
      <trkpt lat="43.84482" lon="3.51452">
        <ele>620</ele>
        <time>2014-09-28T14:32:34Z</time>
      </trkpt>
      <trkpt lat="43.84488" lon="3.51458">
        <ele>619</ele>
        <time>2014-09-28T14:32:41Z</time>
      </trkpt>
      <trkpt lat="43.84495" lon="3.51465">
        <ele>622</ele>
        <time>2014-09-28T14:32:49Z</time>
      </trkpt>
      <trkpt lat="43.84496" lon="3.51467">
        <ele>622</ele>
        <time>2014-09-28T14:32:50Z</time>
      </trkpt>
      <trkpt lat="43.845" lon="3.51477">
        <ele>624</ele>
        <time>2014-09-28T14:33:01Z</time>
      </trkpt>
      <trkpt lat="43.84501" lon="3.51488">
        <ele>622</ele>
        <time>2014-09-28T14:33:14Z</time>
      </trkpt>
      <trkpt lat="43.84503" lon="3.51502">
        <ele>625</ele>
        <time>2014-09-28T14:33:23Z</time>
      </trkpt>
      <trkpt lat="43.84507" lon="3.51515">
        <ele>621</ele>
        <time>2014-09-28T14:33:33Z</time>
      </trkpt>
      <trkpt lat="43.84511" lon="3.51523">
        <ele>624</ele>
        <time>2014-09-28T14:33:38Z</time>
      </trkpt>
      <trkpt lat="43.84517" lon="3.51538">
        <ele>620</ele>
        <time>2014-09-28T14:33:47Z</time>
      </trkpt>
      <trkpt lat="43.84519" lon="3.51549">
        <ele>618</ele>
        <time>2014-09-28T14:33:54Z</time>
      </trkpt>
      <trkpt lat="43.84529" lon="3.51575">
        <ele>618</ele>
        <time>2014-09-28T14:34:14Z</time>
      </trkpt>
      <trkpt lat="43.84532" lon="3.51588">
        <ele>619</ele>
        <time>2014-09-28T14:34:22Z</time>
      </trkpt>
      <trkpt lat="43.84536" lon="3.51598">
        <ele>617</ele>
        <time>2014-09-28T14:34:28Z</time>
      </trkpt>
      <trkpt lat="43.8454" lon="3.51611">
        <ele>615</ele>
        <time>2014-09-28T14:34:37Z</time>
      </trkpt>
      <trkpt lat="43.84546" lon="3.51623">
        <ele>617</ele>
        <time>2014-09-28T14:34:47Z</time>
      </trkpt>
      <trkpt lat="43.8455" lon="3.51635">
        <ele>620</ele>
        <time>2014-09-28T14:34:56Z</time>
      </trkpt>
      <trkpt lat="43.84554" lon="3.51647">
        <ele>620</ele>
        <time>2014-09-28T14:35:06Z</time>
      </trkpt>
      <trkpt lat="43.84558" lon="3.51658">
        <ele>619</ele>
        <time>2014-09-28T14:35:14Z</time>
      </trkpt>
      <trkpt lat="43.84562" lon="3.51672">
        <ele>621</ele>
        <time>2014-09-28T14:35:22Z</time>
      </trkpt>
      <trkpt lat="43.84566" lon="3.51683">
        <ele>618</ele>
        <time>2014-09-28T14:35:31Z</time>
      </trkpt>
      <trkpt lat="43.8457" lon="3.51694">
        <ele>616</ele>
        <time>2014-09-28T14:35:39Z</time>
      </trkpt>
      <trkpt lat="43.84577" lon="3.51703">
        <ele>617</ele>
        <time>2014-09-28T14:35:47Z</time>
      </trkpt>
      <trkpt lat="43.8459" lon="3.51724">
        <ele>618</ele>
        <time>2014-09-28T14:36:06Z</time>
      </trkpt>
      <trkpt lat="43.84596" lon="3.51734">
        <ele>622</ele>
        <time>2014-09-28T14:36:15Z</time>
      </trkpt>
      <trkpt lat="43.84596" lon="3.51737">
        <ele>624</ele>
        <time>2014-09-28T14:36:21Z</time>
      </trkpt>
      <trkpt lat="43.84604" lon="3.51751">
        <ele>622</ele>
        <time>2014-09-28T14:36:32Z</time>
      </trkpt>
      <trkpt lat="43.84608" lon="3.51764">
        <ele>622</ele>
        <time>2014-09-28T14:36:43Z</time>
      </trkpt>
      <trkpt lat="43.84609" lon="3.51777">
        <ele>626</ele>
        <time>2014-09-28T14:36:52Z</time>
      </trkpt>
      <trkpt lat="43.84609" lon="3.51789">
        <ele>625</ele>
        <time>2014-09-28T14:37:01Z</time>
      </trkpt>
      <trkpt lat="43.84609" lon="3.5179">
        <ele>627</ele>
        <time>2014-09-28T14:37:02Z</time>
      </trkpt>
      <trkpt lat="43.8461" lon="3.51801">
        <ele>628</ele>
        <time>2014-09-28T14:37:10Z</time>
      </trkpt>
      <trkpt lat="43.84611" lon="3.51815">
        <ele>633</ele>
        <time>2014-09-28T14:37:22Z</time>
      </trkpt>
      <trkpt lat="43.84609" lon="3.51827">
        <ele>633</ele>
        <time>2014-09-28T14:37:32Z</time>
      </trkpt>
      <trkpt lat="43.846" lon="3.51834">
        <ele>634</ele>
        <time>2014-09-28T14:37:43Z</time>
      </trkpt>
      <trkpt lat="43.84593" lon="3.51841">
        <ele>637</ele>
        <time>2014-09-28T14:37:51Z</time>
      </trkpt>
      <trkpt lat="43.84592" lon="3.51842">
        <ele>636</ele>
        <time>2014-09-28T14:37:52Z</time>
      </trkpt>
      <trkpt lat="43.84589" lon="3.51852">
        <ele>631</ele>
        <time>2014-09-28T14:38:00Z</time>
      </trkpt>
      <trkpt lat="43.84587" lon="3.51864">
        <ele>636</ele>
        <time>2014-09-28T14:38:14Z</time>
      </trkpt>
      <trkpt lat="43.84587" lon="3.51866">
        <ele>634</ele>
        <time>2014-09-28T14:38:17Z</time>
      </trkpt>
      <trkpt lat="43.84587" lon="3.51867">
        <ele>632</ele>
        <time>2014-09-28T14:38:23Z</time>
      </trkpt>
      <trkpt lat="43.84575" lon="3.51871">
        <ele>634</ele>
        <time>2014-09-28T14:38:37Z</time>
      </trkpt>
      <trkpt lat="43.84567" lon="3.51877">
        <ele>635</ele>
        <time>2014-09-28T14:38:49Z</time>
      </trkpt>
      <trkpt lat="43.84562" lon="3.51877">
        <ele>630</ele>
        <time>2014-09-28T14:39:07Z</time>
      </trkpt>
      <trkpt lat="43.84559" lon="3.51876">
        <ele>631</ele>
        <time>2014-09-28T14:39:12Z</time>
      </trkpt>
      <trkpt lat="43.84551" lon="3.51869">
        <ele>627</ele>
        <time>2014-09-28T14:39:27Z</time>
      </trkpt>
      <trkpt lat="43.84541" lon="3.51866">
        <ele>629</ele>
        <time>2014-09-28T14:39:34Z</time>
      </trkpt>
      <trkpt lat="43.84532" lon="3.51864">
        <ele>632</ele>
        <time>2014-09-28T14:39:43Z</time>
      </trkpt>
      <trkpt lat="43.84507" lon="3.51844">
        <ele>630</ele>
        <time>2014-09-28T14:40:09Z</time>
      </trkpt>
      <trkpt lat="43.84503" lon="3.51839">
        <ele>632</ele>
        <time>2014-09-28T14:40:24Z</time>
      </trkpt>
      <trkpt lat="43.84504" lon="3.51838">
        <ele>631</ele>
        <time>2014-09-28T14:40:25Z</time>
      </trkpt>
      <trkpt lat="43.84503" lon="3.51836">
        <ele>633</ele>
        <time>2014-09-28T14:40:28Z</time>
      </trkpt>
      <trkpt lat="43.84496" lon="3.51826">
        <ele>633</ele>
        <time>2014-09-28T14:40:39Z</time>
      </trkpt>
      <trkpt lat="43.84493" lon="3.51823">
        <ele>628</ele>
        <time>2014-09-28T14:40:47Z</time>
      </trkpt>
      <trkpt lat="43.84492" lon="3.51824">
        <ele>624</ele>
        <time>2014-09-28T14:40:52Z</time>
      </trkpt>
      <trkpt lat="43.84492" lon="3.51823">
        <ele>637</ele>
        <time>2014-09-28T14:41:14Z</time>
      </trkpt>
      <trkpt lat="43.84493" lon="3.51824">
        <ele>636</ele>
        <time>2014-09-28T14:41:16Z</time>
      </trkpt>
      <trkpt lat="43.84494" lon="3.51823">
        <ele>631</ele>
        <time>2014-09-28T14:41:27Z</time>
      </trkpt>
    </trkseg>
  </trk>
</gpx>